Time,TemperatureF,DewpointF,PressureIn,WindDirection,WindDirectionDegrees,WindSpeedMPH,WindSpeedGustMPH,Humidity,HourlyPrecipIn,Conditions,Clouds,dailyrainin,SoftwareType,DateUTC
2013-07-21 00:00:00,77.1,58.7,29.74,SW,223,0.0,0.0,53,0.00,,,0.00,VWS V14.01,2013-07-21 04:00:00,
2013-07-21 00:01:00,77.1,58.7,29.74,SW,223,0.0,0.0,53,0.00,,,0.00,VWS V14.01,2013-07-21 04:01:00,
2013-07-21 00:02:00,76.9,59.0,29.74,SW,223,0.0,0.0,54,0.00,,,0.00,VWS V14.01,2013-07-21 04:02:00,
2013-07-21 00:03:00,76.9,59.0,29.74,SW,223,0.0,0.0,54,0.00,,,0.00,VWS V14.01,2013-07-21 04:03:00,
2013-07-21 00:04:00,76.9,59.0,29.74,SW,223,0.0,0.0,54,0.00,,,0.00,VWS V14.01,2013-07-21 04:04:00,
2013-07-21 00:05:00,76.7,58.9,29.74,WSW,246,0.0,2.2,54,0.00,,,0.00,VWS V14.01,2013-07-21 04:05:00,
2013-07-21 00:06:00,76.7,58.9,29.74,WSW,246,0.0,2.2,54,0.00,,,0.00,VWS V14.01,2013-07-21 04:06:00,
2013-07-21 00:07:00,76.7,59.4,29.74,WSW,246,0.0,0.0,55,0.00,,,0.00,VWS V14.01,2013-07-21 04:07:00,
2013-07-21 00:08:00,76.7,59.4,29.74,WSW,246,0.0,0.0,55,0.00,,,0.00,VWS V14.01,2013-07-21 04:08:00,
2013-07-21 00:09:00,76.7,59.4,29.74,WSW,241,0.0,2.7,55,0.00,,,0.00,VWS V14.01,2013-07-21 04:09:00,
2013-07-21 00:10:00,76.6,59.7,29.74,WSW,241,0.0,0.0,56,0.00,,,0.00,VWS V14.01,2013-07-21 04:10:00,
2013-07-21 00:11:00,76.6,59.7,29.74,WSW,241,0.0,0.0,56,0.00,,,0.00,VWS V14.01,2013-07-21 04:11:00,
2013-07-21 00:12:00,76.6,59.7,29.74,SSW,208,0.0,0.0,56,0.00,,,0.00,VWS V14.01,2013-07-21 04:12:00,
2013-07-21 00:13:00,76.4,60.0,29.74,South,171,2.2,4.0,57,0.00,,,0.00,VWS V14.01,2013-07-21 04:13:00,
2013-07-21 00:14:00,76.4,59.5,29.74,SE,143,0.0,3.1,56,0.00,,,0.00,VWS V14.01,2013-07-21 04:14:00,
2013-07-21 00:15:00,76.4,59.5,29.74,SE,143,0.0,0.0,56,0.00,,,0.00,VWS V14.01,2013-07-21 04:15:00,
2013-07-21 00:16:00,76.4,59.5,29.74,SE,143,0.0,0.0,56,0.00,,,0.00,VWS V14.01,2013-07-21 04:16:00,
2013-07-21 00:17:00,76.4,59.5,29.74,SE,143,0.0,0.0,56,0.00,,,0.00,VWS V14.01,2013-07-21 04:17:00,
2013-07-21 00:18:00,76.2,59.4,29.74,SE,143,0.0,0.0,56,0.00,,,0.00,VWS V14.01,2013-07-21 04:18:00,
2013-07-21 00:19:00,76.2,59.9,29.77,WSW,242,0.0,3.1,57,0.00,,,0.00,VWS V14.01,2013-07-21 04:19:00,
2013-07-21 00:20:00,76.2,59.9,29.77,WSW,242,0.0,0.0,57,0.00,,,0.00,VWS V14.01,2013-07-21 04:20:00,
2013-07-21 00:21:00,76.2,59.9,29.77,WSW,242,0.0,0.0,57,0.00,,,0.00,VWS V14.01,2013-07-21 04:21:00,
2013-07-21 00:22:00,76.2,59.9,29.77,WSW,242,0.0,0.0,57,0.00,,,0.00,VWS V14.01,2013-07-21 04:22:00,
2013-07-21 00:23:00,76.2,59.9,29.77,SW,227,0.0,0.0,57,0.00,,,0.00,VWS V14.01,2013-07-21 04:23:00,
2013-07-21 00:24:00,76.2,59.9,29.77,SSE,161,3.6,3.6,57,0.00,,,0.00,VWS V14.01,2013-07-21 04:24:00,
2013-07-21 00:25:00,76.2,60.8,29.77,South,185,0.0,4.9,59,0.00,,,0.00,VWS V14.01,2013-07-21 04:25:00,
2013-07-21 00:26:00,76.0,60.7,29.77,South,185,0.0,0.0,59,0.00,,,0.00,VWS V14.01,2013-07-21 04:26:00,
2013-07-21 00:27:00,76.0,61.2,29.77,SSW,213,0.0,6.3,60,0.00,,,0.00,VWS V14.01,2013-07-21 04:27:00,
2013-07-21 00:28:00,76.0,61.2,29.77,South,173,2.7,3.1,60,0.00,,,0.00,VWS V14.01,2013-07-21 04:28:00,
2013-07-21 00:29:00,75.8,61.0,29.77,SSE,166,0.0,2.7,60,0.00,,,0.00,VWS V14.01,2013-07-21 04:29:00,
2013-07-21 00:30:00,75.8,61.0,29.77,South,182,3.6,3.6,60,0.00,,,0.00,VWS V14.01,2013-07-21 04:30:00,
2013-07-21 00:31:00,75.8,61.4,29.77,SSE,168,0.0,3.6,61,0.00,,,0.00,VWS V14.01,2013-07-21 04:31:00,
2013-07-21 00:32:00,75.8,61.4,29.77,SSE,168,0.0,0.0,61,0.00,,,0.00,VWS V14.01,2013-07-21 04:32:00,
2013-07-21 00:33:00,75.8,61.4,29.77,SSE,168,0.0,0.0,61,0.00,,,0.00,VWS V14.01,2013-07-21 04:33:00,
2013-07-21 00:34:00,75.7,61.3,29.77,SSE,168,0.0,0.0,61,0.00,,,0.00,VWS V14.01,2013-07-21 04:34:00,
2013-07-21 00:35:00,75.7,61.3,29.77,SW,221,3.1,3.1,61,0.00,,,0.00,VWS V14.01,2013-07-21 04:35:00,
2013-07-21 00:36:00,75.7,61.3,29.77,SSW,206,0.0,4.0,61,0.00,,,0.00,VWS V14.01,2013-07-21 04:36:00,
2013-07-21 00:37:00,75.7,61.3,29.77,South,183,0.0,0.0,61,0.00,,,0.00,VWS V14.01,2013-07-21 04:37:00,
2013-07-21 00:38:00,75.7,61.3,29.77,SE,134,0.0,0.0,61,0.00,,,0.00,VWS V14.01,2013-07-21 04:38:00,
2013-07-21 00:39:00,75.7,61.7,29.77,South,178,2.2,3.1,62,0.00,,,0.00,VWS V14.01,2013-07-21 04:39:00,
2013-07-21 00:40:00,75.5,61.6,29.77,SW,232,2.2,2.7,62,0.00,,,0.00,VWS V14.01,2013-07-21 04:40:00,
2013-07-21 00:41:00,75.5,61.6,29.77,SSW,197,0.0,3.1,62,0.00,,,0.00,VWS V14.01,2013-07-21 04:41:00,
2013-07-21 00:42:00,75.5,61.6,29.77,SSE,167,0.0,0.0,62,0.00,,,0.00,VWS V14.01,2013-07-21 04:42:00,
2013-07-21 00:43:00,75.5,61.6,29.77,SSW,200,2.2,2.7,62,0.00,,,0.00,VWS V14.01,2013-07-21 04:43:00,
2013-07-21 00:44:00,75.5,61.6,29.77,South,182,0.0,2.7,62,0.00,,,0.00,VWS V14.01,2013-07-21 04:44:00,
2013-07-21 00:45:00,75.3,61.8,29.77,South,189,0.0,0.0,63,0.00,,,0.00,VWS V14.01,2013-07-21 04:45:00,
2013-07-21 00:46:00,75.3,61.8,29.77,SSE,161,0.0,0.0,63,0.00,,,0.00,VWS V14.01,2013-07-21 04:46:00,
2013-07-21 00:47:00,75.3,62.3,29.77,South,170,0.0,4.0,64,0.00,,,0.00,VWS V14.01,2013-07-21 04:47:00,
2013-07-21 00:48:00,75.3,62.3,29.77,SSW,192,3.6,3.6,64,0.00,,,0.00,VWS V14.01,2013-07-21 04:48:00,
2013-07-21 00:49:00,75.3,62.3,29.77,South,181,0.0,3.6,64,0.00,,,0.00,VWS V14.01,2013-07-21 04:49:00,
2013-07-21 00:50:00,75.1,62.1,29.77,South,172,0.0,0.0,64,0.00,,,0.00,VWS V14.01,2013-07-21 04:50:00,
2013-07-21 00:51:00,75.1,62.1,29.77,SSW,213,3.1,3.1,64,0.00,,,0.00,VWS V14.01,2013-07-21 04:51:00,
2013-07-21 00:52:00,75.1,62.1,29.77,SSW,194,2.7,3.1,64,0.00,,,0.00,VWS V14.01,2013-07-21 04:52:00,
2013-07-21 00:53:00,75.1,62.1,29.77,South,178,3.1,3.6,64,0.00,,,0.00,VWS V14.01,2013-07-21 04:53:00,
2013-07-21 00:54:00,75.1,62.1,29.77,South,187,3.1,3.1,64,0.00,,,0.00,VWS V14.01,2013-07-21 04:54:00,
2013-07-21 00:55:00,75.1,62.1,29.77,South,177,0.0,3.1,64,0.00,,,0.00,VWS V14.01,2013-07-21 04:55:00,
2013-07-21 00:56:00,74.9,62.0,29.77,SW,219,0.0,0.0,64,0.00,,,0.00,VWS V14.01,2013-07-21 04:56:00,
2013-07-21 00:57:00,74.9,62.0,29.77,South,175,0.0,0.0,64,0.00,,,0.00,VWS V14.01,2013-07-21 04:57:00,
2013-07-21 00:58:00,74.9,62.0,29.77,SSE,154,3.6,3.6,64,0.00,,,0.00,VWS V14.01,2013-07-21 04:58:00,
2013-07-21 00:59:00,74.9,62.0,29.77,SSW,199,0.0,4.9,64,0.00,,,0.00,VWS V14.01,2013-07-21 04:59:00,
2013-07-21 01:00:00,74.9,61.5,29.77,SW,228,0.0,4.9,63,0.00,,,0.00,VWS V14.01,2013-07-21 05:00:00,
2013-07-21 01:01:00,74.9,61.5,29.77,South,174,4.0,5.4,63,0.00,,,0.00,VWS V14.01,2013-07-21 05:01:00,
2013-07-21 01:02:00,74.9,61.5,29.77,SSE,168,4.0,5.8,63,0.00,,,0.00,VWS V14.01,2013-07-21 05:02:00,
2013-07-21 01:03:00,74.9,61.5,29.77,South,178,0.0,4.9,63,0.00,,,0.00,VWS V14.01,2013-07-21 05:03:00,
2013-07-21 01:04:00,74.9,61.5,29.77,SSE,152,4.9,4.9,63,0.00,,,0.00,VWS V14.01,2013-07-21 05:04:00,
2013-07-21 01:05:00,74.9,61.1,29.77,South,190,6.3,6.3,62,0.00,,,0.00,VWS V14.01,2013-07-21 05:05:00,
2013-07-21 01:06:00,74.9,61.1,29.77,South,174,5.8,5.8,62,0.00,,,0.00,VWS V14.01,2013-07-21 05:06:00,
2013-07-21 01:07:00,74.9,60.6,29.77,South,190,2.7,6.3,61,0.00,,,0.00,VWS V14.01,2013-07-21 05:07:00,
2013-07-21 01:08:00,74.9,60.6,29.77,South,183,0.0,2.7,61,0.00,,,0.00,VWS V14.01,2013-07-21 05:08:00,
2013-07-21 01:09:00,74.9,61.1,29.77,SSE,152,2.7,4.0,62,0.00,,,0.00,VWS V14.01,2013-07-21 05:09:00,
2013-07-21 01:10:00,74.9,61.1,29.77,SSW,194,0.0,5.4,62,0.00,,,0.00,VWS V14.01,2013-07-21 05:10:00,
2013-07-21 01:11:00,74.9,61.1,29.77,South,182,6.3,6.3,62,0.00,,,0.00,VWS V14.01,2013-07-21 05:11:00,
2013-07-21 01:12:00,74.9,61.1,29.77,SE,140,2.2,6.3,62,0.00,,,0.00,VWS V14.01,2013-07-21 05:12:00,
2013-07-21 01:13:00,74.9,61.1,29.77,SSW,206,0.0,2.2,62,0.00,,,0.00,VWS V14.01,2013-07-21 05:13:00,
2013-07-21 01:14:00,74.9,61.1,29.77,SSW,212,2.2,3.1,62,0.00,,,0.00,VWS V14.01,2013-07-21 05:14:00,
2013-07-21 01:15:00,74.9,61.1,29.77,SSE,163,0.0,3.6,62,0.00,,,0.00,VWS V14.01,2013-07-21 05:15:00,
2013-07-21 01:16:00,74.9,61.5,29.77,South,169,3.1,3.6,63,0.00,,,0.00,VWS V14.01,2013-07-21 05:16:00,
2013-07-21 01:17:00,74.9,61.5,29.77,SW,230,2.7,3.6,63,0.00,,,0.00,VWS V14.01,2013-07-21 05:17:00,
2013-07-21 01:18:00,74.8,61.3,29.77,WSW,244,0.0,3.1,63,0.00,,,0.00,VWS V14.01,2013-07-21 05:18:00,
2013-07-21 01:19:00,74.8,61.3,29.77,South,174,0.0,2.7,63,0.00,,,0.00,VWS V14.01,2013-07-21 05:19:00,
2013-07-21 01:20:00,74.8,61.3,29.77,SSE,150,0.0,0.0,63,0.00,,,0.00,VWS V14.01,2013-07-21 05:20:00,
2013-07-21 01:21:00,74.8,61.8,29.77,South,173,3.1,3.1,64,0.00,,,0.00,VWS V14.01,2013-07-21 05:21:00,
2013-07-21 01:22:00,74.8,61.8,29.77,South,179,0.0,3.1,64,0.00,,,0.00,VWS V14.01,2013-07-21 05:22:00,
2013-07-21 01:23:00,74.8,61.3,29.77,South,179,0.0,0.0,63,0.00,,,0.00,VWS V14.01,2013-07-21 05:23:00,
2013-07-21 01:24:00,74.8,61.8,29.77,South,176,3.1,3.1,64,0.00,,,0.00,VWS V14.01,2013-07-21 05:24:00,
2013-07-21 01:25:00,74.6,62.0,29.77,South,181,0.0,4.0,65,0.00,,,0.00,VWS V14.01,2013-07-21 05:25:00,
2013-07-21 01:26:00,74.6,62.0,29.77,South,178,0.0,0.0,65,0.00,,,0.00,VWS V14.01,2013-07-21 05:26:00,
2013-07-21 01:27:00,74.6,62.0,29.77,South,183,2.7,3.1,65,0.00,,,0.00,VWS V14.01,2013-07-21 05:27:00,
2013-07-21 01:28:00,74.6,62.0,29.77,SSE,157,3.1,3.1,65,0.00,,,0.00,VWS V14.01,2013-07-21 05:28:00,
2013-07-21 01:29:00,74.4,62.3,29.77,SSE,166,3.6,3.6,66,0.00,,,0.00,VWS V14.01,2013-07-21 05:29:00,
2013-07-21 01:30:00,74.4,62.3,29.77,SSW,201,0.0,3.6,66,0.00,,,0.00,VWS V14.01,2013-07-21 05:30:00,
2013-07-21 01:31:00,74.4,62.3,29.77,SSE,160,0.0,0.0,66,0.00,,,0.00,VWS V14.01,2013-07-21 05:31:00,
2013-07-21 01:32:00,74.2,62.6,29.77,South,191,3.6,5.4,67,0.00,,,0.00,VWS V14.01,2013-07-21 05:32:00,
2013-07-21 01:33:00,74.2,62.6,29.77,South,191,4.9,4.9,67,0.00,,,0.00,VWS V14.01,2013-07-21 05:33:00,
2013-07-21 01:34:00,74.2,62.6,29.77,South,176,0.0,4.9,67,0.00,,,0.00,VWS V14.01,2013-07-21 05:34:00,
2013-07-21 01:35:00,74.0,62.4,29.77,South,176,5.4,5.4,67,0.00,,,0.00,VWS V14.01,2013-07-21 05:35:00,
2013-07-21 01:36:00,74.0,62.8,29.77,SSE,163,2.2,2.2,68,0.00,,,0.00,VWS V14.01,2013-07-21 05:36:00,
2013-07-21 01:37:00,74.0,62.8,29.77,South,175,6.3,6.3,68,0.00,,,0.00,VWS V14.01,2013-07-21 05:37:00,
2013-07-21 01:38:00,74.0,62.8,29.77,SSE,167,0.0,6.3,68,0.00,,,0.00,VWS V14.01,2013-07-21 05:38:00,
2013-07-21 01:39:00,74.0,62.8,29.77,South,176,2.7,2.7,68,0.00,,,0.00,VWS V14.01,2013-07-21 05:39:00,
2013-07-21 01:40:00,74.0,62.8,29.77,South,183,0.0,4.0,68,0.00,,,0.00,VWS V14.01,2013-07-21 05:40:00,
2013-07-21 01:41:00,74.0,62.8,29.77,South,179,2.7,6.3,68,0.00,,,0.00,VWS V14.01,2013-07-21 05:41:00,
2013-07-21 01:42:00,74.0,62.8,29.77,South,182,5.4,6.3,68,0.00,,,0.00,VWS V14.01,2013-07-21 05:42:00,
2013-07-21 01:43:00,73.9,63.1,29.77,South,184,3.1,5.4,69,0.00,,,0.00,VWS V14.01,2013-07-21 05:43:00,
2013-07-21 01:44:00,73.9,62.7,29.77,SSW,201,0.0,3.1,68,0.00,,,0.00,VWS V14.01,2013-07-21 05:44:00,
2013-07-21 01:45:00,73.9,62.7,29.77,South,186,0.0,0.0,68,0.00,,,0.00,VWS V14.01,2013-07-21 05:45:00,
2013-07-21 01:46:00,73.9,62.7,29.77,South,177,3.6,3.6,68,0.00,,,0.00,VWS V14.01,2013-07-21 05:46:00,
2013-07-21 01:47:00,73.9,62.7,29.77,SE,146,5.8,7.6,68,0.00,,,0.00,VWS V14.01,2013-07-21 05:47:00,
2013-07-21 01:48:00,73.9,62.7,29.77,SW,225,0.0,7.6,68,0.00,,,0.00,VWS V14.01,2013-07-21 05:48:00,
2013-07-21 01:49:00,73.9,62.7,29.77,South,186,4.0,4.0,68,0.00,,,0.00,VWS V14.01,2013-07-21 05:49:00,
2013-07-21 01:50:00,73.9,62.7,29.77,SSW,195,4.0,4.0,68,0.00,,,0.00,VWS V14.01,2013-07-21 05:50:00,
2013-07-21 01:51:00,73.9,62.7,29.77,South,181,4.5,5.4,68,0.00,,,0.00,VWS V14.01,2013-07-21 05:51:00,
2013-07-21 01:52:00,73.9,62.7,29.77,SSE,152,0.0,5.4,68,0.00,,,0.00,VWS V14.01,2013-07-21 05:52:00,
2013-07-21 01:53:00,73.9,62.7,29.77,South,188,0.0,2.7,68,0.00,,,0.00,VWS V14.01,2013-07-21 05:53:00,
2013-07-21 01:54:00,73.9,62.7,29.77,South,181,3.6,5.4,68,0.00,,,0.00,VWS V14.01,2013-07-21 05:54:00,
2013-07-21 01:55:00,73.9,62.7,29.77,South,189,3.6,4.0,68,0.00,,,0.00,VWS V14.01,2013-07-21 05:55:00,
2013-07-21 01:56:00,73.9,62.7,29.77,SE,144,5.8,5.8,68,0.00,,,0.00,VWS V14.01,2013-07-21 05:56:00,
2013-07-21 01:57:00,73.9,62.7,29.77,South,189,5.8,7.2,68,0.00,,,0.00,VWS V14.01,2013-07-21 05:57:00,
2013-07-21 01:58:00,73.9,62.7,29.77,SW,222,5.8,5.8,68,0.00,,,0.00,VWS V14.01,2013-07-21 05:58:00,
2013-07-21 01:59:00,73.9,62.7,29.77,SW,226,0.0,5.8,68,0.00,,,0.00,VWS V14.01,2013-07-21 05:59:00,
2013-07-21 02:00:00,73.9,62.7,29.77,SW,220,0.0,3.1,68,0.00,,,0.00,VWS V14.01,2013-07-21 06:00:00,
2013-07-21 02:01:00,73.9,62.7,29.77,SE,132,0.0,0.0,68,0.00,,,0.00,VWS V14.01,2013-07-21 06:01:00,
2013-07-21 02:02:00,73.9,62.7,29.77,SW,235,3.1,3.1,68,0.00,,,0.00,VWS V14.01,2013-07-21 06:02:00,
2013-07-21 02:03:00,73.9,62.7,29.77,South,187,0.0,3.6,68,0.00,,,0.00,VWS V14.01,2013-07-21 06:03:00,
2013-07-21 02:04:00,73.9,62.7,29.77,South,191,2.2,2.7,68,0.00,,,0.00,VWS V14.01,2013-07-21 06:04:00,
2013-07-21 02:05:00,73.9,62.7,29.77,South,169,10.5,10.5,68,0.00,,,0.00,VWS V14.01,2013-07-21 06:05:00,
2013-07-21 02:06:00,73.9,62.2,29.77,SSW,205,0.0,3.6,67,0.00,,,0.00,VWS V14.01,2013-07-21 06:06:00,
2013-07-21 02:07:00,73.9,62.2,29.77,SSW,205,0.0,3.6,67,0.00,,,0.00,VWS V14.01,2013-07-21 06:07:00,
2013-07-21 02:08:00,73.9,62.2,29.77,South,181,3.6,8.1,67,0.00,,,0.00,VWS V14.01,2013-07-21 06:08:00,
2013-07-21 02:09:00,74.0,62.4,29.77,SSW,199,0.0,3.6,67,0.00,,,0.00,VWS V14.01,2013-07-21 06:09:00,
2013-07-21 02:10:00,74.0,62.4,29.77,South,183,0.0,0.0,67,0.00,,,0.00,VWS V14.01,2013-07-21 06:10:00,
2013-07-21 02:11:00,74.0,62.4,29.77,South,173,2.7,3.6,67,0.00,,,0.00,VWS V14.01,2013-07-21 06:11:00,
2013-07-21 02:12:00,74.0,62.4,29.77,South,176,0.0,3.6,67,0.00,,,0.00,VWS V14.01,2013-07-21 06:12:00,
2013-07-21 02:13:00,74.0,62.4,29.77,SW,230,6.3,6.3,67,0.00,,,0.00,VWS V14.01,2013-07-21 06:13:00,
2013-07-21 02:14:00,74.0,62.4,29.77,SSE,156,2.7,6.3,67,0.00,,,0.00,VWS V14.01,2013-07-21 06:14:00,
2013-07-21 02:15:00,74.0,62.4,29.77,South,185,0.0,4.0,67,0.00,,,0.00,VWS V14.01,2013-07-21 06:15:00,
2013-07-21 02:16:00,74.0,62.8,29.77,South,169,3.6,3.6,68,0.00,,,0.00,VWS V14.01,2013-07-21 06:16:00,
2013-07-21 02:17:00,74.0,62.8,29.77,SW,230,3.6,3.6,68,0.00,,,0.00,VWS V14.01,2013-07-21 06:17:00,
2013-07-21 02:18:00,74.0,62.8,29.77,SSE,166,0.0,4.9,68,0.00,,,0.00,VWS V14.01,2013-07-21 06:18:00,
2013-07-21 02:19:00,74.0,62.8,29.77,SSW,196,0.0,3.1,68,0.00,,,0.00,VWS V14.01,2013-07-21 06:19:00,
2013-07-21 02:20:00,74.0,62.4,29.77,SSE,158,0.0,6.3,67,0.00,,,0.00,VWS V14.01,2013-07-21 06:20:00,
2013-07-21 02:21:00,74.0,62.8,29.77,South,181,0.0,2.7,68,0.00,,,0.00,VWS V14.01,2013-07-21 06:21:00,
2013-07-21 02:22:00,74.0,62.8,29.77,South,190,8.3,8.3,68,0.00,,,0.00,VWS V14.01,2013-07-21 06:22:00,
2013-07-21 02:23:00,74.0,62.8,29.77,WNW,297,2.2,8.3,68,0.00,,,0.00,VWS V14.01,2013-07-21 06:23:00,
2013-07-21 02:24:00,74.0,62.8,29.77,South,187,2.7,3.1,68,0.00,,,0.00,VWS V14.01,2013-07-21 06:24:00,
2013-07-21 02:25:00,74.2,63.0,29.77,South,187,0.0,4.0,68,0.00,,,0.00,VWS V14.01,2013-07-21 06:25:00,
2013-07-21 02:26:00,74.2,63.0,29.77,SSW,209,0.0,0.0,68,0.00,,,0.00,VWS V14.01,2013-07-21 06:26:00,
2013-07-21 02:27:00,74.2,63.0,29.77,SSW,213,0.0,0.0,68,0.00,,,0.00,VWS V14.01,2013-07-21 06:27:00,
2013-07-21 02:28:00,74.2,63.0,29.77,WSW,245,3.1,3.1,68,0.00,,,0.00,VWS V14.01,2013-07-21 06:28:00,
2013-07-21 02:29:00,74.2,63.0,29.77,SW,227,0.0,3.1,68,0.00,,,0.00,VWS V14.01,2013-07-21 06:29:00,
2013-07-21 02:30:00,74.2,63.0,29.77,SSE,155,0.0,5.8,68,0.00,,,0.00,VWS V14.01,2013-07-21 06:30:00,
2013-07-21 02:31:00,74.2,63.0,29.77,South,187,0.0,5.8,68,0.00,,,0.00,VWS V14.01,2013-07-21 06:31:00,
2013-07-21 02:32:00,74.2,63.0,29.77,South,191,0.0,0.0,68,0.00,,,0.00,VWS V14.01,2013-07-21 06:32:00,
2013-07-21 02:33:00,74.2,63.0,29.77,SSE,152,0.0,2.7,68,0.00,,,0.00,VWS V14.01,2013-07-21 06:33:00,
2013-07-21 02:34:00,74.2,63.0,29.77,SE,131,0.0,0.0,68,0.00,,,0.00,VWS V14.01,2013-07-21 06:34:00,
2013-07-21 02:35:00,74.2,63.0,29.77,South,172,0.0,2.7,68,0.00,,,0.00,VWS V14.01,2013-07-21 06:35:00,
2013-07-21 02:36:00,74.2,63.0,29.77,South,176,0.0,3.6,68,0.00,,,0.00,VWS V14.01,2013-07-21 06:36:00,
2013-07-21 02:37:00,74.2,63.0,29.77,SE,145,3.1,4.0,68,0.00,,,0.00,VWS V14.01,2013-07-21 06:37:00,
2013-07-21 02:38:00,74.2,63.0,29.77,SSW,197,0.0,2.7,68,0.00,,,0.00,VWS V14.01,2013-07-21 06:38:00,
2013-07-21 02:39:00,74.2,63.0,29.77,SSW,197,0.0,0.0,68,0.00,,,0.00,VWS V14.01,2013-07-21 06:39:00,
2013-07-21 02:40:00,74.2,63.0,29.77,South,177,3.6,3.6,68,0.00,,,0.00,VWS V14.01,2013-07-21 06:40:00,
2013-07-21 02:41:00,74.2,63.0,29.77,South,173,0.0,3.6,68,0.00,,,0.00,VWS V14.01,2013-07-21 06:41:00,
2013-07-21 02:42:00,74.2,63.0,29.77,SSW,210,3.6,3.6,68,0.00,,,0.00,VWS V14.01,2013-07-21 06:42:00,
2013-07-21 02:43:00,74.2,63.0,29.77,SSE,167,0.0,5.8,68,0.00,,,0.00,VWS V14.01,2013-07-21 06:43:00,
2013-07-21 02:44:00,74.2,63.0,29.77,SSW,195,0.0,0.0,68,0.00,,,0.00,VWS V14.01,2013-07-21 06:44:00,
2013-07-21 02:45:00,74.2,63.0,29.77,SSE,155,0.0,2.2,68,0.00,,,0.00,VWS V14.01,2013-07-21 06:45:00,
2013-07-21 02:46:00,74.2,63.4,29.77,SW,233,3.6,3.6,69,0.00,,,0.00,VWS V14.01,2013-07-21 06:46:00,
2013-07-21 02:47:00,74.2,63.4,29.77,WSW,252,3.1,3.6,69,0.00,,,0.00,VWS V14.01,2013-07-21 06:47:00,
2013-07-21 02:48:00,74.2,63.4,29.77,SSW,202,0.0,4.0,69,0.00,,,0.00,VWS V14.01,2013-07-21 06:48:00,
2013-07-21 02:49:00,74.2,63.4,29.77,SW,234,0.0,0.0,69,0.00,,,0.00,VWS V14.01,2013-07-21 06:49:00,
2013-07-21 02:50:00,74.2,63.4,29.77,SW,234,0.0,0.0,69,0.00,,,0.00,VWS V14.01,2013-07-21 06:50:00,
2013-07-21 02:51:00,74.2,63.4,29.77,SW,234,0.0,0.0,69,0.00,,,0.00,VWS V14.01,2013-07-21 06:51:00,
2013-07-21 02:52:00,74.2,63.4,29.77,SSW,195,0.0,3.6,69,0.00,,,0.00,VWS V14.01,2013-07-21 06:52:00,
2013-07-21 02:53:00,74.2,63.4,29.77,SSW,198,0.0,0.0,69,0.00,,,0.00,VWS V14.01,2013-07-21 06:53:00,
2013-07-21 02:54:00,74.2,63.4,29.77,West,260,0.0,0.0,69,0.00,,,0.00,VWS V14.01,2013-07-21 06:54:00,
2013-07-21 02:55:00,74.2,63.4,29.77,SW,223,0.0,0.0,69,0.00,,,0.00,VWS V14.01,2013-07-21 06:55:00,
2013-07-21 02:56:00,74.2,63.4,29.77,SW,225,0.0,0.0,69,0.00,,,0.00,VWS V14.01,2013-07-21 06:56:00,
2013-07-21 02:57:00,74.2,63.4,29.77,SW,226,0.0,0.0,69,0.00,,,0.00,VWS V14.01,2013-07-21 06:57:00,
2013-07-21 02:58:00,74.2,63.4,29.77,WSW,254,0.0,2.2,69,0.00,,,0.00,VWS V14.01,2013-07-21 06:58:00,
2013-07-21 02:59:00,74.2,63.4,29.77,ESE,120,0.0,0.0,69,0.00,,,0.00,VWS V14.01,2013-07-21 06:59:00,
2013-07-21 03:00:00,74.0,63.2,29.77,SW,227,0.0,3.1,69,0.00,,,0.00,VWS V14.01,2013-07-21 07:00:00,
2013-07-21 03:01:00,74.0,63.2,29.77,SW,227,0.0,0.0,69,0.00,,,0.00,VWS V14.01,2013-07-21 07:01:00,
2013-07-21 03:02:00,74.0,63.2,29.77,SW,228,0.0,0.0,69,0.00,,,0.00,VWS V14.01,2013-07-21 07:02:00,
2013-07-21 03:03:00,74.0,63.2,29.77,SW,228,0.0,0.0,69,0.00,,,0.00,VWS V14.01,2013-07-21 07:03:00,
2013-07-21 03:04:00,74.0,63.2,29.77,SW,228,0.0,0.0,69,0.00,,,0.00,VWS V14.01,2013-07-21 07:04:00,
2013-07-21 03:05:00,74.0,63.2,29.77,SSW,196,0.0,4.0,69,0.00,,,0.00,VWS V14.01,2013-07-21 07:05:00,
2013-07-21 03:06:00,74.0,63.2,29.77,SSW,196,0.0,0.0,69,0.00,,,0.00,VWS V14.01,2013-07-21 07:06:00,
2013-07-21 03:07:00,74.0,63.2,29.77,SSW,196,0.0,0.0,69,0.00,,,0.00,VWS V14.01,2013-07-21 07:07:00,
2013-07-21 03:08:00,74.0,63.2,29.77,SSW,196,0.0,0.0,69,0.00,,,0.00,VWS V14.01,2013-07-21 07:08:00,
2013-07-21 03:09:00,74.0,63.2,29.77,SSW,196,0.0,0.0,69,0.00,,,0.00,VWS V14.01,2013-07-21 07:09:00,
2013-07-21 03:10:00,74.0,63.2,29.77,SSW,196,0.0,0.0,69,0.00,,,0.00,VWS V14.01,2013-07-21 07:10:00,
2013-07-21 03:11:00,74.0,63.2,29.77,SSW,196,0.0,0.0,69,0.00,,,0.00,VWS V14.01,2013-07-21 07:11:00,
2013-07-21 03:12:00,74.0,63.2,29.77,SSW,196,0.0,0.0,69,0.00,,,0.00,VWS V14.01,2013-07-21 07:12:00,
2013-07-21 03:13:00,74.0,63.2,29.77,SSW,211,0.0,0.0,69,0.00,,,0.00,VWS V14.01,2013-07-21 07:13:00,
2013-07-21 03:14:00,74.0,63.2,29.77,SSW,211,0.0,0.0,69,0.00,,,0.00,VWS V14.01,2013-07-21 07:14:00,
2013-07-21 03:15:00,74.0,63.2,29.77,SW,222,0.0,0.0,69,0.00,,,0.00,VWS V14.01,2013-07-21 07:15:00,
2013-07-21 03:16:00,74.0,63.2,29.77,SW,227,0.0,0.0,69,0.00,,,0.00,VWS V14.01,2013-07-21 07:16:00,
2013-07-21 03:17:00,74.0,63.6,29.77,SW,227,0.0,0.0,70,0.00,,,0.00,VWS V14.01,2013-07-21 07:17:00,
2013-07-21 03:18:00,74.0,63.6,29.77,SW,227,0.0,0.0,70,0.00,,,0.00,VWS V14.01,2013-07-21 07:18:00,
2013-07-21 03:19:00,74.0,63.2,29.74,SW,227,0.0,0.0,69,0.00,,,0.00,VWS V14.01,2013-07-21 07:19:00,
2013-07-21 03:20:00,74.0,63.2,29.74,SW,227,0.0,0.0,69,0.00,,,0.00,VWS V14.01,2013-07-21 07:20:00,
2013-07-21 03:21:00,74.0,63.2,29.74,SW,227,0.0,0.0,69,0.00,,,0.00,VWS V14.01,2013-07-21 07:21:00,
2013-07-21 03:22:00,74.0,63.2,29.74,SW,227,0.0,0.0,69,0.00,,,0.00,VWS V14.01,2013-07-21 07:22:00,
2013-07-21 03:23:00,74.0,63.6,29.74,SW,227,0.0,0.0,70,0.00,,,0.00,VWS V14.01,2013-07-21 07:23:00,
2013-07-21 03:24:00,74.0,63.6,29.74,SW,227,0.0,0.0,70,0.00,,,0.00,VWS V14.01,2013-07-21 07:24:00,
2013-07-21 03:25:00,74.0,63.6,29.74,SW,227,0.0,0.0,70,0.00,,,0.00,VWS V14.01,2013-07-21 07:25:00,
2013-07-21 03:26:00,74.0,63.6,29.74,SW,227,0.0,0.0,70,0.00,,,0.00,VWS V14.01,2013-07-21 07:26:00,
2013-07-21 03:27:00,74.0,63.6,29.74,SW,227,0.0,0.0,70,0.00,,,0.00,VWS V14.01,2013-07-21 07:27:00,
2013-07-21 03:28:00,74.0,63.6,29.74,SW,227,0.0,0.0,70,0.00,,,0.00,VWS V14.01,2013-07-21 07:28:00,
2013-07-21 03:29:00,74.0,63.6,29.74,SW,227,0.0,0.0,70,0.00,,,0.00,VWS V14.01,2013-07-21 07:29:00,
2013-07-21 03:30:00,74.0,63.6,29.74,SW,227,0.0,0.0,70,0.00,,,0.00,VWS V14.01,2013-07-21 07:30:00,
2013-07-21 03:31:00,74.0,63.6,29.74,SW,227,0.0,0.0,70,0.00,,,0.00,VWS V14.01,2013-07-21 07:31:00,
2013-07-21 03:32:00,74.0,63.6,29.74,SW,227,0.0,0.0,70,0.00,,,0.00,VWS V14.01,2013-07-21 07:32:00,
2013-07-21 03:33:00,74.0,63.6,29.74,SW,227,0.0,0.0,70,0.00,,,0.00,VWS V14.01,2013-07-21 07:33:00,
2013-07-21 03:34:00,74.0,63.6,29.77,SW,227,0.0,0.0,70,0.00,,,0.00,VWS V14.01,2013-07-21 07:34:00,
2013-07-21 03:35:00,74.0,63.6,29.77,SW,227,0.0,0.0,70,0.00,,,0.00,VWS V14.01,2013-07-21 07:35:00,
2013-07-21 03:36:00,74.0,63.6,29.77,SW,227,0.0,0.0,70,0.00,,,0.00,VWS V14.01,2013-07-21 07:36:00,
2013-07-21 03:37:00,74.0,63.6,29.77,SW,227,0.0,0.0,70,0.00,,,0.00,VWS V14.01,2013-07-21 07:37:00,
2013-07-21 03:38:00,74.0,63.6,29.77,SW,227,0.0,0.0,70,0.00,,,0.00,VWS V14.01,2013-07-21 07:38:00,
2013-07-21 03:39:00,73.9,63.5,29.77,SW,227,0.0,0.0,70,0.00,,,0.00,VWS V14.01,2013-07-21 07:39:00,
2013-07-21 03:40:00,73.9,63.5,29.77,SW,227,0.0,0.0,70,0.00,,,0.00,VWS V14.01,2013-07-21 07:40:00,
2013-07-21 03:41:00,73.9,63.9,29.77,SW,227,0.0,0.0,71,0.00,,,0.00,VWS V14.01,2013-07-21 07:41:00,
2013-07-21 03:42:00,73.9,63.9,29.77,SW,227,0.0,0.0,71,0.00,,,0.00,VWS V14.01,2013-07-21 07:42:00,
2013-07-21 03:43:00,73.9,63.9,29.77,SW,227,0.0,0.0,71,0.00,,,0.00,VWS V14.01,2013-07-21 07:43:00,
2013-07-21 03:44:00,73.9,63.9,29.77,SW,227,0.0,0.0,71,0.00,,,0.00,VWS V14.01,2013-07-21 07:44:00,
2013-07-21 03:45:00,73.9,63.9,29.77,SW,227,0.0,0.0,71,0.00,,,0.00,VWS V14.01,2013-07-21 07:45:00,
2013-07-21 03:46:00,73.9,63.9,29.77,SW,227,0.0,0.0,71,0.00,,,0.00,VWS V14.01,2013-07-21 07:46:00,
2013-07-21 03:47:00,73.7,64.1,29.77,SW,227,0.0,0.0,72,0.00,,,0.00,VWS V14.01,2013-07-21 07:47:00,
2013-07-21 03:48:00,73.7,64.1,29.77,SW,227,0.0,0.0,72,0.00,,,0.00,VWS V14.01,2013-07-21 07:48:00,
2013-07-21 03:49:00,73.7,64.1,29.77,SW,227,0.0,0.0,72,0.00,,,0.00,VWS V14.01,2013-07-21 07:49:00,
2013-07-21 03:50:00,73.7,64.1,29.77,SW,227,0.0,0.0,72,0.00,,,0.00,VWS V14.01,2013-07-21 07:50:00,
2013-07-21 03:51:00,73.5,63.9,29.77,SW,227,0.0,0.0,72,0.00,,,0.00,VWS V14.01,2013-07-21 07:51:00,
2013-07-21 03:52:00,73.5,63.9,29.77,SW,227,0.0,0.0,72,0.00,,,0.00,VWS V14.01,2013-07-21 07:52:00,
2013-07-21 03:53:00,73.5,63.9,29.77,SW,227,0.0,0.0,72,0.00,,,0.00,VWS V14.01,2013-07-21 07:53:00,
2013-07-21 03:54:00,73.5,63.9,29.77,SW,227,0.0,0.0,72,0.00,,,0.00,VWS V14.01,2013-07-21 07:54:00,
2013-07-21 03:55:00,73.5,63.9,29.77,SW,227,0.0,0.0,72,0.00,,,0.00,VWS V14.01,2013-07-21 07:55:00,
2013-07-21 03:56:00,73.5,63.9,29.77,SW,227,0.0,0.0,72,0.00,,,0.00,VWS V14.01,2013-07-21 07:56:00,
2013-07-21 03:57:00,73.3,63.8,29.77,SW,227,0.0,0.0,72,0.00,,,0.00,VWS V14.01,2013-07-21 07:57:00,
2013-07-21 03:58:00,73.3,63.8,29.77,SW,227,0.0,0.0,72,0.00,,,0.00,VWS V14.01,2013-07-21 07:58:00,
2013-07-21 03:59:00,73.3,63.8,29.77,SW,227,0.0,0.0,72,0.00,,,0.00,VWS V14.01,2013-07-21 07:59:00,
2013-07-21 04:00:00,73.3,63.8,29.77,SW,227,0.0,0.0,72,0.00,,,0.00,VWS V14.01,2013-07-21 08:00:00,
2013-07-21 04:01:00,73.3,64.2,29.77,SW,227,0.0,0.0,73,0.00,,,0.00,VWS V14.01,2013-07-21 08:01:00,
2013-07-21 04:02:00,73.3,64.2,29.77,SW,227,0.0,0.0,73,0.00,,,0.00,VWS V14.01,2013-07-21 08:02:00,
2013-07-21 04:03:00,73.3,64.2,29.77,SW,227,0.0,0.0,73,0.00,,,0.00,VWS V14.01,2013-07-21 08:03:00,
2013-07-21 04:04:00,73.3,64.2,29.77,SW,227,0.0,0.0,73,0.00,,,0.00,VWS V14.01,2013-07-21 08:04:00,
2013-07-21 04:05:00,73.3,64.2,29.77,SW,227,0.0,0.0,73,0.00,,,0.00,VWS V14.01,2013-07-21 08:05:00,
2013-07-21 04:06:00,73.1,64.0,29.77,SW,227,0.0,0.0,73,0.00,,,0.00,VWS V14.01,2013-07-21 08:06:00,
2013-07-21 04:07:00,73.1,64.0,29.77,SW,227,0.0,0.0,73,0.00,,,0.00,VWS V14.01,2013-07-21 08:07:00,
2013-07-21 04:08:00,73.1,64.4,29.77,SW,227,0.0,0.0,74,0.00,,,0.00,VWS V14.01,2013-07-21 08:08:00,
2013-07-21 04:09:00,73.1,64.4,29.77,SW,227,0.0,0.0,74,0.00,,,0.00,VWS V14.01,2013-07-21 08:09:00,
2013-07-21 04:10:00,73.1,64.4,29.77,SW,227,0.0,0.0,74,0.00,,,0.00,VWS V14.01,2013-07-21 08:10:00,
2013-07-21 04:11:00,73.1,64.4,29.77,SW,227,0.0,0.0,74,0.00,,,0.00,VWS V14.01,2013-07-21 08:11:00,
2013-07-21 04:12:00,73.0,64.2,29.77,SW,227,0.0,0.0,74,0.00,,,0.00,VWS V14.01,2013-07-21 08:12:00,
2013-07-21 04:13:00,73.0,64.2,29.77,SW,227,0.0,0.0,74,0.00,,,0.00,VWS V14.01,2013-07-21 08:13:00,
2013-07-21 04:14:00,73.0,64.2,29.77,SW,227,0.0,0.0,74,0.00,,,0.00,VWS V14.01,2013-07-21 08:14:00,
2013-07-21 04:15:00,73.0,64.2,29.77,SW,227,0.0,0.0,74,0.00,,,0.00,VWS V14.01,2013-07-21 08:15:00,
2013-07-21 04:16:00,73.0,64.2,29.77,SW,227,0.0,0.0,74,0.00,,,0.00,VWS V14.01,2013-07-21 08:16:00,
2013-07-21 04:17:00,73.0,64.2,29.77,SW,227,0.0,0.0,74,0.00,,,0.00,VWS V14.01,2013-07-21 08:17:00,
2013-07-21 04:18:00,73.0,64.2,29.77,SW,227,0.0,0.0,74,0.00,,,0.00,VWS V14.01,2013-07-21 08:18:00,
2013-07-21 04:19:00,73.0,64.6,29.77,SW,227,0.0,0.0,75,0.00,,,0.00,VWS V14.01,2013-07-21 08:19:00,
2013-07-21 04:20:00,73.0,64.6,29.77,SW,227,0.0,0.0,75,0.00,,,0.00,VWS V14.01,2013-07-21 08:20:00,
2013-07-21 04:21:00,73.0,64.6,29.77,SW,227,0.0,0.0,75,0.00,,,0.00,VWS V14.01,2013-07-21 08:21:00,
2013-07-21 04:22:00,72.8,64.4,29.77,SW,227,0.0,0.0,75,0.00,,,0.00,VWS V14.01,2013-07-21 08:22:00,
2013-07-21 04:23:00,72.8,64.4,29.77,SW,227,0.0,0.0,75,0.00,,,0.00,VWS V14.01,2013-07-21 08:23:00,
2013-07-21 04:24:00,72.8,64.4,29.77,SW,227,0.0,0.0,75,0.00,,,0.00,VWS V14.01,2013-07-21 08:24:00,
2013-07-21 04:25:00,72.8,64.4,29.77,SW,227,0.0,0.0,75,0.00,,,0.00,VWS V14.01,2013-07-21 08:25:00,
2013-07-21 04:26:00,72.8,64.4,29.77,SW,227,0.0,0.0,75,0.00,,,0.00,VWS V14.01,2013-07-21 08:26:00,
2013-07-21 04:27:00,72.8,64.4,29.77,SW,227,0.0,0.0,75,0.00,,,0.00,VWS V14.01,2013-07-21 08:27:00,
2013-07-21 04:28:00,72.8,64.4,29.77,SW,227,0.0,0.0,75,0.00,,,0.00,VWS V14.01,2013-07-21 08:28:00,
2013-07-21 04:29:00,72.8,64.4,29.77,SW,227,0.0,0.0,75,0.00,,,0.00,VWS V14.01,2013-07-21 08:29:00,
2013-07-21 04:30:00,72.8,64.4,29.77,SW,227,0.0,0.0,75,0.00,,,0.00,VWS V14.01,2013-07-21 08:30:00,
2013-07-21 04:31:00,72.8,64.8,29.77,SW,227,0.0,0.0,76,0.00,,,0.00,VWS V14.01,2013-07-21 08:31:00,
2013-07-21 04:32:00,72.8,64.8,29.77,SW,227,0.0,0.0,76,0.00,,,0.00,VWS V14.01,2013-07-21 08:32:00,
2013-07-21 04:33:00,72.6,64.6,29.77,SW,227,0.0,0.0,76,0.00,,,0.00,VWS V14.01,2013-07-21 08:33:00,
2013-07-21 04:34:00,72.6,64.6,29.77,SW,227,0.0,0.0,76,0.00,,,0.00,VWS V14.01,2013-07-21 08:34:00,
2013-07-21 04:35:00,72.6,64.6,29.77,SW,227,0.0,0.0,76,0.00,,,0.00,VWS V14.01,2013-07-21 08:35:00,
2013-07-21 04:36:00,72.6,64.6,29.77,South,186,0.0,0.0,76,0.00,,,0.00,VWS V14.01,2013-07-21 08:36:00,
2013-07-21 04:37:00,72.6,65.0,29.77,South,186,0.0,0.0,77,0.00,,,0.00,VWS V14.01,2013-07-21 08:37:00,
2013-07-21 04:38:00,72.6,65.0,29.77,South,186,0.0,0.0,77,0.00,,,0.00,VWS V14.01,2013-07-21 08:38:00,
2013-07-21 04:39:00,72.6,65.0,29.77,SSW,199,0.0,0.0,77,0.00,,,0.00,VWS V14.01,2013-07-21 08:39:00,
2013-07-21 04:40:00,72.6,65.0,29.77,SSW,199,0.0,0.0,77,0.00,,,0.00,VWS V14.01,2013-07-21 08:40:00,
2013-07-21 04:41:00,72.6,65.0,29.77,SSW,199,0.0,0.0,77,0.00,,,0.00,VWS V14.01,2013-07-21 08:41:00,
2013-07-21 04:42:00,72.6,65.0,29.77,SSW,199,0.0,0.0,77,0.00,,,0.00,VWS V14.01,2013-07-21 08:42:00,
2013-07-21 04:43:00,72.6,65.3,29.77,SSW,199,0.0,0.0,78,0.00,,,0.00,VWS V14.01,2013-07-21 08:43:00,
2013-07-21 04:44:00,72.6,65.3,29.77,SSW,199,0.0,0.0,78,0.00,,,0.00,VWS V14.01,2013-07-21 08:44:00,
2013-07-21 04:45:00,72.6,65.3,29.77,SSW,199,0.0,0.0,78,0.00,,,0.00,VWS V14.01,2013-07-21 08:45:00,
2013-07-21 04:46:00,72.4,65.2,29.77,SSW,199,0.0,0.0,78,0.00,,,0.00,VWS V14.01,2013-07-21 08:46:00,
2013-07-21 04:47:00,72.4,65.2,29.77,SE,141,0.0,0.0,78,0.00,,,0.00,VWS V14.01,2013-07-21 08:47:00,
2013-07-21 04:48:00,72.4,65.2,29.77,SE,141,0.0,0.0,78,0.00,,,0.00,VWS V14.01,2013-07-21 08:48:00,
2013-07-21 04:49:00,72.4,65.2,29.77,SE,141,0.0,0.0,78,0.00,,,0.00,VWS V14.01,2013-07-21 08:49:00,
2013-07-21 04:50:00,72.4,65.2,29.77,SE,141,0.0,0.0,78,0.00,,,0.00,VWS V14.01,2013-07-21 08:50:00,
2013-07-21 04:51:00,72.4,65.2,29.77,SE,141,0.0,0.0,78,0.00,,,0.00,VWS V14.01,2013-07-21 08:51:00,
2013-07-21 04:52:00,72.4,65.2,29.77,SE,141,0.0,0.0,78,0.00,,,0.00,VWS V14.01,2013-07-21 08:52:00,
2013-07-21 04:53:00,72.4,65.2,29.77,SE,141,0.0,0.0,78,0.00,,,0.00,VWS V14.01,2013-07-21 08:53:00,
2013-07-21 04:54:00,72.4,65.2,29.77,SE,141,0.0,0.0,78,0.00,,,0.00,VWS V14.01,2013-07-21 08:54:00,
2013-07-21 04:55:00,72.4,65.2,29.77,SE,141,0.0,0.0,78,0.00,,,0.00,VWS V14.01,2013-07-21 08:55:00,
2013-07-21 04:56:00,72.4,65.2,29.77,SE,141,0.0,0.0,78,0.00,,,0.00,VWS V14.01,2013-07-21 08:56:00,
2013-07-21 04:57:00,72.4,65.2,29.77,SE,141,0.0,0.0,78,0.00,,,0.00,VWS V14.01,2013-07-21 08:57:00,
2013-07-21 04:58:00,72.4,65.2,29.77,SE,141,0.0,0.0,78,0.00,,,0.00,VWS V14.01,2013-07-21 08:58:00,
2013-07-21 04:59:00,72.4,65.2,29.77,SE,141,0.0,0.0,78,0.00,,,0.00,VWS V14.01,2013-07-21 08:59:00,
2013-07-21 05:00:00,72.4,65.2,29.77,SE,141,0.0,0.0,78,0.00,,,0.00,VWS V14.01,2013-07-21 09:00:00,
2013-07-21 05:01:00,72.4,65.2,29.77,SE,141,0.0,0.0,78,0.00,,,0.00,VWS V14.01,2013-07-21 09:01:00,
2013-07-21 05:02:00,72.4,65.6,29.77,SE,141,0.0,0.0,79,0.00,,,0.00,VWS V14.01,2013-07-21 09:02:00,
2013-07-21 05:03:00,72.4,65.6,29.77,SE,141,0.0,0.0,79,0.00,,,0.00,VWS V14.01,2013-07-21 09:03:00,
2013-07-21 05:04:00,72.2,65.4,29.77,SE,141,0.0,0.0,79,0.00,,,0.00,VWS V14.01,2013-07-21 09:04:00,
2013-07-21 05:05:00,72.2,65.4,29.77,SE,141,0.0,0.0,79,0.00,,,0.00,VWS V14.01,2013-07-21 09:05:00,
2013-07-21 05:06:00,72.2,65.4,29.77,SE,141,0.0,0.0,79,0.00,,,0.00,VWS V14.01,2013-07-21 09:06:00,
2013-07-21 05:07:00,72.2,65.4,29.77,SE,141,0.0,0.0,79,0.00,,,0.00,VWS V14.01,2013-07-21 09:07:00,
2013-07-21 05:08:00,72.2,65.4,29.77,SE,141,0.0,0.0,79,0.00,,,0.00,VWS V14.01,2013-07-21 09:08:00,
2013-07-21 05:09:00,72.2,65.4,29.77,SE,141,0.0,0.0,79,0.00,,,0.00,VWS V14.01,2013-07-21 09:09:00,
2013-07-21 05:10:00,72.2,65.4,29.77,SSW,203,0.0,0.0,79,0.00,,,0.00,VWS V14.01,2013-07-21 09:10:00,
2013-07-21 05:11:00,72.2,65.4,29.77,SSW,203,0.0,0.0,79,0.00,,,0.00,VWS V14.01,2013-07-21 09:11:00,
2013-07-21 05:12:00,72.2,65.4,29.77,SSW,203,0.0,0.0,79,0.00,,,0.00,VWS V14.01,2013-07-21 09:12:00,
2013-07-21 05:13:00,72.2,65.4,29.77,SSW,203,0.0,0.0,79,0.00,,,0.00,VWS V14.01,2013-07-21 09:13:00,
2013-07-21 05:14:00,72.2,65.4,29.77,SSW,203,0.0,0.0,79,0.00,,,0.00,VWS V14.01,2013-07-21 09:14:00,
2013-07-21 05:15:00,72.1,65.2,29.77,SSW,203,0.0,0.0,79,0.00,,,0.00,VWS V14.01,2013-07-21 09:15:00,
2013-07-21 05:16:00,72.1,65.2,29.77,SSW,203,0.0,0.0,79,0.00,,,0.00,VWS V14.01,2013-07-21 09:16:00,
2013-07-21 05:17:00,72.1,65.2,29.77,SSW,203,0.0,0.0,79,0.00,,,0.00,VWS V14.01,2013-07-21 09:17:00,
2013-07-21 05:18:00,72.1,65.2,29.77,SSW,203,0.0,0.0,79,0.00,,,0.00,VWS V14.01,2013-07-21 09:18:00,
2013-07-21 05:19:00,72.1,65.6,29.77,SSW,203,0.0,0.0,80,0.00,,,0.00,VWS V14.01,2013-07-21 09:19:00,
2013-07-21 05:20:00,72.1,65.2,29.77,SSW,203,0.0,0.0,79,0.00,,,0.00,VWS V14.01,2013-07-21 09:20:00,
2013-07-21 05:21:00,72.1,65.2,29.77,SSW,203,0.0,0.0,79,0.00,,,0.00,VWS V14.01,2013-07-21 09:21:00,
2013-07-21 05:22:00,72.1,65.6,29.77,SSW,203,0.0,0.0,80,0.00,,,0.00,VWS V14.01,2013-07-21 09:22:00,
2013-07-21 05:23:00,72.1,65.6,29.77,SSW,203,0.0,0.0,80,0.00,,,0.00,VWS V14.01,2013-07-21 09:23:00,
2013-07-21 05:24:00,72.1,65.6,29.77,SSW,203,0.0,0.0,80,0.00,,,0.00,VWS V14.01,2013-07-21 09:24:00,
2013-07-21 05:25:00,72.1,65.6,29.77,SSW,203,0.0,0.0,80,0.00,,,0.00,VWS V14.01,2013-07-21 09:25:00,
2013-07-21 05:26:00,71.9,65.4,29.77,SSW,203,0.0,0.0,80,0.00,,,0.00,VWS V14.01,2013-07-21 09:26:00,
2013-07-21 05:27:00,71.9,65.4,29.77,SSW,203,0.0,0.0,80,0.00,,,0.00,VWS V14.01,2013-07-21 09:27:00,
2013-07-21 05:28:00,71.9,65.4,29.77,SSW,203,0.0,0.0,80,0.00,,,0.00,VWS V14.01,2013-07-21 09:28:00,
2013-07-21 05:29:00,71.9,65.4,29.77,SSW,203,0.0,0.0,80,0.00,,,0.00,VWS V14.01,2013-07-21 09:29:00,
2013-07-21 05:30:00,71.9,65.4,29.77,SSW,203,0.0,0.0,80,0.00,,,0.00,VWS V14.01,2013-07-21 09:30:00,
2013-07-21 05:31:00,71.9,65.4,29.77,SSW,203,0.0,0.0,80,0.00,,,0.00,VWS V14.01,2013-07-21 09:31:00,
2013-07-21 05:32:00,71.9,65.4,29.77,SSW,203,0.0,0.0,80,0.00,,,0.00,VWS V14.01,2013-07-21 09:32:00,
2013-07-21 05:33:00,71.9,65.4,29.77,SSW,203,0.0,0.0,80,0.00,,,0.00,VWS V14.01,2013-07-21 09:33:00,
2013-07-21 05:34:00,71.9,65.4,29.77,SSW,203,0.0,0.0,80,0.00,,,0.00,VWS V14.01,2013-07-21 09:34:00,
2013-07-21 05:35:00,71.9,65.4,29.77,SSW,203,0.0,0.0,80,0.00,,,0.00,VWS V14.01,2013-07-21 09:35:00,
2013-07-21 05:36:00,71.9,65.4,29.77,SSW,203,0.0,0.0,80,0.00,,,0.00,VWS V14.01,2013-07-21 09:36:00,
2013-07-21 05:37:00,71.9,65.4,29.77,SSW,203,0.0,0.0,80,0.00,,,0.00,VWS V14.01,2013-07-21 09:37:00,
2013-07-21 05:38:00,71.7,65.2,29.77,SSW,203,0.0,0.0,80,0.00,,,0.00,VWS V14.01,2013-07-21 09:38:00,
2013-07-21 05:39:00,71.7,65.2,29.77,SSW,203,0.0,0.0,80,0.00,,,0.00,VWS V14.01,2013-07-21 09:39:00,
2013-07-21 05:40:00,71.7,65.2,29.77,SSW,203,0.0,0.0,80,0.00,,,0.00,VWS V14.01,2013-07-21 09:40:00,
2013-07-21 05:41:00,71.7,65.2,29.77,SSW,203,0.0,0.0,80,0.00,,,0.00,VWS V14.01,2013-07-21 09:41:00,
2013-07-21 05:42:00,71.7,65.2,29.77,SSW,203,0.0,0.0,80,0.00,,,0.00,VWS V14.01,2013-07-21 09:42:00,
2013-07-21 05:43:00,71.7,65.2,29.77,SSW,203,0.0,0.0,80,0.00,,,0.00,VWS V14.01,2013-07-21 09:43:00,
2013-07-21 05:44:00,71.7,65.2,29.77,SSW,203,0.0,0.0,80,0.00,,,0.00,VWS V14.01,2013-07-21 09:44:00,
2013-07-21 05:45:00,71.7,65.2,29.77,SSW,203,0.0,0.0,80,0.00,,,0.00,VWS V14.01,2013-07-21 09:45:00,
2013-07-21 05:46:00,71.7,65.2,29.77,SSW,203,0.0,0.0,80,0.00,,,0.00,VWS V14.01,2013-07-21 09:46:00,
2013-07-21 05:47:00,71.7,65.2,29.77,SSW,203,0.0,0.0,80,0.00,,,0.00,VWS V14.01,2013-07-21 09:47:00,
2013-07-21 05:48:00,71.7,65.2,29.77,SSW,203,0.0,0.0,80,0.00,,,0.00,VWS V14.01,2013-07-21 09:48:00,
2013-07-21 05:49:00,71.7,65.2,29.77,SSW,203,0.0,0.0,80,0.00,,,0.00,VWS V14.01,2013-07-21 09:49:00,
2013-07-21 05:50:00,71.7,65.2,29.77,SSW,203,0.0,0.0,80,0.00,,,0.00,VWS V14.01,2013-07-21 09:50:00,
2013-07-21 05:51:00,71.7,65.2,29.77,SSW,203,0.0,0.0,80,0.00,,,0.00,VWS V14.01,2013-07-21 09:51:00,
2013-07-21 05:52:00,71.7,65.2,29.77,SSW,203,0.0,0.0,80,0.00,,,0.00,VWS V14.01,2013-07-21 09:52:00,
2013-07-21 05:53:00,71.7,65.2,29.77,SSW,203,0.0,0.0,80,0.00,,,0.00,VWS V14.01,2013-07-21 09:53:00,
2013-07-21 05:54:00,71.7,65.6,29.77,SSW,203,0.0,0.0,81,0.00,,,0.00,VWS V14.01,2013-07-21 09:54:00,
2013-07-21 05:55:00,71.7,65.6,29.77,SSW,203,0.0,0.0,81,0.00,,,0.00,VWS V14.01,2013-07-21 09:55:00,
2013-07-21 05:56:00,71.7,65.6,29.77,SSW,203,0.0,0.0,81,0.00,,,0.00,VWS V14.01,2013-07-21 09:56:00,
2013-07-21 05:57:00,71.7,65.6,29.77,SSW,203,0.0,0.0,81,0.00,,,0.00,VWS V14.01,2013-07-21 09:57:00,
2013-07-21 05:58:00,71.7,65.6,29.77,SSW,203,0.0,0.0,81,0.00,,,0.00,VWS V14.01,2013-07-21 09:58:00,
2013-07-21 05:59:00,71.7,65.6,29.77,SSW,203,0.0,0.0,81,0.00,,,0.00,VWS V14.01,2013-07-21 09:59:00,
2013-07-21 06:00:00,71.7,65.6,29.77,SSW,203,0.0,0.0,81,0.00,,,0.00,VWS V14.01,2013-07-21 10:00:00,
2013-07-21 06:01:00,71.7,65.6,29.77,SSW,203,0.0,0.0,81,0.00,,,0.00,VWS V14.01,2013-07-21 10:01:00,
2013-07-21 06:02:00,71.7,65.6,29.77,SSW,203,0.0,0.0,81,0.00,,,0.00,VWS V14.01,2013-07-21 10:02:00,
2013-07-21 06:03:00,71.7,65.6,29.77,SSW,203,0.0,0.0,81,0.00,,,0.00,VWS V14.01,2013-07-21 10:03:00,
2013-07-21 06:04:00,71.7,65.6,29.77,SSW,203,0.0,0.0,81,0.00,,,0.00,VWS V14.01,2013-07-21 10:04:00,
2013-07-21 06:05:00,71.7,65.6,29.77,SSW,203,0.0,0.0,81,0.00,,,0.00,VWS V14.01,2013-07-21 10:05:00,
2013-07-21 06:06:00,71.7,65.6,29.77,SSW,203,0.0,0.0,81,0.00,,,0.00,VWS V14.01,2013-07-21 10:06:00,
2013-07-21 06:07:00,71.7,65.6,29.77,SSW,203,0.0,0.0,81,0.00,,,0.00,VWS V14.01,2013-07-21 10:07:00,
2013-07-21 06:08:00,71.7,65.6,29.77,SSW,203,0.0,0.0,81,0.00,,,0.00,VWS V14.01,2013-07-21 10:08:00,
2013-07-21 06:09:00,71.7,65.6,29.77,SSW,203,0.0,0.0,81,0.00,,,0.00,VWS V14.01,2013-07-21 10:09:00,
2013-07-21 06:10:00,71.7,65.6,29.77,SSW,203,0.0,0.0,81,0.00,,,0.00,VWS V14.01,2013-07-21 10:10:00,
2013-07-21 06:11:00,71.7,65.6,29.77,SSW,203,0.0,0.0,81,0.00,,,0.00,VWS V14.01,2013-07-21 10:11:00,
2013-07-21 06:12:00,71.7,65.6,29.77,SSW,203,0.0,0.0,81,0.00,,,0.00,VWS V14.01,2013-07-21 10:12:00,
2013-07-21 06:13:00,71.7,65.6,29.77,SSW,203,0.0,0.0,81,0.00,,,0.00,VWS V14.01,2013-07-21 10:13:00,
2013-07-21 06:14:00,71.7,65.6,29.77,SSW,203,0.0,0.0,81,0.00,,,0.00,VWS V14.01,2013-07-21 10:14:00,
2013-07-21 06:15:00,71.7,65.6,29.77,SSW,203,0.0,0.0,81,0.00,,,0.00,VWS V14.01,2013-07-21 10:15:00,
2013-07-21 06:16:00,71.7,65.6,29.77,SSW,203,0.0,0.0,81,0.00,,,0.00,VWS V14.01,2013-07-21 10:16:00,
2013-07-21 06:17:00,71.7,65.6,29.77,SSW,203,0.0,0.0,81,0.00,,,0.00,VWS V14.01,2013-07-21 10:17:00,
2013-07-21 06:18:00,71.7,65.6,29.77,SSW,203,0.0,0.0,81,0.00,,,0.00,VWS V14.01,2013-07-21 10:18:00,
2013-07-21 06:19:00,71.7,65.6,29.77,SSW,203,0.0,0.0,81,0.00,,,0.00,VWS V14.01,2013-07-21 10:19:00,
2013-07-21 06:20:00,71.7,65.6,29.77,SSW,203,0.0,0.0,81,0.00,,,0.00,VWS V14.01,2013-07-21 10:20:00,
2013-07-21 06:21:00,71.7,65.6,29.77,SSW,203,0.0,0.0,81,0.00,,,0.00,VWS V14.01,2013-07-21 10:21:00,
2013-07-21 06:22:00,71.7,65.9,29.77,SSW,203,0.0,0.0,82,0.00,,,0.00,VWS V14.01,2013-07-21 10:22:00,
2013-07-21 06:23:00,71.7,65.9,29.77,SSW,203,0.0,0.0,82,0.00,,,0.00,VWS V14.01,2013-07-21 10:23:00,
2013-07-21 06:24:00,71.7,65.9,29.77,SSW,203,0.0,0.0,82,0.00,,,0.00,VWS V14.01,2013-07-21 10:24:00,
2013-07-21 06:25:00,71.7,65.9,29.77,SSW,203,0.0,0.0,82,0.00,,,0.00,VWS V14.01,2013-07-21 10:25:00,
2013-07-21 06:26:00,71.9,66.1,29.77,SSW,203,0.0,0.0,82,0.00,,,0.00,VWS V14.01,2013-07-21 10:26:00,
2013-07-21 06:27:00,71.9,66.1,29.77,SSW,203,0.0,0.0,82,0.00,,,0.00,VWS V14.01,2013-07-21 10:27:00,
2013-07-21 06:28:00,71.9,66.1,29.77,SSW,203,0.0,0.0,82,0.00,,,0.00,VWS V14.01,2013-07-21 10:28:00,
2013-07-21 06:29:00,71.9,66.1,29.77,SSW,203,0.0,0.0,82,0.00,,,0.00,VWS V14.01,2013-07-21 10:29:00,
2013-07-21 06:30:00,71.9,66.1,29.77,SSW,203,0.0,0.0,82,0.00,,,0.00,VWS V14.01,2013-07-21 10:30:00,
2013-07-21 06:31:00,71.9,66.1,29.77,SSW,203,0.0,0.0,82,0.00,,,0.00,VWS V14.01,2013-07-21 10:31:00,
2013-07-21 06:32:00,71.9,66.1,29.77,SSW,203,0.0,0.0,82,0.00,,,0.00,VWS V14.01,2013-07-21 10:32:00,
2013-07-21 06:33:00,71.9,66.1,29.77,SSW,203,0.0,0.0,82,0.00,,,0.00,VWS V14.01,2013-07-21 10:33:00,
2013-07-21 06:34:00,71.9,66.1,29.80,SSW,203,0.0,0.0,82,0.00,,,0.00,VWS V14.01,2013-07-21 10:34:00,
2013-07-21 06:35:00,71.9,66.1,29.80,SSW,203,0.0,0.0,82,0.00,,,0.00,VWS V14.01,2013-07-21 10:35:00,
2013-07-21 06:36:00,71.9,66.1,29.80,SSW,203,0.0,0.0,82,0.00,,,0.00,VWS V14.01,2013-07-21 10:36:00,
2013-07-21 06:37:00,71.9,66.1,29.80,SSW,203,0.0,0.0,82,0.00,,,0.00,VWS V14.01,2013-07-21 10:37:00,
2013-07-21 06:38:00,71.9,66.1,29.80,SSW,203,0.0,0.0,82,0.00,,,0.00,VWS V14.01,2013-07-21 10:38:00,
2013-07-21 06:39:00,71.9,66.1,29.80,SSW,203,0.0,0.0,82,0.00,,,0.00,VWS V14.01,2013-07-21 10:39:00,
2013-07-21 06:40:00,71.9,66.1,29.80,SSW,203,0.0,0.0,82,0.00,,,0.00,VWS V14.01,2013-07-21 10:40:00,
2013-07-21 06:41:00,71.9,66.1,29.80,SSW,203,0.0,0.0,82,0.00,,,0.00,VWS V14.01,2013-07-21 10:41:00,
2013-07-21 06:42:00,72.1,66.3,29.80,SSW,203,0.0,0.0,82,0.00,,,0.00,VWS V14.01,2013-07-21 10:42:00,
2013-07-21 06:43:00,72.1,66.3,29.80,SSW,203,0.0,0.0,82,0.00,,,0.00,VWS V14.01,2013-07-21 10:43:00,
2013-07-21 06:44:00,72.1,66.3,29.80,SSW,203,0.0,0.0,82,0.00,,,0.00,VWS V14.01,2013-07-21 10:44:00,
2013-07-21 06:45:00,72.1,66.3,29.80,SSW,203,0.0,0.0,82,0.00,,,0.00,VWS V14.01,2013-07-21 10:45:00,
2013-07-21 06:46:00,72.2,66.4,29.80,SSW,203,0.0,0.0,82,0.00,,,0.00,VWS V14.01,2013-07-21 10:46:00,
2013-07-21 06:47:00,72.2,66.4,29.80,SSW,212,0.0,0.0,82,0.00,,,0.00,VWS V14.01,2013-07-21 10:47:00,
2013-07-21 06:48:00,72.4,67.0,29.80,SSW,212,0.0,0.0,83,0.00,,,0.00,VWS V14.01,2013-07-21 10:48:00,
2013-07-21 06:49:00,72.4,67.0,29.80,SSW,212,0.0,0.0,83,0.00,,,0.00,VWS V14.01,2013-07-21 10:49:00,
2013-07-21 06:50:00,72.4,67.0,29.80,SSW,212,0.0,0.0,83,0.00,,,0.00,VWS V14.01,2013-07-21 10:50:00,
2013-07-21 06:51:00,72.6,66.8,29.80,SSW,208,0.0,2.2,82,0.00,,,0.00,VWS V14.01,2013-07-21 10:51:00,
2013-07-21 06:52:00,72.6,67.2,29.80,SSW,208,0.0,2.2,83,0.00,,,0.00,VWS V14.01,2013-07-21 10:52:00,
2013-07-21 06:53:00,72.8,67.3,29.80,SSW,208,0.0,0.0,83,0.00,,,0.00,VWS V14.01,2013-07-21 10:53:00,
2013-07-21 06:54:00,72.8,67.3,29.80,SSW,208,0.0,0.0,83,0.00,,,0.00,VWS V14.01,2013-07-21 10:54:00,
2013-07-21 06:55:00,72.8,67.3,29.80,NNW,341,0.0,0.0,83,0.00,,,0.00,VWS V14.01,2013-07-21 10:55:00,
2013-07-21 06:56:00,73.0,67.5,29.80,NNW,341,0.0,0.0,83,0.00,,,0.00,VWS V14.01,2013-07-21 10:56:00,
2013-07-21 06:57:00,73.0,67.5,29.80,NNW,341,0.0,0.0,83,0.00,,,0.00,VWS V14.01,2013-07-21 10:57:00,
2013-07-21 06:58:00,73.1,67.7,29.80,NNW,341,0.0,0.0,83,0.00,,,0.00,VWS V14.01,2013-07-21 10:58:00,
2013-07-21 06:59:00,73.1,67.7,29.80,NNW,341,0.0,0.0,83,0.00,,,0.00,VWS V14.01,2013-07-21 10:59:00,
2013-07-21 07:00:00,73.1,67.7,29.80,NNW,341,0.0,0.0,83,0.00,,,0.00,VWS V14.01,2013-07-21 11:00:00,
2013-07-21 07:01:00,73.3,67.8,29.80,NNW,341,0.0,0.0,83,0.00,,,0.00,VWS V14.01,2013-07-21 11:01:00,
2013-07-21 07:02:00,73.3,67.8,29.80,NNW,341,0.0,0.0,83,0.00,,,0.00,VWS V14.01,2013-07-21 11:02:00,
2013-07-21 07:03:00,73.3,67.8,29.80,NNW,341,0.0,0.0,83,0.00,,,0.00,VWS V14.01,2013-07-21 11:03:00,
2013-07-21 07:04:00,73.3,67.8,29.80,NNW,341,0.0,0.0,83,0.00,,,0.00,VWS V14.01,2013-07-21 11:04:00,
2013-07-21 07:05:00,73.5,68.0,29.80,NNW,341,0.0,0.0,83,0.00,,,0.00,VWS V14.01,2013-07-21 11:05:00,
2013-07-21 07:06:00,73.5,68.0,29.80,NNW,341,0.0,0.0,83,0.00,,,0.00,VWS V14.01,2013-07-21 11:06:00,
2013-07-21 07:07:00,73.5,67.7,29.80,NNW,341,0.0,0.0,82,0.00,,,0.00,VWS V14.01,2013-07-21 11:07:00,
2013-07-21 07:08:00,73.5,67.7,29.80,NNW,341,0.0,0.0,82,0.00,,,0.00,VWS V14.01,2013-07-21 11:08:00,
2013-07-21 07:09:00,73.5,67.7,29.80,NNW,341,0.0,0.0,82,0.00,,,0.00,VWS V14.01,2013-07-21 11:09:00,
2013-07-21 07:10:00,73.7,67.8,29.80,NNW,341,0.0,0.0,82,0.00,,,0.00,VWS V14.01,2013-07-21 11:10:00,
2013-07-21 07:11:00,73.7,67.8,29.80,WNW,289,0.0,0.0,82,0.00,,,0.00,VWS V14.01,2013-07-21 11:11:00,
2013-07-21 07:12:00,73.7,67.8,29.80,WNW,289,0.0,0.0,82,0.00,,,0.00,VWS V14.01,2013-07-21 11:12:00,
2013-07-21 07:13:00,73.7,67.8,29.80,WNW,289,0.0,0.0,82,0.00,,,0.00,VWS V14.01,2013-07-21 11:13:00,
2013-07-21 07:14:00,73.7,67.8,29.80,WNW,289,0.0,0.0,82,0.00,,,0.00,VWS V14.01,2013-07-21 11:14:00,
2013-07-21 07:15:00,73.7,67.8,29.80,WNW,289,0.0,0.0,82,0.00,,,0.00,VWS V14.01,2013-07-21 11:15:00,
2013-07-21 07:16:00,73.9,68.0,29.80,WNW,289,0.0,0.0,82,0.00,,,0.00,VWS V14.01,2013-07-21 11:16:00,
2013-07-21 07:17:00,73.9,68.0,29.80,WNW,289,0.0,0.0,82,0.00,,,0.00,VWS V14.01,2013-07-21 11:17:00,
2013-07-21 07:18:00,73.9,68.0,29.80,WNW,289,0.0,0.0,82,0.00,,,0.00,VWS V14.01,2013-07-21 11:18:00,
2013-07-21 07:19:00,73.9,67.7,29.80,WNW,289,0.0,0.0,81,0.00,,,0.00,VWS V14.01,2013-07-21 11:19:00,
2013-07-21 07:20:00,73.9,67.7,29.80,WSW,248,0.0,0.0,81,0.00,,,0.00,VWS V14.01,2013-07-21 11:20:00,
2013-07-21 07:21:00,74.0,67.8,29.80,WSW,248,0.0,0.0,81,0.00,,,0.00,VWS V14.01,2013-07-21 11:21:00,
2013-07-21 07:22:00,74.0,67.8,29.80,WSW,248,0.0,0.0,81,0.00,,,0.00,VWS V14.01,2013-07-21 11:22:00,
2013-07-21 07:23:00,74.0,67.8,29.80,WSW,248,0.0,0.0,81,0.00,,,0.00,VWS V14.01,2013-07-21 11:23:00,
2013-07-21 07:24:00,74.2,68.0,29.80,WSW,248,0.0,0.0,81,0.00,,,0.00,VWS V14.01,2013-07-21 11:24:00,
2013-07-21 07:25:00,74.2,68.0,29.80,WSW,248,0.0,0.0,81,0.00,,,0.00,VWS V14.01,2013-07-21 11:25:00,
2013-07-21 07:26:00,74.2,68.0,29.80,WSW,248,0.0,0.0,81,0.00,,,0.00,VWS V14.01,2013-07-21 11:26:00,
2013-07-21 07:27:00,74.2,68.0,29.80,WSW,248,0.0,0.0,81,0.00,,,0.00,VWS V14.01,2013-07-21 11:27:00,
2013-07-21 07:28:00,74.4,67.8,29.80,WSW,248,0.0,0.0,80,0.00,,,0.00,VWS V14.01,2013-07-21 11:28:00,
2013-07-21 07:29:00,74.4,67.8,29.80,WSW,248,0.0,0.0,80,0.00,,,0.00,VWS V14.01,2013-07-21 11:29:00,
2013-07-21 07:30:00,74.4,67.8,29.80,WSW,248,0.0,0.0,80,0.00,,,0.00,VWS V14.01,2013-07-21 11:30:00,
2013-07-21 07:31:00,74.6,68.0,29.80,WSW,249,0.0,0.0,80,0.00,,,0.00,VWS V14.01,2013-07-21 11:31:00,
2013-07-21 07:32:00,74.6,68.0,29.80,WSW,249,0.0,0.0,80,0.00,,,0.00,VWS V14.01,2013-07-21 11:32:00,
2013-07-21 07:33:00,74.6,68.0,29.80,WSW,249,0.0,0.0,80,0.00,,,0.00,VWS V14.01,2013-07-21 11:33:00,
2013-07-21 07:34:00,74.8,68.2,29.80,WSW,249,0.0,0.0,80,0.00,,,0.00,VWS V14.01,2013-07-21 11:34:00,
2013-07-21 07:35:00,74.9,68.4,29.80,SW,230,0.0,0.0,80,0.00,,,0.00,VWS V14.01,2013-07-21 11:35:00,
2013-07-21 07:36:00,74.9,68.4,29.80,NNW,342,0.0,0.0,80,0.00,,,0.00,VWS V14.01,2013-07-21 11:36:00,
2013-07-21 07:37:00,75.1,68.5,29.80,NNW,329,0.0,0.0,80,0.00,,,0.00,VWS V14.01,2013-07-21 11:37:00,
2013-07-21 07:38:00,75.1,68.5,29.80,NNW,329,0.0,0.0,80,0.00,,,0.00,VWS V14.01,2013-07-21 11:38:00,
2013-07-21 07:39:00,75.3,68.7,29.80,NNW,329,0.0,0.0,80,0.00,,,0.00,VWS V14.01,2013-07-21 11:39:00,
2013-07-21 07:40:00,75.3,68.7,29.80,NNW,329,0.0,0.0,80,0.00,,,0.00,VWS V14.01,2013-07-21 11:40:00,
2013-07-21 07:41:00,75.5,68.9,29.80,NNW,329,0.0,0.0,80,0.00,,,0.00,VWS V14.01,2013-07-21 11:41:00,
2013-07-21 07:42:00,75.7,69.1,29.80,NNW,329,0.0,0.0,80,0.00,,,0.00,VWS V14.01,2013-07-21 11:42:00,
2013-07-21 07:43:00,75.7,68.7,29.80,NNW,329,0.0,0.0,79,0.00,,,0.00,VWS V14.01,2013-07-21 11:43:00,
2013-07-21 07:44:00,75.8,68.9,29.80,South,172,0.0,0.0,79,0.00,,,0.00,VWS V14.01,2013-07-21 11:44:00,
2013-07-21 07:45:00,76.0,69.0,29.80,South,172,0.0,0.0,79,0.00,,,0.00,VWS V14.01,2013-07-21 11:45:00,
2013-07-21 07:46:00,76.0,68.7,29.80,SSW,197,0.0,0.0,78,0.00,,,0.00,VWS V14.01,2013-07-21 11:46:00,
2013-07-21 07:47:00,76.0,68.3,29.80,SSW,197,0.0,0.0,77,0.00,,,0.00,VWS V14.01,2013-07-21 11:47:00,
2013-07-21 07:48:00,76.2,68.1,29.80,SSW,197,0.0,0.0,76,0.00,,,0.00,VWS V14.01,2013-07-21 11:48:00,
2013-07-21 07:49:00,76.4,68.3,29.80,SSW,197,0.0,0.0,76,0.00,,,0.00,VWS V14.01,2013-07-21 11:49:00,
2013-07-21 07:50:00,76.4,68.3,29.80,SSW,197,0.0,0.0,76,0.00,,,0.00,VWS V14.01,2013-07-21 11:50:00,
2013-07-21 07:51:00,76.4,68.3,29.80,NW,306,0.0,0.0,76,0.00,,,0.00,VWS V14.01,2013-07-21 11:51:00,
2013-07-21 07:52:00,76.6,68.1,29.80,NW,306,0.0,0.0,75,0.00,,,0.00,VWS V14.01,2013-07-21 11:52:00,
2013-07-21 07:53:00,76.6,68.1,29.80,East,80,0.0,0.0,75,0.00,,,0.00,VWS V14.01,2013-07-21 11:53:00,
2013-07-21 07:54:00,76.6,68.1,29.80,NNE,17,0.0,0.0,75,0.00,,,0.00,VWS V14.01,2013-07-21 11:54:00,
2013-07-21 07:55:00,76.6,68.1,29.80,NNE,17,0.0,0.0,75,0.00,,,0.00,VWS V14.01,2013-07-21 11:55:00,
2013-07-21 07:56:00,76.7,67.8,29.80,NNE,17,0.0,0.0,74,0.00,,,0.00,VWS V14.01,2013-07-21 11:56:00,
2013-07-21 07:57:00,76.7,67.8,29.80,NW,325,0.0,0.0,74,0.00,,,0.00,VWS V14.01,2013-07-21 11:57:00,
2013-07-21 07:58:00,76.7,67.8,29.80,NW,320,0.0,0.0,74,0.00,,,0.00,VWS V14.01,2013-07-21 11:58:00,
2013-07-21 07:59:00,76.7,67.8,29.80,NW,320,0.0,0.0,74,0.00,,,0.00,VWS V14.01,2013-07-21 11:59:00,
2013-07-21 08:00:00,76.7,67.8,29.80,NW,320,0.0,0.0,74,0.00,,,0.00,VWS V14.01,2013-07-21 12:00:00,
2013-07-21 08:01:00,76.9,67.2,29.80,NW,321,0.0,0.0,72,0.00,,,0.00,VWS V14.01,2013-07-21 12:01:00,
2013-07-21 08:02:00,76.9,67.2,29.80,NW,321,0.0,0.0,72,0.00,,,0.00,VWS V14.01,2013-07-21 12:02:00,
2013-07-21 08:03:00,76.9,67.2,29.80,NW,321,0.0,0.0,72,0.00,,,0.00,VWS V14.01,2013-07-21 12:03:00,
2013-07-21 08:04:00,77.1,67.0,29.83,NW,321,0.0,0.0,71,0.00,,,0.00,VWS V14.01,2013-07-21 12:04:00,
2013-07-21 08:05:00,77.1,67.0,29.83,West,271,0.0,0.0,71,0.00,,,0.00,VWS V14.01,2013-07-21 12:05:00,
2013-07-21 08:06:00,77.1,67.0,29.83,West,271,0.0,0.0,71,0.00,,,0.00,VWS V14.01,2013-07-21 12:06:00,
2013-07-21 08:07:00,77.1,67.0,29.83,West,271,0.0,0.0,71,0.00,,,0.00,VWS V14.01,2013-07-21 12:07:00,
2013-07-21 08:08:00,77.1,66.6,29.83,NW,309,0.0,0.0,70,0.00,,,0.00,VWS V14.01,2013-07-21 12:08:00,
2013-07-21 08:09:00,77.1,66.6,29.83,NW,309,0.0,0.0,70,0.00,,,0.00,VWS V14.01,2013-07-21 12:09:00,
2013-07-21 08:10:00,77.1,66.6,29.83,NW,309,0.0,0.0,70,0.00,,,0.00,VWS V14.01,2013-07-21 12:10:00,
2013-07-21 08:11:00,77.1,66.2,29.83,NW,309,0.0,0.0,69,0.00,,,0.00,VWS V14.01,2013-07-21 12:11:00,
2013-07-21 08:12:00,77.1,66.2,29.83,NW,309,0.0,0.0,69,0.00,,,0.00,VWS V14.01,2013-07-21 12:12:00,
2013-07-21 08:13:00,77.1,66.2,29.83,NW,309,0.0,0.0,69,0.00,,,0.00,VWS V14.01,2013-07-21 12:13:00,
2013-07-21 08:14:00,77.1,66.2,29.83,NW,307,0.0,0.0,69,0.00,,,0.00,VWS V14.01,2013-07-21 12:14:00,
2013-07-21 08:15:00,77.1,66.2,29.83,NNW,344,0.0,0.0,69,0.00,,,0.00,VWS V14.01,2013-07-21 12:15:00,
2013-07-21 08:16:00,77.1,66.2,29.83,NNW,340,0.0,0.0,69,0.00,,,0.00,VWS V14.01,2013-07-21 12:16:00,
2013-07-21 08:17:00,77.1,66.2,29.83,WNW,298,0.0,0.0,69,0.00,,,0.00,VWS V14.01,2013-07-21 12:17:00,
2013-07-21 08:18:00,77.1,65.7,29.83,WNW,298,0.0,0.0,68,0.00,,,0.00,VWS V14.01,2013-07-21 12:18:00,
2013-07-21 08:19:00,77.1,65.7,29.83,WNW,298,0.0,0.0,68,0.00,,,0.00,VWS V14.01,2013-07-21 12:19:00,
2013-07-21 08:20:00,77.1,65.7,29.83,WNW,298,0.0,0.0,68,0.00,,,0.00,VWS V14.01,2013-07-21 12:20:00,
2013-07-21 08:21:00,77.1,65.7,29.83,WNW,298,0.0,0.0,68,0.00,,,0.00,VWS V14.01,2013-07-21 12:21:00,
2013-07-21 08:22:00,77.1,65.7,29.83,WNW,298,0.0,0.0,68,0.00,,,0.00,VWS V14.01,2013-07-21 12:22:00,
2013-07-21 08:23:00,77.3,65.9,29.83,WNW,298,0.0,0.0,68,0.00,,,0.00,VWS V14.01,2013-07-21 12:23:00,
2013-07-21 08:24:00,77.3,65.9,29.83,WNW,293,2.2,4.0,68,0.00,,,0.00,VWS V14.01,2013-07-21 12:24:00,
2013-07-21 08:25:00,77.3,65.9,29.83,WNW,293,2.2,2.2,68,0.00,,,0.00,VWS V14.01,2013-07-21 12:25:00,
2013-07-21 08:26:00,77.3,65.9,29.83,WNW,298,0.0,2.2,68,0.00,,,0.00,VWS V14.01,2013-07-21 12:26:00,
2013-07-21 08:27:00,77.1,65.3,29.83,WNW,298,0.0,0.0,67,0.00,,,0.00,VWS V14.01,2013-07-21 12:27:00,
2013-07-21 08:28:00,77.1,65.3,29.83,West,279,0.0,0.0,67,0.00,,,0.00,VWS V14.01,2013-07-21 12:28:00,
2013-07-21 08:29:00,77.1,65.3,29.83,West,279,0.0,0.0,67,0.00,,,0.00,VWS V14.01,2013-07-21 12:29:00,
2013-07-21 08:30:00,77.1,65.3,29.83,NW,317,0.0,0.0,67,0.00,,,0.00,VWS V14.01,2013-07-21 12:30:00,
2013-07-21 08:31:00,77.1,65.3,29.83,NW,317,0.0,0.0,67,0.00,,,0.00,VWS V14.01,2013-07-21 12:31:00,
2013-07-21 08:32:00,77.1,65.3,29.83,NW,317,0.0,0.0,67,0.00,,,0.00,VWS V14.01,2013-07-21 12:32:00,
2013-07-21 08:33:00,77.3,65.5,29.83,NW,319,0.0,0.0,67,0.00,,,0.00,VWS V14.01,2013-07-21 12:33:00,
2013-07-21 08:34:00,77.3,65.5,29.83,NW,319,0.0,0.0,67,0.00,,,0.00,VWS V14.01,2013-07-21 12:34:00,
2013-07-21 08:35:00,77.3,65.5,29.83,NW,319,0.0,0.0,67,0.00,,,0.00,VWS V14.01,2013-07-21 12:35:00,
2013-07-21 08:36:00,77.3,65.5,29.83,NW,310,0.0,0.0,67,0.00,,,0.00,VWS V14.01,2013-07-21 12:36:00,
2013-07-21 08:37:00,77.5,66.1,29.83,NW,310,0.0,0.0,68,0.00,,,0.00,VWS V14.01,2013-07-21 12:37:00,
2013-07-21 08:38:00,77.8,66.4,29.83,NW,310,0.0,0.0,68,0.00,,,0.00,VWS V14.01,2013-07-21 12:38:00,
2013-07-21 08:39:00,77.8,66.4,29.83,NNE,13,0.0,0.0,68,0.00,,,0.00,VWS V14.01,2013-07-21 12:39:00,
2013-07-21 08:40:00,78.2,66.3,29.83,NNE,13,0.0,0.0,67,0.00,,,0.00,VWS V14.01,2013-07-21 12:40:00,
2013-07-21 08:41:00,78.2,66.3,29.83,NNE,13,0.0,0.0,67,0.00,,,0.00,VWS V14.01,2013-07-21 12:41:00,
2013-07-21 08:42:00,78.2,66.3,29.83,NNE,13,0.0,0.0,67,0.00,,,0.00,VWS V14.01,2013-07-21 12:42:00,
2013-07-21 08:43:00,78.2,66.3,29.83,North,353,0.0,0.0,67,0.00,,,0.00,VWS V14.01,2013-07-21 12:43:00,
2013-07-21 08:44:00,79.1,67.2,29.83,North,353,0.0,0.0,67,0.00,,,0.00,VWS V14.01,2013-07-21 12:44:00,
2013-07-21 08:45:00,79.3,67.4,29.83,North,353,0.0,0.0,67,0.00,,,0.00,VWS V14.01,2013-07-21 12:45:00,
2013-07-21 08:46:00,79.3,67.4,29.83,North,353,0.0,0.0,67,0.00,,,0.00,VWS V14.01,2013-07-21 12:46:00,
2013-07-21 08:47:00,79.3,67.4,29.83,North,353,0.0,0.0,67,0.00,,,0.00,VWS V14.01,2013-07-21 12:47:00,
2013-07-21 08:48:00,79.8,67.0,29.83,North,353,0.0,0.0,65,0.00,,,0.00,VWS V14.01,2013-07-21 12:48:00,
2013-07-21 08:49:00,80.0,67.2,29.83,North,353,0.0,0.0,65,0.00,,,0.00,VWS V14.01,2013-07-21 12:49:00,
2013-07-21 08:50:00,80.0,67.2,29.83,North,353,0.0,0.0,65,0.00,,,0.00,VWS V14.01,2013-07-21 12:50:00,
2013-07-21 08:51:00,80.3,67.1,29.83,North,353,0.0,0.0,64,0.00,,,0.00,VWS V14.01,2013-07-21 12:51:00,
2013-07-21 08:52:00,80.3,67.1,29.83,North,353,0.0,0.0,64,0.00,,,0.00,VWS V14.01,2013-07-21 12:52:00,
2013-07-21 08:53:00,80.3,67.1,29.83,North,353,0.0,0.0,64,0.00,,,0.00,VWS V14.01,2013-07-21 12:53:00,
2013-07-21 08:54:00,80.3,66.1,29.83,North,353,0.0,0.0,62,0.00,,,0.00,VWS V14.01,2013-07-21 12:54:00,
2013-07-21 08:55:00,80.3,66.1,29.83,North,353,0.0,0.0,62,0.00,,,0.00,VWS V14.01,2013-07-21 12:55:00,
2013-07-21 08:56:00,80.5,65.8,29.83,North,353,0.0,0.0,61,0.00,,,0.00,VWS V14.01,2013-07-21 12:56:00,
2013-07-21 08:57:00,80.5,65.8,29.83,North,353,0.0,0.0,61,0.00,,,0.00,VWS V14.01,2013-07-21 12:57:00,
2013-07-21 08:58:00,80.5,65.8,29.83,North,353,0.0,0.0,61,0.00,,,0.00,VWS V14.01,2013-07-21 12:58:00,
2013-07-21 08:59:00,80.5,65.4,29.83,North,353,0.0,0.0,60,0.00,,,0.00,VWS V14.01,2013-07-21 12:59:00,
2013-07-21 09:00:00,80.5,65.4,29.83,NW,305,0.0,0.0,60,0.00,,,0.00,VWS V14.01,2013-07-21 13:00:00,
2013-07-21 09:01:00,80.5,65.4,29.83,NW,305,0.0,0.0,60,0.00,,,0.00,VWS V14.01,2013-07-21 13:01:00,
2013-07-21 09:02:00,80.5,64.9,29.83,NW,305,0.0,0.0,59,0.00,,,0.00,VWS V14.01,2013-07-21 13:02:00,
2013-07-21 09:03:00,80.5,64.9,29.83,NW,309,0.0,0.0,59,0.00,,,0.00,VWS V14.01,2013-07-21 13:03:00,
2013-07-21 09:04:00,80.5,64.4,29.83,NW,314,0.0,0.0,58,0.00,,,0.00,VWS V14.01,2013-07-21 13:04:00,
2013-07-21 09:05:00,80.5,64.4,29.83,NNW,341,0.0,0.0,58,0.00,,,0.00,VWS V14.01,2013-07-21 13:05:00,
2013-07-21 09:06:00,80.3,63.7,29.83,NNW,341,0.0,0.0,57,0.00,,,0.00,VWS V14.01,2013-07-21 13:06:00,
2013-07-21 09:07:00,80.3,63.7,29.83,NW,312,0.0,0.0,57,0.00,,,0.00,VWS V14.01,2013-07-21 13:07:00,
2013-07-21 09:08:00,80.3,63.7,29.83,North,0,0.0,0.0,57,0.00,,,0.00,VWS V14.01,2013-07-21 13:08:00,
2013-07-21 09:09:00,80.3,63.7,29.83,WNW,299,0.0,0.0,57,0.00,,,0.00,VWS V14.01,2013-07-21 13:09:00,
2013-07-21 09:10:00,80.3,63.7,29.83,WNW,299,0.0,0.0,57,0.00,,,0.00,VWS V14.01,2013-07-21 13:10:00,
2013-07-21 09:11:00,80.3,63.2,29.83,WNW,299,0.0,0.0,56,0.00,,,0.00,VWS V14.01,2013-07-21 13:11:00,
2013-07-21 09:12:00,80.3,63.2,29.83,WNW,299,0.0,0.0,56,0.00,,,0.00,VWS V14.01,2013-07-21 13:12:00,
2013-07-21 09:13:00,80.3,63.2,29.83,WNW,299,0.0,0.0,56,0.00,,,0.00,VWS V14.01,2013-07-21 13:13:00,
2013-07-21 09:14:00,80.3,63.2,29.83,WNW,299,0.0,0.0,56,0.00,,,0.00,VWS V14.01,2013-07-21 13:14:00,
2013-07-21 09:15:00,80.0,62.4,29.83,NW,319,0.0,0.0,55,0.00,,,0.00,VWS V14.01,2013-07-21 13:15:00,
2013-07-21 09:16:00,80.0,62.4,29.83,NW,319,0.0,0.0,55,0.00,,,0.00,VWS V14.01,2013-07-21 13:16:00,
2013-07-21 09:17:00,79.8,62.2,29.83,NW,319,0.0,0.0,55,0.00,,,0.00,VWS V14.01,2013-07-21 13:17:00,
2013-07-21 09:18:00,79.8,62.2,29.83,NW,319,0.0,0.0,55,0.00,,,0.00,VWS V14.01,2013-07-21 13:18:00,
2013-07-21 09:19:00,79.8,62.2,29.83,NNW,334,0.0,0.0,55,0.00,,,0.00,VWS V14.01,2013-07-21 13:19:00,
2013-07-21 09:20:00,79.4,62.4,29.83,NNW,334,0.0,0.0,56,0.00,,,0.00,VWS V14.01,2013-07-21 13:20:00,
2013-07-21 09:21:00,79.3,62.2,29.83,NW,314,0.0,0.0,56,0.00,,,0.00,VWS V14.01,2013-07-21 13:21:00,
2013-07-21 09:22:00,79.3,62.2,29.83,NW,314,0.0,0.0,56,0.00,,,0.00,VWS V14.01,2013-07-21 13:22:00,
2013-07-21 09:23:00,79.3,62.2,29.83,NW,314,0.0,0.0,56,0.00,,,0.00,VWS V14.01,2013-07-21 13:23:00,
2013-07-21 09:24:00,79.3,62.2,29.83,NW,314,0.0,0.0,56,0.00,,,0.00,VWS V14.01,2013-07-21 13:24:00,
2013-07-21 09:25:00,79.1,62.6,29.83,NW,317,0.0,0.0,57,0.00,,,0.00,VWS V14.01,2013-07-21 13:25:00,
2013-07-21 09:26:00,79.1,63.0,29.83,NW,317,0.0,0.0,58,0.00,,,0.00,VWS V14.01,2013-07-21 13:26:00,
2013-07-21 09:27:00,79.1,63.0,29.83,NW,317,0.0,0.0,58,0.00,,,0.00,VWS V14.01,2013-07-21 13:27:00,
2013-07-21 09:28:00,78.9,62.9,29.83,NW,317,0.0,0.0,58,0.00,,,0.00,VWS V14.01,2013-07-21 13:28:00,
2013-07-21 09:29:00,78.9,62.9,29.83,NW,317,0.0,0.0,58,0.00,,,0.00,VWS V14.01,2013-07-21 13:29:00,
2013-07-21 09:30:00,78.7,62.7,29.83,NW,317,0.0,0.0,58,0.00,,,0.00,VWS V14.01,2013-07-21 13:30:00,
2013-07-21 09:31:00,78.7,62.7,29.83,NW,317,0.0,0.0,58,0.00,,,0.00,VWS V14.01,2013-07-21 13:31:00,
2013-07-21 09:32:00,78.7,63.2,29.83,NW,317,0.0,0.0,59,0.00,,,0.00,VWS V14.01,2013-07-21 13:32:00,
2013-07-21 09:33:00,78.7,63.2,29.83,NW,317,0.0,0.0,59,0.00,,,0.00,VWS V14.01,2013-07-21 13:33:00,
2013-07-21 09:34:00,78.7,63.2,29.83,NW,317,0.0,0.0,59,0.00,,,0.00,VWS V14.01,2013-07-21 13:34:00,
2013-07-21 09:35:00,78.7,63.2,29.83,NW,317,0.0,0.0,59,0.00,,,0.00,VWS V14.01,2013-07-21 13:35:00,
2013-07-21 09:36:00,78.5,63.0,29.83,NW,317,0.0,0.0,59,0.00,,,0.00,VWS V14.01,2013-07-21 13:36:00,
2013-07-21 09:37:00,78.5,63.0,29.83,NW,317,0.0,0.0,59,0.00,,,0.00,VWS V14.01,2013-07-21 13:37:00,
2013-07-21 09:38:00,78.5,63.0,29.83,WNW,291,0.0,0.0,59,0.00,,,0.00,VWS V14.01,2013-07-21 13:38:00,
2013-07-21 09:39:00,78.5,63.0,29.83,WNW,291,0.0,0.0,59,0.00,,,0.00,VWS V14.01,2013-07-21 13:39:00,
2013-07-21 09:40:00,78.5,63.0,29.83,NW,310,0.0,0.0,59,0.00,,,0.00,VWS V14.01,2013-07-21 13:40:00,
2013-07-21 09:41:00,78.4,63.3,29.83,NW,310,0.0,0.0,60,0.00,,,0.00,VWS V14.01,2013-07-21 13:41:00,
2013-07-21 09:42:00,78.4,63.3,29.83,NW,310,0.0,0.0,60,0.00,,,0.00,VWS V14.01,2013-07-21 13:42:00,
2013-07-21 09:43:00,78.4,63.3,29.83,NW,310,0.0,0.0,60,0.00,,,0.00,VWS V14.01,2013-07-21 13:43:00,
2013-07-21 09:44:00,78.4,63.3,29.83,NW,310,0.0,0.0,60,0.00,,,0.00,VWS V14.01,2013-07-21 13:44:00,
2013-07-21 09:45:00,78.4,63.3,29.83,NW,310,0.0,0.0,60,0.00,,,0.00,VWS V14.01,2013-07-21 13:45:00,
2013-07-21 09:46:00,78.4,63.3,29.83,NW,310,0.0,0.0,60,0.00,,,0.00,VWS V14.01,2013-07-21 13:46:00,
2013-07-21 09:47:00,78.4,63.3,29.83,NW,321,0.0,0.0,60,0.00,,,0.00,VWS V14.01,2013-07-21 13:47:00,
2013-07-21 09:48:00,78.4,63.3,29.83,NW,322,0.0,0.0,60,0.00,,,0.00,VWS V14.01,2013-07-21 13:48:00,
2013-07-21 09:49:00,78.4,63.3,29.83,NW,322,0.0,0.0,60,0.00,,,0.00,VWS V14.01,2013-07-21 13:49:00,
2013-07-21 09:50:00,78.4,63.3,29.83,NW,322,0.0,0.0,60,0.00,,,0.00,VWS V14.01,2013-07-21 13:50:00,
2013-07-21 09:51:00,78.4,63.3,29.83,NW,322,0.0,0.0,60,0.00,,,0.00,VWS V14.01,2013-07-21 13:51:00,
2013-07-21 09:52:00,78.4,63.3,29.83,NW,322,0.0,0.0,60,0.00,,,0.00,VWS V14.01,2013-07-21 13:52:00,
2013-07-21 09:53:00,78.4,63.3,29.83,NW,322,0.0,0.0,60,0.00,,,0.00,VWS V14.01,2013-07-21 13:53:00,
2013-07-21 09:54:00,78.4,63.3,29.83,NW,322,0.0,0.0,60,0.00,,,0.00,VWS V14.01,2013-07-21 13:54:00,
2013-07-21 09:55:00,78.4,63.3,29.83,NW,322,0.0,0.0,60,0.00,,,0.00,VWS V14.01,2013-07-21 13:55:00,
2013-07-21 09:56:00,78.4,63.8,29.83,NW,322,0.0,0.0,61,0.00,,,0.00,VWS V14.01,2013-07-21 13:56:00,
2013-07-21 09:57:00,78.5,64.0,29.83,NW,322,0.0,0.0,61,0.00,,,0.00,VWS V14.01,2013-07-21 13:57:00,
2013-07-21 09:58:00,78.5,64.0,29.83,NW,322,0.0,0.0,61,0.00,,,0.00,VWS V14.01,2013-07-21 13:58:00,
2013-07-21 09:59:00,78.5,64.0,29.83,NW,322,0.0,0.0,61,0.00,,,0.00,VWS V14.01,2013-07-21 13:59:00,
2013-07-21 10:00:00,78.5,64.0,29.83,NW,322,0.0,0.0,61,0.00,,,0.00,VWS V14.01,2013-07-21 14:00:00,
2013-07-21 10:01:00,78.5,64.0,29.83,NW,322,0.0,0.0,61,0.00,,,0.00,VWS V14.01,2013-07-21 14:01:00,
2013-07-21 10:02:00,78.9,64.3,29.83,NW,322,0.0,0.0,61,0.00,,,0.00,VWS V14.01,2013-07-21 14:02:00,
2013-07-21 10:03:00,78.9,64.3,29.83,NW,322,0.0,0.0,61,0.00,,,0.00,VWS V14.01,2013-07-21 14:03:00,
2013-07-21 10:04:00,78.9,64.3,29.83,NW,322,0.0,0.0,61,0.00,,,0.00,VWS V14.01,2013-07-21 14:04:00,
2013-07-21 10:05:00,78.9,64.3,29.83,NW,322,0.0,0.0,61,0.00,,,0.00,VWS V14.01,2013-07-21 14:05:00,
2013-07-21 10:06:00,79.3,65.1,29.83,NW,322,0.0,0.0,62,0.00,,,0.00,VWS V14.01,2013-07-21 14:06:00,
2013-07-21 10:07:00,79.3,65.1,29.83,NW,322,0.0,0.0,62,0.00,,,0.00,VWS V14.01,2013-07-21 14:07:00,
2013-07-21 10:08:00,79.3,65.1,29.83,NW,322,0.0,0.0,62,0.00,,,0.00,VWS V14.01,2013-07-21 14:08:00,
2013-07-21 10:09:00,79.4,64.8,29.83,NW,322,0.0,0.0,61,0.00,,,0.00,VWS V14.01,2013-07-21 14:09:00,
2013-07-21 10:10:00,79.6,64.5,29.83,NW,322,0.0,0.0,60,0.00,,,0.00,VWS V14.01,2013-07-21 14:10:00,
2013-07-21 10:11:00,79.6,64.0,29.83,NW,322,0.0,0.0,59,0.00,,,0.00,VWS V14.01,2013-07-21 14:11:00,
2013-07-21 10:12:00,79.6,64.0,29.83,NW,322,0.0,0.0,59,0.00,,,0.00,VWS V14.01,2013-07-21 14:12:00,
2013-07-21 10:13:00,80.0,64.4,29.83,NW,322,0.0,0.0,59,0.00,,,0.00,VWS V14.01,2013-07-21 14:13:00,
2013-07-21 10:14:00,80.0,64.4,29.83,NW,322,0.0,0.0,59,0.00,,,0.00,VWS V14.01,2013-07-21 14:14:00,
2013-07-21 10:15:00,80.2,64.1,29.83,NE,56,0.0,0.0,58,0.00,,,0.00,VWS V14.01,2013-07-21 14:15:00,
2013-07-21 10:16:00,80.2,64.1,29.83,NE,37,0.0,0.0,58,0.00,,,0.00,VWS V14.01,2013-07-21 14:16:00,
2013-07-21 10:17:00,80.3,63.7,29.83,NE,37,0.0,0.0,57,0.00,,,0.00,VWS V14.01,2013-07-21 14:17:00,
2013-07-21 10:18:00,80.3,63.7,29.83,ENE,60,0.0,0.0,57,0.00,,,0.00,VWS V14.01,2013-07-21 14:18:00,
2013-07-21 10:19:00,80.3,63.7,29.80,ENE,60,0.0,0.0,57,0.00,,,0.00,VWS V14.01,2013-07-21 14:19:00,
2013-07-21 10:20:00,80.7,63.0,29.80,ENE,60,0.0,0.0,55,0.00,,,0.00,VWS V14.01,2013-07-21 14:20:00,
2013-07-21 10:21:00,80.7,63.0,29.80,ENE,60,0.0,0.0,55,0.00,,,0.00,VWS V14.01,2013-07-21 14:21:00,
2013-07-21 10:22:00,81.1,63.4,29.80,NE,41,0.0,0.0,55,0.00,,,0.00,VWS V14.01,2013-07-21 14:22:00,
2013-07-21 10:23:00,81.1,63.4,29.80,NE,41,0.0,0.0,55,0.00,,,0.00,VWS V14.01,2013-07-21 14:23:00,
2013-07-21 10:24:00,81.2,63.0,29.80,NE,41,0.0,0.0,54,0.00,,,0.00,VWS V14.01,2013-07-21 14:24:00,
2013-07-21 10:25:00,81.2,63.0,29.80,ENE,63,0.0,0.0,54,0.00,,,0.00,VWS V14.01,2013-07-21 14:25:00,
2013-07-21 10:26:00,81.2,63.0,29.80,ENE,63,0.0,0.0,54,0.00,,,0.00,VWS V14.01,2013-07-21 14:26:00,
2013-07-21 10:27:00,81.4,62.7,29.80,North,5,0.0,0.0,53,0.00,,,0.00,VWS V14.01,2013-07-21 14:27:00,
2013-07-21 10:28:00,81.4,62.7,29.80,North,5,0.0,0.0,53,0.00,,,0.00,VWS V14.01,2013-07-21 14:28:00,
2013-07-21 10:29:00,81.6,62.8,29.80,North,5,0.0,0.0,53,0.00,,,0.00,VWS V14.01,2013-07-21 14:29:00,
2013-07-21 10:30:00,81.6,62.8,29.80,North,2,0.0,0.0,53,0.00,,,0.00,VWS V14.01,2013-07-21 14:30:00,
2013-07-21 10:31:00,81.6,62.3,29.80,North,2,0.0,0.0,52,0.00,,,0.00,VWS V14.01,2013-07-21 14:31:00,
2013-07-21 10:32:00,81.6,62.3,29.80,North,2,0.0,0.0,52,0.00,,,0.00,VWS V14.01,2013-07-21 14:32:00,
2013-07-21 10:33:00,81.6,62.3,29.80,North,2,0.0,0.0,52,0.00,,,0.00,VWS V14.01,2013-07-21 14:33:00,
2013-07-21 10:34:00,81.6,62.3,29.80,North,7,0.0,0.0,52,0.00,,,0.00,VWS V14.01,2013-07-21 14:34:00,
2013-07-21 10:35:00,81.2,62.0,29.83,NE,34,0.0,0.0,52,0.00,,,0.00,VWS V14.01,2013-07-21 14:35:00,
2013-07-21 10:36:00,81.2,62.0,29.83,East,84,0.0,0.0,52,0.00,,,0.00,VWS V14.01,2013-07-21 14:36:00,
2013-07-21 10:37:00,81.2,62.0,29.83,East,84,0.0,0.0,52,0.00,,,0.00,VWS V14.01,2013-07-21 14:37:00,
2013-07-21 10:38:00,81.2,62.0,29.83,East,84,0.0,0.0,52,0.00,,,0.00,VWS V14.01,2013-07-21 14:38:00,
2013-07-21 10:39:00,81.1,61.8,29.83,East,84,0.0,0.0,52,0.00,,,0.00,VWS V14.01,2013-07-21 14:39:00,
2013-07-21 10:40:00,81.1,61.8,29.83,East,84,0.0,0.0,52,0.00,,,0.00,VWS V14.01,2013-07-21 14:40:00,
2013-07-21 10:41:00,81.1,61.8,29.83,East,84,0.0,0.0,52,0.00,,,0.00,VWS V14.01,2013-07-21 14:41:00,
2013-07-21 10:42:00,81.1,61.8,29.83,East,84,0.0,0.0,52,0.00,,,0.00,VWS V14.01,2013-07-21 14:42:00,
2013-07-21 10:43:00,81.2,62.5,29.83,East,82,0.0,0.0,53,0.00,,,0.00,VWS V14.01,2013-07-21 14:43:00,
2013-07-21 10:44:00,81.4,62.7,29.83,ENE,68,2.2,2.2,53,0.00,,,0.00,VWS V14.01,2013-07-21 14:44:00,
2013-07-21 10:45:00,81.4,62.7,29.83,ENE,68,0.0,2.2,53,0.00,,,0.00,VWS V14.01,2013-07-21 14:45:00,
2013-07-21 10:46:00,81.6,62.3,29.83,ENE,68,0.0,0.0,52,0.00,,,0.00,VWS V14.01,2013-07-21 14:46:00,
2013-07-21 10:47:00,81.8,62.5,29.83,ENE,68,0.0,0.0,52,0.00,,,0.00,VWS V14.01,2013-07-21 14:47:00,
2013-07-21 10:48:00,82.0,62.6,29.83,ENE,68,0.0,0.0,52,0.00,,,0.00,VWS V14.01,2013-07-21 14:48:00,
2013-07-21 10:49:00,82.0,62.6,29.83,ENE,68,0.0,0.0,52,0.00,,,0.00,VWS V14.01,2013-07-21 14:49:00,
2013-07-21 10:50:00,82.1,62.8,29.83,ENE,68,0.0,0.0,52,0.00,,,0.00,VWS V14.01,2013-07-21 14:50:00,
2013-07-21 10:51:00,82.1,62.8,29.83,ENE,68,0.0,0.0,52,0.00,,,0.00,VWS V14.01,2013-07-21 14:51:00,
2013-07-21 10:52:00,82.1,62.8,29.83,ENE,68,0.0,0.0,52,0.00,,,0.00,VWS V14.01,2013-07-21 14:52:00,
2013-07-21 10:53:00,82.1,62.8,29.83,NE,55,0.0,0.0,52,0.00,,,0.00,VWS V14.01,2013-07-21 14:53:00,
2013-07-21 10:54:00,82.5,62.6,29.83,NE,55,0.0,0.0,51,0.00,,,0.00,VWS V14.01,2013-07-21 14:54:00,
2013-07-21 10:55:00,82.7,62.2,29.83,NE,44,0.0,0.0,50,0.00,,,0.00,VWS V14.01,2013-07-21 14:55:00,
2013-07-21 10:56:00,82.7,62.2,29.83,NE,44,0.0,0.0,50,0.00,,,0.00,VWS V14.01,2013-07-21 14:56:00,
2013-07-21 10:57:00,82.7,62.2,29.83,NE,44,0.0,0.0,50,0.00,,,0.00,VWS V14.01,2013-07-21 14:57:00,
2013-07-21 10:58:00,82.7,61.6,29.83,NE,44,0.0,0.0,49,0.00,,,0.00,VWS V14.01,2013-07-21 14:58:00,
2013-07-21 10:59:00,82.7,61.6,29.83,NNE,28,0.0,0.0,49,0.00,,,0.00,VWS V14.01,2013-07-21 14:59:00,
2013-07-21 11:00:00,82.7,61.6,29.83,NNE,33,0.0,0.0,49,0.00,,,0.00,VWS V14.01,2013-07-21 15:00:00,
2013-07-21 11:01:00,82.7,61.6,29.83,NNE,32,0.0,0.0,49,0.00,,,0.00,VWS V14.01,2013-07-21 15:01:00,
2013-07-21 11:02:00,82.7,61.6,29.83,NNE,32,0.0,0.0,49,0.00,,,0.00,VWS V14.01,2013-07-21 15:02:00,
2013-07-21 11:03:00,83.0,62.5,29.83,NE,40,0.0,0.0,50,0.00,,,0.00,VWS V14.01,2013-07-21 15:03:00,
2013-07-21 11:04:00,83.0,62.5,29.83,NE,52,0.0,0.0,50,0.00,,,0.00,VWS V14.01,2013-07-21 15:04:00,
2013-07-21 11:05:00,83.4,62.8,29.83,NE,52,0.0,0.0,50,0.00,,,0.00,VWS V14.01,2013-07-21 15:05:00,
2013-07-21 11:06:00,83.4,62.8,29.83,NNE,30,3.6,3.6,50,0.00,,,0.00,VWS V14.01,2013-07-21 15:06:00,
2013-07-21 11:07:00,83.4,62.8,29.83,NE,34,0.0,3.6,50,0.00,,,0.00,VWS V14.01,2013-07-21 15:07:00,
2013-07-21 11:08:00,83.9,61.6,29.83,NW,324,0.0,0.0,47,0.00,,,0.00,VWS V14.01,2013-07-21 15:08:00,
2013-07-21 11:09:00,84.1,61.7,29.83,NW,324,0.0,0.0,47,0.00,,,0.00,VWS V14.01,2013-07-21 15:09:00,
2013-07-21 11:10:00,84.1,61.7,29.83,North,353,0.0,0.0,47,0.00,,,0.00,VWS V14.01,2013-07-21 15:10:00,
2013-07-21 11:11:00,84.1,61.7,29.83,NNE,15,0.0,0.0,47,0.00,,,0.00,VWS V14.01,2013-07-21 15:11:00,
2013-07-21 11:12:00,84.5,62.1,29.83,NNE,15,0.0,0.0,47,0.00,,,0.00,VWS V14.01,2013-07-21 15:12:00,
2013-07-21 11:13:00,84.7,62.2,29.83,NNE,15,0.0,0.0,47,0.00,,,0.00,VWS V14.01,2013-07-21 15:13:00,
2013-07-21 11:14:00,84.7,62.2,29.83,ESE,102,0.0,0.0,47,0.00,,,0.00,VWS V14.01,2013-07-21 15:14:00,
2013-07-21 11:15:00,84.7,62.2,29.83,East,100,0.0,0.0,47,0.00,,,0.00,VWS V14.01,2013-07-21 15:15:00,
2013-07-21 11:16:00,85.4,62.3,29.83,East,100,0.0,0.0,46,0.00,,,0.00,VWS V14.01,2013-07-21 15:16:00,
2013-07-21 11:17:00,85.6,61.8,29.83,NNE,22,0.0,0.0,45,0.00,,,0.00,VWS V14.01,2013-07-21 15:17:00,
2013-07-21 11:18:00,85.6,61.8,29.83,WNW,303,0.0,0.0,45,0.00,,,0.00,VWS V14.01,2013-07-21 15:18:00,
2013-07-21 11:19:00,85.6,61.2,29.83,WNW,303,0.0,0.0,44,0.00,,,0.00,VWS V14.01,2013-07-21 15:19:00,
2013-07-21 11:20:00,85.4,61.0,29.83,WNW,303,0.0,0.0,44,0.00,,,0.00,VWS V14.01,2013-07-21 15:20:00,
2013-07-21 11:21:00,85.4,61.0,29.83,NW,308,0.0,0.0,44,0.00,,,0.00,VWS V14.01,2013-07-21 15:21:00,
2013-07-21 11:22:00,85.4,61.0,29.83,NW,308,0.0,0.0,44,0.00,,,0.00,VWS V14.01,2013-07-21 15:22:00,
2013-07-21 11:23:00,85.4,61.0,29.83,NE,55,0.0,0.0,44,0.00,,,0.00,VWS V14.01,2013-07-21 15:23:00,
2013-07-21 11:24:00,85.6,61.2,29.83,NE,55,0.0,0.0,44,0.00,,,0.00,VWS V14.01,2013-07-21 15:24:00,
2013-07-21 11:25:00,85.6,61.2,29.83,ENE,61,0.0,0.0,44,0.00,,,0.00,VWS V14.01,2013-07-21 15:25:00,
2013-07-21 11:26:00,85.6,61.2,29.83,ENE,61,0.0,0.0,44,0.00,,,0.00,VWS V14.01,2013-07-21 15:26:00,
2013-07-21 11:27:00,85.6,61.2,29.83,NNE,20,0.0,0.0,44,0.00,,,0.00,VWS V14.01,2013-07-21 15:27:00,
2013-07-21 11:28:00,85.6,61.2,29.83,NW,323,4.0,4.0,44,0.00,,,0.00,VWS V14.01,2013-07-21 15:28:00,
2013-07-21 11:29:00,86.1,61.0,29.83,NW,323,4.0,4.0,43,0.00,,,0.00,VWS V14.01,2013-07-21 15:29:00,
2013-07-21 11:30:00,86.1,61.0,29.83,NW,324,0.0,4.0,43,0.00,,,0.00,VWS V14.01,2013-07-21 15:30:00,
2013-07-21 11:31:00,86.1,61.0,29.83,NW,324,0.0,0.0,43,0.00,,,0.00,VWS V14.01,2013-07-21 15:31:00,
2013-07-21 11:32:00,85.9,61.5,29.83,NE,45,0.0,0.0,44,0.00,,,0.00,VWS V14.01,2013-07-21 15:32:00,
2013-07-21 11:33:00,85.9,61.5,29.83,NE,45,0.0,0.0,44,0.00,,,0.00,VWS V14.01,2013-07-21 15:33:00,
2013-07-21 11:34:00,85.9,61.5,29.83,ENE,62,0.0,0.0,44,0.00,,,0.00,VWS V14.01,2013-07-21 15:34:00,
2013-07-21 11:35:00,86.1,61.7,29.83,ENE,63,0.0,0.0,44,0.00,,,0.00,VWS V14.01,2013-07-21 15:35:00,
2013-07-21 11:36:00,86.1,61.7,29.83,NNW,334,0.0,0.0,44,0.00,,,0.00,VWS V14.01,2013-07-21 15:36:00,
2013-07-21 11:37:00,86.1,61.7,29.83,NNE,33,4.9,4.9,44,0.00,,,0.00,VWS V14.01,2013-07-21 15:37:00,
2013-07-21 11:38:00,86.6,60.8,29.83,NNE,33,4.9,4.9,42,0.00,,,0.00,VWS V14.01,2013-07-21 15:38:00,
2013-07-21 11:39:00,86.6,60.8,29.83,SE,137,0.0,4.9,42,0.00,,,0.00,VWS V14.01,2013-07-21 15:39:00,
2013-07-21 11:40:00,86.8,61.0,29.83,SE,137,0.0,0.0,42,0.00,,,0.00,VWS V14.01,2013-07-21 15:40:00,
2013-07-21 11:41:00,86.6,61.5,29.83,North,353,0.0,0.0,43,0.00,,,0.00,VWS V14.01,2013-07-21 15:41:00,
2013-07-21 11:42:00,86.6,61.5,29.83,North,353,0.0,0.0,43,0.00,,,0.00,VWS V14.01,2013-07-21 15:42:00,
2013-07-21 11:43:00,86.6,61.5,29.83,North,353,0.0,0.0,43,0.00,,,0.00,VWS V14.01,2013-07-21 15:43:00,
2013-07-21 11:44:00,86.6,61.5,29.83,North,353,0.0,0.0,43,0.00,,,0.00,VWS V14.01,2013-07-21 15:44:00,
2013-07-21 11:45:00,86.8,61.7,29.83,ESE,107,0.0,0.0,43,0.00,,,0.00,VWS V14.01,2013-07-21 15:45:00,
2013-07-21 11:46:00,86.8,61.7,29.83,East,99,0.0,0.0,43,0.00,,,0.00,VWS V14.01,2013-07-21 15:46:00,
2013-07-21 11:47:00,86.8,61.7,29.83,South,183,0.0,0.0,43,0.00,,,0.00,VWS V14.01,2013-07-21 15:47:00,
2013-07-21 11:48:00,86.8,61.7,29.83,South,183,0.0,0.0,43,0.00,,,0.00,VWS V14.01,2013-07-21 15:48:00,
2013-07-21 11:49:00,86.8,61.7,29.83,ENE,71,0.0,0.0,43,0.00,,,0.00,VWS V14.01,2013-07-21 15:49:00,
2013-07-21 11:50:00,87.7,61.8,29.83,ENE,71,0.0,0.0,42,0.00,,,0.00,VWS V14.01,2013-07-21 15:50:00,
2013-07-21 11:51:00,87.9,62.0,29.83,WNW,284,0.0,0.0,42,0.00,,,0.00,VWS V14.01,2013-07-21 15:51:00,
2013-07-21 11:52:00,87.9,62.0,29.83,WNW,284,0.0,0.0,42,0.00,,,0.00,VWS V14.01,2013-07-21 15:52:00,
2013-07-21 11:53:00,87.7,60.4,29.83,West,279,2.2,2.2,40,0.00,,,0.00,VWS V14.01,2013-07-21 15:53:00,
2013-07-21 11:54:00,87.7,60.4,29.83,West,279,2.2,2.2,40,0.00,,,0.00,VWS V14.01,2013-07-21 15:54:00,
2013-07-21 11:55:00,87.4,60.1,29.83,West,279,0.0,2.2,40,0.00,,,0.00,VWS V14.01,2013-07-21 15:55:00,
2013-07-21 11:56:00,87.4,60.1,29.83,West,279,0.0,0.0,40,0.00,,,0.00,VWS V14.01,2013-07-21 15:56:00,
2013-07-21 11:57:00,87.0,60.5,29.83,WNW,286,0.0,0.0,41,0.00,,,0.00,VWS V14.01,2013-07-21 15:57:00,
2013-07-21 11:58:00,87.0,60.5,29.83,WNW,286,0.0,0.0,41,0.00,,,0.00,VWS V14.01,2013-07-21 15:58:00,
2013-07-21 11:59:00,87.0,60.5,29.83,WNW,286,0.0,0.0,41,0.00,,,0.00,VWS V14.01,2013-07-21 15:59:00,
2013-07-21 12:00:00,86.5,60.7,29.83,WNW,286,0.0,0.0,42,0.00,,,0.00,VWS V14.01,2013-07-21 16:00:00,
2013-07-21 12:01:00,86.5,60.7,29.83,WNW,286,0.0,0.0,42,0.00,,,0.00,VWS V14.01,2013-07-21 16:01:00,
2013-07-21 12:02:00,86.5,60.7,29.83,ENE,66,0.0,0.0,42,0.00,,,0.00,VWS V14.01,2013-07-21 16:02:00,
2013-07-21 12:03:00,86.5,60.7,29.83,NE,51,0.0,0.0,42,0.00,,,0.00,VWS V14.01,2013-07-21 16:03:00,
2013-07-21 12:04:00,86.6,61.5,29.83,NE,51,0.0,0.0,43,0.00,,,0.00,VWS V14.01,2013-07-21 16:04:00,
2013-07-21 12:05:00,86.8,61.7,29.83,NE,51,0.0,0.0,43,0.00,,,0.00,VWS V14.01,2013-07-21 16:05:00,
2013-07-21 12:06:00,86.8,61.7,29.83,NE,51,0.0,0.0,43,0.00,,,0.00,VWS V14.01,2013-07-21 16:06:00,
2013-07-21 12:07:00,87.4,61.5,29.83,NNW,334,0.0,0.0,42,0.00,,,0.00,VWS V14.01,2013-07-21 16:07:00,
2013-07-21 12:08:00,87.4,61.5,29.83,NNW,334,0.0,0.0,42,0.00,,,0.00,VWS V14.01,2013-07-21 16:08:00,
2013-07-21 12:09:00,87.9,62.0,29.83,NNW,334,0.0,0.0,42,0.00,,,0.00,VWS V14.01,2013-07-21 16:09:00,
2013-07-21 12:10:00,87.9,62.0,29.83,NNE,17,0.0,0.0,42,0.00,,,0.00,VWS V14.01,2013-07-21 16:10:00,
2013-07-21 12:11:00,88.3,61.6,29.83,NNE,17,0.0,0.0,41,0.00,,,0.00,VWS V14.01,2013-07-21 16:11:00,
2013-07-21 12:12:00,88.4,61.1,29.83,NNE,17,0.0,0.0,40,0.00,,,0.00,VWS V14.01,2013-07-21 16:12:00,
2013-07-21 12:13:00,88.4,61.1,29.83,North,10,0.0,0.0,40,0.00,,,0.00,VWS V14.01,2013-07-21 16:13:00,
2013-07-21 12:14:00,88.4,61.1,29.83,NNE,32,2.2,3.6,40,0.00,,,0.00,VWS V14.01,2013-07-21 16:14:00,
2013-07-21 12:15:00,88.4,61.1,29.83,NNE,32,2.2,2.2,40,0.00,,,0.00,VWS V14.01,2013-07-21 16:15:00,
2013-07-21 12:16:00,88.4,60.3,29.83,WNW,293,0.0,2.2,39,0.00,,,0.00,VWS V14.01,2013-07-21 16:16:00,
2013-07-21 12:17:00,88.4,60.3,29.83,SW,224,0.0,0.0,39,0.00,,,0.00,VWS V14.01,2013-07-21 16:17:00,
2013-07-21 12:18:00,88.4,60.3,29.83,SW,225,0.0,0.0,39,0.00,,,0.00,VWS V14.01,2013-07-21 16:18:00,
2013-07-21 12:19:00,88.4,60.3,29.83,SW,225,0.0,0.0,39,0.00,,,0.00,VWS V14.01,2013-07-21 16:19:00,
2013-07-21 12:20:00,88.4,60.3,29.83,NNW,337,0.0,0.0,39,0.00,,,0.00,VWS V14.01,2013-07-21 16:20:00,
2013-07-21 12:21:00,88.6,60.5,29.83,NNW,338,0.0,0.0,39,0.00,,,0.00,VWS V14.01,2013-07-21 16:21:00,
2013-07-21 12:22:00,88.6,60.5,29.83,NNW,338,0.0,0.0,39,0.00,,,0.00,VWS V14.01,2013-07-21 16:22:00,
2013-07-21 12:23:00,88.6,60.5,29.83,SE,139,0.0,0.0,39,0.00,,,0.00,VWS V14.01,2013-07-21 16:23:00,
2013-07-21 12:24:00,88.6,60.5,29.83,SE,139,0.0,0.0,39,0.00,,,0.00,VWS V14.01,2013-07-21 16:24:00,
2013-07-21 12:25:00,88.6,60.5,29.83,SE,139,0.0,0.0,39,0.00,,,0.00,VWS V14.01,2013-07-21 16:25:00,
2013-07-21 12:26:00,89.0,59.3,29.83,SE,139,0.0,0.0,37,0.00,,,0.00,VWS V14.01,2013-07-21 16:26:00,
2013-07-21 12:27:00,89.0,59.3,29.83,NW,305,0.0,0.0,37,0.00,,,0.00,VWS V14.01,2013-07-21 16:27:00,
2013-07-21 12:28:00,89.0,59.3,29.83,NW,324,0.0,0.0,37,0.00,,,0.00,VWS V14.01,2013-07-21 16:28:00,
2013-07-21 12:29:00,89.0,59.4,29.83,NW,324,0.0,0.0,37,0.00,,,0.00,VWS V14.01,2013-07-21 16:29:00,
2013-07-21 12:30:00,88.6,59.8,29.83,NW,324,0.0,0.0,38,0.00,,,0.00,VWS V14.01,2013-07-21 16:30:00,
2013-07-21 12:31:00,88.6,59.8,29.83,East,81,0.0,0.0,38,0.00,,,0.00,VWS V14.01,2013-07-21 16:31:00,
2013-07-21 12:32:00,88.6,59.8,29.83,East,81,0.0,0.0,38,0.00,,,0.00,VWS V14.01,2013-07-21 16:32:00,
2013-07-21 12:33:00,88.4,60.3,29.83,East,90,2.7,2.7,39,0.00,,,0.00,VWS V14.01,2013-07-21 16:33:00,
2013-07-21 12:34:00,88.4,60.3,29.83,NNE,32,5.4,5.4,39,0.00,,,0.00,VWS V14.01,2013-07-21 16:34:00,
2013-07-21 12:35:00,88.4,60.3,29.83,ENE,73,0.0,5.4,39,0.00,,,0.00,VWS V14.01,2013-07-21 16:35:00,
2013-07-21 12:36:00,88.4,60.3,29.83,NNE,17,2.7,3.1,39,0.00,,,0.00,VWS V14.01,2013-07-21 16:36:00,
2013-07-21 12:37:00,88.6,59.8,29.83,NNE,17,2.7,2.7,38,0.00,,,0.00,VWS V14.01,2013-07-21 16:37:00,
2013-07-21 12:38:00,88.6,59.8,29.83,NNE,21,4.0,4.0,38,0.00,,,0.00,VWS V14.01,2013-07-21 16:38:00,
2013-07-21 12:39:00,88.6,59.8,29.83,NNE,21,4.0,4.0,38,0.00,,,0.00,VWS V14.01,2013-07-21 16:39:00,
2013-07-21 12:40:00,88.6,59.8,29.83,NE,56,3.1,3.1,38,0.00,,,0.00,VWS V14.01,2013-07-21 16:40:00,
2013-07-21 12:41:00,88.6,59.8,29.83,NE,37,0.0,3.1,38,0.00,,,0.00,VWS V14.01,2013-07-21 16:41:00,
2013-07-21 12:42:00,88.1,58.6,29.83,NE,35,0.0,0.0,37,0.00,,,0.00,VWS V14.01,2013-07-21 16:42:00,
2013-07-21 12:43:00,88.1,58.6,29.83,NE,35,0.0,0.0,37,0.00,,,0.00,VWS V14.01,2013-07-21 16:43:00,
2013-07-21 12:44:00,88.1,58.6,29.83,NE,35,0.0,0.0,37,0.00,,,0.00,VWS V14.01,2013-07-21 16:44:00,
2013-07-21 12:45:00,88.1,58.6,29.83,North,10,0.0,0.0,37,0.00,,,0.00,VWS V14.01,2013-07-21 16:45:00,
2013-07-21 12:46:00,87.9,59.2,29.83,North,10,0.0,0.0,38,0.00,,,0.00,VWS V14.01,2013-07-21 16:46:00,
2013-07-21 12:47:00,87.9,59.2,29.83,NNW,328,2.7,2.7,38,0.00,,,0.00,VWS V14.01,2013-07-21 16:47:00,
2013-07-21 12:48:00,87.9,59.2,29.83,NNW,328,2.7,2.7,38,0.00,,,0.00,VWS V14.01,2013-07-21 16:48:00,
2013-07-21 12:49:00,88.1,59.3,29.83,ENE,74,2.7,2.7,38,0.00,,,0.00,VWS V14.01,2013-07-21 16:49:00,
2013-07-21 12:50:00,88.1,59.3,29.83,East,89,2.7,2.7,38,0.00,,,0.00,VWS V14.01,2013-07-21 16:50:00,
2013-07-21 12:51:00,88.1,59.3,29.83,East,89,2.7,2.7,38,0.00,,,0.00,VWS V14.01,2013-07-21 16:51:00,
2013-07-21 12:52:00,88.3,58.0,29.83,SSW,209,0.0,2.7,36,0.00,,,0.00,VWS V14.01,2013-07-21 16:52:00,
2013-07-21 12:53:00,88.3,58.0,29.83,NW,310,0.0,0.0,36,0.00,,,0.00,VWS V14.01,2013-07-21 16:53:00,
2013-07-21 12:54:00,88.3,58.0,29.83,North,7,2.7,2.7,36,0.00,,,0.00,VWS V14.01,2013-07-21 16:54:00,
2013-07-21 12:55:00,88.3,59.5,29.83,North,7,0.0,2.7,38,0.00,,,0.00,VWS V14.01,2013-07-21 16:55:00,
2013-07-21 12:56:00,88.3,59.5,29.83,North,353,0.0,5.8,38,0.00,,,0.00,VWS V14.01,2013-07-21 16:56:00,
2013-07-21 12:57:00,88.1,59.3,29.83,North,353,0.0,0.0,38,0.00,,,0.00,VWS V14.01,2013-07-21 16:57:00,
2013-07-21 12:58:00,88.1,59.3,29.83,North,353,0.0,0.0,38,0.00,,,0.00,VWS V14.01,2013-07-21 16:58:00,
2013-07-21 12:59:00,87.9,59.2,29.83,NNW,332,2.7,3.1,38,0.00,,,0.00,VWS V14.01,2013-07-21 16:59:00,
2013-07-21 13:00:00,87.7,59.0,29.83,NNW,344,3.6,3.6,38,0.00,,,0.00,VWS V14.01,2013-07-21 17:00:00,
2013-07-21 13:01:00,87.7,59.0,29.83,NNW,344,3.6,3.6,38,0.00,,,0.00,VWS V14.01,2013-07-21 17:01:00,
2013-07-21 13:02:00,87.7,59.0,29.83,NNW,344,3.6,3.6,38,0.00,,,0.00,VWS V14.01,2013-07-21 17:02:00,
2013-07-21 13:03:00,87.2,59.2,29.83,NE,40,2.2,3.6,39,0.00,,,0.00,VWS V14.01,2013-07-21 17:03:00,
2013-07-21 13:04:00,87.0,59.8,29.83,East,98,3.1,3.1,40,0.00,,,0.00,VWS V14.01,2013-07-21 17:04:00,
2013-07-21 13:05:00,87.0,59.8,29.83,NNE,21,4.0,4.0,40,0.00,,,0.00,VWS V14.01,2013-07-21 17:05:00,
2013-07-21 13:06:00,87.0,59.8,29.83,North,7,2.7,4.0,40,0.00,,,0.00,VWS V14.01,2013-07-21 17:06:00,
2013-07-21 13:07:00,86.8,58.9,29.83,NNE,31,4.0,4.0,39,0.00,,,0.00,VWS V14.01,2013-07-21 17:07:00,
2013-07-21 13:08:00,86.8,59.6,29.83,NE,56,2.2,4.0,40,0.00,,,0.00,VWS V14.01,2013-07-21 17:08:00,
2013-07-21 13:09:00,86.8,60.3,29.83,NE,56,4.0,4.0,41,0.00,,,0.00,VWS V14.01,2013-07-21 17:09:00,
2013-07-21 13:10:00,86.8,60.3,29.83,NNE,29,0.0,4.0,41,0.00,,,0.00,VWS V14.01,2013-07-21 17:10:00,
2013-07-21 13:11:00,86.8,60.3,29.83,NNE,29,0.0,0.0,41,0.00,,,0.00,VWS V14.01,2013-07-21 17:11:00,
2013-07-21 13:12:00,86.8,60.3,29.83,NNE,29,0.0,0.0,41,0.00,,,0.00,VWS V14.01,2013-07-21 17:12:00,
2013-07-21 13:14:00,87.0,59.1,29.83,NNE,29,0.0,0.0,39,0.00,,,0.00,VWS V14.01,2013-07-21 17:14:00,
2013-07-21 13:15:00,87.2,58.5,29.83,East,93,2.7,5.4,38,0.00,,,0.00,VWS V14.01,2013-07-21 17:15:00,
2013-07-21 13:16:00,87.2,58.5,29.83,ESE,110,3.1,3.1,38,0.00,,,0.00,VWS V14.01,2013-07-21 17:16:00,
2013-07-21 13:17:00,87.2,58.5,29.83,NE,46,5.4,5.4,38,0.00,,,0.00,VWS V14.01,2013-07-21 17:17:00,
2013-07-21 13:18:00,87.4,57.9,29.83,NE,46,5.4,5.4,37,0.00,,,0.00,VWS V14.01,2013-07-21 17:18:00,
2013-07-21 13:19:00,87.4,57.9,29.83,NE,46,5.4,5.4,37,0.00,,,0.00,VWS V14.01,2013-07-21 17:19:00,
2013-07-21 13:20:00,87.4,57.9,29.83,ENE,72,2.7,5.4,37,0.00,,,0.00,VWS V14.01,2013-07-21 17:20:00,
2013-07-21 13:21:00,87.5,57.3,29.83,NE,38,6.3,6.3,36,0.00,,,0.00,VWS V14.01,2013-07-21 17:21:00,
2013-07-21 13:22:00,87.5,57.3,29.83,NE,38,6.3,6.3,36,0.00,,,0.00,VWS V14.01,2013-07-21 17:22:00,
2013-07-21 13:23:00,87.7,57.5,29.83,NE,34,3.6,6.3,36,0.00,,,0.00,VWS V14.01,2013-07-21 17:23:00,
2013-07-21 13:24:00,87.7,57.5,29.83,NNE,29,0.0,0.0,36,0.00,,,0.00,VWS V14.01,2013-07-21 17:24:00,
2013-07-21 13:25:00,88.1,57.8,29.83,NNE,29,0.0,0.0,36,0.00,,,0.00,VWS V14.01,2013-07-21 17:25:00,
2013-07-21 13:26:00,88.1,57.8,29.83,NE,41,3.6,3.6,36,0.00,,,0.00,VWS V14.01,2013-07-21 17:26:00,
2013-07-21 13:27:00,88.1,57.8,29.83,NE,48,3.1,3.6,36,0.00,,,0.00,VWS V14.01,2013-07-21 17:27:00,
2013-07-21 13:28:00,88.1,57.8,29.83,NE,48,3.1,3.1,36,0.00,,,0.00,VWS V14.01,2013-07-21 17:28:00,
2013-07-21 13:29:00,88.3,57.2,29.83,NNE,19,5.4,5.4,35,0.00,,,0.00,VWS V14.01,2013-07-21 17:29:00,
2013-07-21 13:30:00,88.3,57.2,29.83,NNE,19,5.4,5.4,35,0.00,,,0.00,VWS V14.01,2013-07-21 17:30:00,
2013-07-21 13:31:00,88.3,57.2,29.83,NNE,22,0.0,5.4,35,0.00,,,0.00,VWS V14.01,2013-07-21 17:31:00,
2013-07-21 13:32:00,88.3,57.2,29.83,NNE,22,0.0,0.0,35,0.00,,,0.00,VWS V14.01,2013-07-21 17:32:00,
2013-07-21 13:33:00,88.4,57.3,29.83,South,177,2.2,2.2,35,0.00,,,0.00,VWS V14.01,2013-07-21 17:33:00,
2013-07-21 13:34:00,88.4,57.3,29.83,South,177,0.0,0.0,35,0.00,,,0.00,VWS V14.01,2013-07-21 17:34:00,
2013-07-21 13:35:00,88.4,57.3,29.83,ESE,114,0.0,0.0,35,0.00,,,0.00,VWS V14.01,2013-07-21 17:35:00,
2013-07-21 13:36:00,88.8,56.8,29.83,NNW,329,3.6,3.6,34,0.00,,,0.00,VWS V14.01,2013-07-21 17:36:00,
2013-07-21 13:37:00,88.8,56.8,29.83,ENE,65,2.7,3.6,34,0.00,,,0.00,VWS V14.01,2013-07-21 17:37:00,
2013-07-21 13:38:00,89.0,57.0,29.83,ENE,78,2.2,2.7,34,0.00,,,0.00,VWS V14.01,2013-07-21 17:38:00,
2013-07-21 13:39:00,89.0,57.0,29.83,ENE,70,0.0,2.2,34,0.00,,,0.00,VWS V14.01,2013-07-21 17:39:00,
2013-07-21 13:40:00,89.0,57.0,29.83,ENE,70,0.0,2.2,34,0.00,,,0.00,VWS V14.01,2013-07-21 17:40:00,
2013-07-21 13:41:00,89.2,57.2,29.83,ENE,57,0.0,0.0,34,0.00,,,0.00,VWS V14.01,2013-07-21 17:41:00,
2013-07-21 13:42:00,89.2,57.2,29.83,East,79,4.0,4.0,34,0.00,,,0.00,VWS V14.01,2013-07-21 17:42:00,
2013-07-21 13:43:00,89.2,57.2,29.83,North,9,2.7,4.0,34,0.00,,,0.00,VWS V14.01,2013-07-21 17:43:00,
2013-07-21 13:44:00,88.8,56.0,29.83,North,9,2.7,2.7,33,0.00,,,0.00,VWS V14.01,2013-07-21 17:44:00,
2013-07-21 13:45:00,88.8,56.0,29.83,ENE,60,0.0,2.7,33,0.00,,,0.00,VWS V14.01,2013-07-21 17:45:00,
2013-07-21 13:46:00,88.8,56.0,29.83,ENE,60,0.0,0.0,33,0.00,,,0.00,VWS V14.01,2013-07-21 17:46:00,
2013-07-21 13:47:00,88.4,55.7,29.83,NE,52,3.6,3.6,33,0.00,,,0.00,VWS V14.01,2013-07-21 17:47:00,
2013-07-21 13:48:00,88.4,55.7,29.83,ENE,57,5.4,5.4,33,0.00,,,0.00,VWS V14.01,2013-07-21 17:48:00,
2013-07-21 13:49:00,88.4,55.7,29.83,ENE,73,3.1,3.1,33,0.00,,,0.00,VWS V14.01,2013-07-21 17:49:00,
2013-07-21 13:50:00,88.4,55.7,29.83,North,10,2.7,3.1,33,0.00,,,0.00,VWS V14.01,2013-07-21 17:50:00,
2013-07-21 13:51:00,88.3,55.5,29.83,North,10,2.7,2.7,33,0.00,,,0.00,VWS V14.01,2013-07-21 17:51:00,
2013-07-21 13:52:00,88.3,55.5,29.83,NE,54,4.0,4.0,33,0.00,,,0.00,VWS V14.01,2013-07-21 17:52:00,
2013-07-21 13:53:00,88.3,55.5,29.83,NE,54,3.1,4.0,33,0.00,,,0.00,VWS V14.01,2013-07-21 17:53:00,
2013-07-21 13:54:00,88.4,55.7,29.83,NE,54,3.1,3.1,33,0.00,,,0.00,VWS V14.01,2013-07-21 17:54:00,
2013-07-21 13:55:00,88.4,55.7,29.83,NNE,25,4.9,4.9,33,0.00,,,0.00,VWS V14.01,2013-07-21 17:55:00,
2013-07-21 13:56:00,88.3,55.5,29.83,ENE,60,5.4,5.4,33,0.00,,,0.00,VWS V14.01,2013-07-21 17:56:00,
2013-07-21 13:57:00,88.3,55.5,29.83,East,80,3.1,5.4,33,0.00,,,0.00,VWS V14.01,2013-07-21 17:57:00,
2013-07-21 13:58:00,88.3,55.5,29.83,East,80,3.1,3.1,33,0.00,,,0.00,VWS V14.01,2013-07-21 17:58:00,
2013-07-21 13:59:00,88.3,54.7,29.83,East,84,5.4,5.4,32,0.00,,,0.00,VWS V14.01,2013-07-21 17:59:00,
2013-07-21 14:00:00,88.3,54.7,29.83,East,84,5.4,5.4,32,0.00,,,0.00,VWS V14.01,2013-07-21 18:00:00,
2013-07-21 14:01:00,88.3,54.7,29.83,East,84,5.4,5.4,32,0.00,,,0.00,VWS V14.01,2013-07-21 18:01:00,
2013-07-21 14:02:00,88.1,54.5,29.83,NE,39,7.6,8.1,32,0.00,,,0.00,VWS V14.01,2013-07-21 18:02:00,
2013-07-21 14:03:00,88.1,54.5,29.83,NNE,30,2.7,7.6,32,0.00,,,0.00,VWS V14.01,2013-07-21 18:03:00,
2013-07-21 14:04:00,87.9,55.2,29.83,NNE,30,2.7,2.7,33,0.00,,,0.00,VWS V14.01,2013-07-21 18:04:00,
2013-07-21 14:05:00,87.9,55.2,29.83,NNE,30,2.7,2.7,33,0.00,,,0.00,VWS V14.01,2013-07-21 18:05:00,
2013-07-21 14:06:00,87.9,54.4,29.83,NE,44,2.2,2.7,32,0.00,,,0.00,VWS V14.01,2013-07-21 18:06:00,
2013-07-21 14:07:00,87.9,54.4,29.83,NE,44,2.2,2.2,32,0.00,,,0.00,VWS V14.01,2013-07-21 18:07:00,
2013-07-21 14:08:00,87.9,54.4,29.83,NE,39,0.0,2.2,32,0.00,,,0.00,VWS V14.01,2013-07-21 18:08:00,
2013-07-21 14:09:00,87.9,54.4,29.83,NNE,28,7.6,7.6,32,0.00,,,0.00,VWS V14.01,2013-07-21 18:09:00,
2013-07-21 14:10:00,87.9,55.2,29.83,NE,47,4.0,7.6,33,0.00,,,0.00,VWS V14.01,2013-07-21 18:10:00,
2013-07-21 14:11:00,87.9,55.2,29.83,NE,47,4.0,4.0,33,0.00,,,0.00,VWS V14.01,2013-07-21 18:11:00,
2013-07-21 14:12:00,87.9,55.2,29.83,NNE,13,2.2,4.0,33,0.00,,,0.00,VWS V14.01,2013-07-21 18:12:00,
2013-07-21 14:13:00,87.9,55.2,29.83,NW,319,0.0,2.2,33,0.00,,,0.00,VWS V14.01,2013-07-21 18:13:00,
2013-07-21 14:14:00,87.9,55.2,29.83,NE,38,0.0,0.0,33,0.00,,,0.00,VWS V14.01,2013-07-21 18:14:00,
2013-07-21 14:15:00,88.1,54.5,29.83,ENE,69,4.9,4.9,32,0.00,,,0.00,VWS V14.01,2013-07-21 18:15:00,
2013-07-21 14:16:00,88.1,55.4,29.83,ESE,102,4.9,4.9,33,0.00,,,0.00,VWS V14.01,2013-07-21 18:16:00,
2013-07-21 14:17:00,88.1,54.5,29.83,ESE,102,4.9,4.9,32,0.00,,,0.00,VWS V14.01,2013-07-21 18:17:00,
2013-07-21 14:18:00,88.1,54.5,29.83,NE,53,5.8,5.8,32,0.00,,,0.00,VWS V14.01,2013-07-21 18:18:00,
2013-07-21 14:19:00,88.1,54.5,29.83,NE,53,5.8,5.8,32,0.00,,,0.00,VWS V14.01,2013-07-21 18:19:00,
2013-07-21 14:20:00,88.1,54.5,29.83,North,7,3.1,5.8,32,0.00,,,0.00,VWS V14.01,2013-07-21 18:20:00,
2013-07-21 14:21:00,88.3,54.7,29.83,NNE,29,3.6,3.6,32,0.00,,,0.00,VWS V14.01,2013-07-21 18:21:00,
2013-07-21 14:22:00,88.3,54.7,29.83,NNE,29,3.6,3.6,32,0.00,,,0.00,VWS V14.01,2013-07-21 18:22:00,
2013-07-21 14:23:00,88.3,54.7,29.83,ENE,63,3.6,6.3,32,0.00,,,0.00,VWS V14.01,2013-07-21 18:23:00,
2013-07-21 14:24:00,88.3,54.7,29.83,ENE,63,3.6,3.6,32,0.00,,,0.00,VWS V14.01,2013-07-21 18:24:00,
2013-07-21 14:25:00,88.1,52.8,29.83,ENE,63,3.6,3.6,30,0.00,,,0.00,VWS V14.01,2013-07-21 18:25:00,
2013-07-21 14:26:00,88.1,53.7,29.83,NE,39,3.1,3.6,31,0.00,,,0.00,VWS V14.01,2013-07-21 18:26:00,
2013-07-21 14:27:00,88.1,53.7,29.83,East,99,3.1,4.0,31,0.00,,,0.00,VWS V14.01,2013-07-21 18:27:00,
2013-07-21 14:28:00,88.1,53.7,29.83,NE,55,4.0,4.0,31,0.00,,,0.00,VWS V14.01,2013-07-21 18:28:00,
2013-07-21 14:29:00,87.7,53.4,29.83,ENE,73,5.4,5.4,31,0.00,,,0.00,VWS V14.01,2013-07-21 18:29:00,
2013-07-21 14:30:00,87.5,53.2,29.83,ENE,73,4.9,5.4,31,0.00,,,0.00,VWS V14.01,2013-07-21 18:30:00,
2013-07-21 14:31:00,87.5,53.2,29.83,ENE,73,4.9,4.9,31,0.00,,,0.00,VWS V14.01,2013-07-21 18:31:00,
2013-07-21 14:32:00,87.4,53.0,29.83,ENE,60,3.6,4.9,31,0.00,,,0.00,VWS V14.01,2013-07-21 18:32:00,
2013-07-21 14:33:00,87.4,53.0,29.83,ENE,61,4.0,4.0,31,0.00,,,0.00,VWS V14.01,2013-07-21 18:33:00,
2013-07-21 14:34:00,87.4,53.0,29.83,NE,38,3.1,4.0,31,0.00,,,0.00,VWS V14.01,2013-07-21 18:34:00,
2013-07-21 14:35:00,87.4,53.0,29.83,NE,38,3.1,3.1,31,0.00,,,0.00,VWS V14.01,2013-07-21 18:35:00,
2013-07-21 14:36:00,86.8,53.5,29.83,ENE,66,2.7,3.1,32,0.00,,,0.00,VWS V14.01,2013-07-21 18:36:00,
2013-07-21 14:37:00,86.8,53.5,29.83,NNE,26,4.0,4.0,32,0.00,,,0.00,VWS V14.01,2013-07-21 18:37:00,
2013-07-21 14:38:00,86.8,53.5,29.83,NNE,26,4.0,4.0,32,0.00,,,0.00,VWS V14.01,2013-07-21 18:38:00,
2013-07-21 14:39:00,86.6,53.3,29.83,ENE,72,5.4,5.4,32,0.00,,,0.00,VWS V14.01,2013-07-21 18:39:00,
2013-07-21 14:40:00,86.6,53.3,29.83,ENE,72,5.4,5.4,32,0.00,,,0.00,VWS V14.01,2013-07-21 18:40:00,
2013-07-21 14:41:00,86.6,53.3,29.83,NE,37,2.7,5.4,32,0.00,,,0.00,VWS V14.01,2013-07-21 18:41:00,
2013-07-21 14:42:00,86.6,53.3,29.83,ENE,60,2.2,2.7,32,0.00,,,0.00,VWS V14.01,2013-07-21 18:42:00,
2013-07-21 14:43:00,86.5,54.0,29.83,ENE,65,0.0,2.2,33,0.00,,,0.00,VWS V14.01,2013-07-21 18:43:00,
2013-07-21 14:44:00,86.5,54.0,29.83,NE,43,3.6,3.6,33,0.00,,,0.00,VWS V14.01,2013-07-21 18:44:00,
2013-07-21 14:45:00,86.6,54.1,29.83,NNE,26,0.0,3.6,33,0.00,,,0.00,VWS V14.01,2013-07-21 18:45:00,
2013-07-21 14:46:00,86.6,54.1,29.83,NNE,26,0.0,0.0,33,0.00,,,0.00,VWS V14.01,2013-07-21 18:46:00,
2013-07-21 14:47:00,86.6,54.1,29.83,NNE,26,0.0,0.0,33,0.00,,,0.00,VWS V14.01,2013-07-21 18:47:00,
2013-07-21 14:48:00,86.6,53.3,29.83,NE,46,4.9,4.9,32,0.00,,,0.00,VWS V14.01,2013-07-21 18:48:00,
2013-07-21 14:49:00,86.6,53.3,29.83,NNE,15,3.6,4.9,32,0.00,,,0.00,VWS V14.01,2013-07-21 18:49:00,
2013-07-21 14:50:00,86.6,53.3,29.83,NNE,12,4.0,4.0,32,0.00,,,0.00,VWS V14.01,2013-07-21 18:50:00,
2013-07-21 14:51:00,86.5,53.1,29.83,East,80,4.0,4.0,32,0.00,,,0.00,VWS V14.01,2013-07-21 18:51:00,
2013-07-21 14:52:00,86.5,53.1,29.83,SSE,164,4.0,4.0,32,0.00,,,0.00,VWS V14.01,2013-07-21 18:52:00,
2013-07-21 14:53:00,86.5,53.1,29.83,NE,45,4.0,4.0,32,0.00,,,0.00,VWS V14.01,2013-07-21 18:53:00,
2013-07-21 14:54:00,86.5,53.1,29.83,NNE,23,4.0,4.0,32,0.00,,,0.00,VWS V14.01,2013-07-21 18:54:00,
2013-07-21 14:55:00,86.5,53.1,29.83,NE,51,2.7,2.7,32,0.00,,,0.00,VWS V14.01,2013-07-21 18:55:00,
2013-07-21 14:56:00,86.6,53.3,29.83,ENE,62,5.4,5.4,32,0.00,,,0.00,VWS V14.01,2013-07-21 18:56:00,
2013-07-21 14:57:00,86.6,53.3,29.83,ENE,62,5.4,5.4,32,0.00,,,0.00,VWS V14.01,2013-07-21 18:57:00,
2013-07-21 14:58:00,86.8,53.5,29.83,East,81,4.0,5.4,32,0.00,,,0.00,VWS V14.01,2013-07-21 18:58:00,
2013-07-21 14:59:00,86.8,53.5,29.83,ENE,66,3.6,4.0,32,0.00,,,0.00,VWS V14.01,2013-07-21 18:59:00,
2013-07-21 15:00:00,86.8,53.5,29.83,ESE,112,0.0,0.0,32,0.00,,,0.00,VWS V14.01,2013-07-21 19:00:00,
2013-07-21 15:01:00,86.8,53.5,29.83,ESE,112,0.0,0.0,32,0.00,,,0.00,VWS V14.01,2013-07-21 19:01:00,
2013-07-21 15:02:00,87.2,53.8,29.83,NNE,21,4.9,4.9,32,0.00,,,0.00,VWS V14.01,2013-07-21 19:02:00,
2013-07-21 15:03:00,87.2,53.8,29.83,NE,42,5.8,5.8,32,0.00,,,0.00,VWS V14.01,2013-07-21 19:03:00,
2013-07-21 15:04:00,87.2,53.8,29.83,NE,56,5.4,5.8,32,0.00,,,0.00,VWS V14.01,2013-07-21 19:04:00,
2013-07-21 15:05:00,87.2,53.8,29.83,NNE,13,3.1,3.1,32,0.00,,,0.00,VWS V14.01,2013-07-21 19:05:00,
2013-07-21 15:06:00,87.5,52.3,29.83,NNE,13,3.1,3.1,30,0.00,,,0.00,VWS V14.01,2013-07-21 19:06:00,
2013-07-21 15:07:00,87.5,52.3,29.83,East,89,5.4,5.4,30,0.00,,,0.00,VWS V14.01,2013-07-21 19:07:00,
2013-07-21 15:08:00,87.5,52.3,29.83,NE,39,4.9,5.4,30,0.00,,,0.00,VWS V14.01,2013-07-21 19:08:00,
2013-07-21 15:09:00,87.5,52.3,29.83,NNE,33,3.1,4.9,30,0.00,,,0.00,VWS V14.01,2013-07-21 19:09:00,
2013-07-21 15:10:00,87.5,52.3,29.83,ENE,60,3.6,3.6,30,0.00,,,0.00,VWS V14.01,2013-07-21 19:10:00,
2013-07-21 15:11:00,87.5,52.3,29.83,ENE,60,3.6,3.6,30,0.00,,,0.00,VWS V14.01,2013-07-21 19:11:00,
2013-07-21 15:12:00,87.7,51.5,29.83,East,81,3.1,3.6,29,0.00,,,0.00,VWS V14.01,2013-07-21 19:12:00,
2013-07-21 15:13:00,87.7,51.5,29.83,East,81,3.1,3.1,29,0.00,,,0.00,VWS V14.01,2013-07-21 19:13:00,
2013-07-21 15:14:00,87.7,52.5,29.83,East,81,3.1,3.1,30,0.00,,,0.00,VWS V14.01,2013-07-21 19:14:00,
2013-07-21 15:15:00,87.7,52.5,29.83,NNE,31,2.7,2.7,30,0.00,,,0.00,VWS V14.01,2013-07-21 19:15:00,
2013-07-21 15:16:00,87.7,52.5,29.83,NNE,30,6.3,6.3,30,0.00,,,0.00,VWS V14.01,2013-07-21 19:16:00,
2013-07-21 15:17:00,87.7,51.5,29.83,NNE,30,6.3,6.3,29,0.00,,,0.00,VWS V14.01,2013-07-21 19:17:00,
2013-07-21 15:18:00,87.7,51.5,29.83,SW,220,2.2,6.3,29,0.00,,,0.00,VWS V14.01,2013-07-21 19:18:00,
2013-07-21 15:19:00,87.7,51.5,29.83,ENE,58,3.6,3.6,29,0.00,,,0.00,VWS V14.01,2013-07-21 19:19:00,
2013-07-21 15:20:00,87.7,51.5,29.83,ENE,58,4.0,4.0,29,0.00,,,0.00,VWS V14.01,2013-07-21 19:20:00,
2013-07-21 15:21:00,87.7,51.5,29.83,ENE,58,4.0,4.0,29,0.00,,,0.00,VWS V14.01,2013-07-21 19:21:00,
2013-07-21 15:22:00,87.0,50.9,29.83,NNW,341,3.6,4.0,29,0.00,,,0.00,VWS V14.01,2013-07-21 19:22:00,
2013-07-21 15:23:00,87.0,50.9,29.83,East,79,3.1,3.6,29,0.00,,,0.00,VWS V14.01,2013-07-21 19:23:00,
2013-07-21 15:24:00,86.8,51.7,29.83,East,79,3.1,3.1,30,0.00,,,0.00,VWS V14.01,2013-07-21 19:24:00,
2013-07-21 15:25:00,86.6,51.5,29.83,NE,40,2.7,2.7,30,0.00,,,0.00,VWS V14.01,2013-07-21 19:25:00,
2013-07-21 15:26:00,86.6,51.5,29.83,NNE,33,3.1,3.1,30,0.00,,,0.00,VWS V14.01,2013-07-21 19:26:00,
2013-07-21 15:27:00,86.5,52.3,29.83,NE,39,0.0,3.1,31,0.00,,,0.00,VWS V14.01,2013-07-21 19:27:00,
2013-07-21 15:28:00,86.5,53.1,29.83,NE,39,0.0,0.0,32,0.00,,,0.00,VWS V14.01,2013-07-21 19:28:00,
2013-07-21 15:29:00,86.5,53.1,29.83,NE,39,0.0,0.0,32,0.00,,,0.00,VWS V14.01,2013-07-21 19:29:00,
2013-07-21 15:30:00,86.5,54.0,29.83,ENE,73,0.0,0.0,33,0.00,,,0.00,VWS V14.01,2013-07-21 19:30:00,
2013-07-21 15:31:00,86.5,54.0,29.83,ENE,73,0.0,0.0,33,0.00,,,0.00,VWS V14.01,2013-07-21 19:31:00,
2013-07-21 15:32:00,86.5,54.0,29.83,ENE,59,2.7,2.7,33,0.00,,,0.00,VWS V14.01,2013-07-21 19:32:00,
2013-07-21 15:33:00,86.5,54.0,29.83,East,97,2.2,2.7,33,0.00,,,0.00,VWS V14.01,2013-07-21 19:33:00,
2013-07-21 15:34:00,86.5,54.0,29.83,NNE,33,2.7,2.7,33,0.00,,,0.00,VWS V14.01,2013-07-21 19:34:00,
2013-07-21 15:35:00,86.5,54.0,29.83,NE,41,4.9,4.9,33,0.00,,,0.00,VWS V14.01,2013-07-21 19:35:00,
2013-07-21 15:36:00,86.5,54.0,29.83,NE,41,4.9,4.9,33,0.00,,,0.00,VWS V14.01,2013-07-21 19:36:00,
2013-07-21 15:37:00,86.5,54.0,29.83,ENE,78,3.6,4.9,33,0.00,,,0.00,VWS V14.01,2013-07-21 19:37:00,
2013-07-21 15:38:00,86.3,54.6,29.83,NNE,30,4.5,4.5,34,0.00,,,0.00,VWS V14.01,2013-07-21 19:38:00,
2013-07-21 15:39:00,86.3,54.6,29.83,NNE,30,4.5,4.5,34,0.00,,,0.00,VWS V14.01,2013-07-21 19:39:00,
2013-07-21 15:40:00,86.3,53.8,29.83,North,8,3.1,6.3,33,0.00,,,0.00,VWS V14.01,2013-07-21 19:40:00,
2013-07-21 15:41:00,86.3,53.8,29.83,North,8,3.1,6.3,33,0.00,,,0.00,VWS V14.01,2013-07-21 19:41:00,
2013-07-21 15:42:00,86.3,53.8,29.83,North,8,3.1,3.1,33,0.00,,,0.00,VWS V14.01,2013-07-21 19:42:00,
2013-07-21 15:43:00,86.1,54.5,29.83,NW,318,3.6,3.6,34,0.00,,,0.00,VWS V14.01,2013-07-21 19:43:00,
2013-07-21 15:44:00,86.1,54.5,29.83,NE,44,5.4,5.4,34,0.00,,,0.00,VWS V14.01,2013-07-21 19:44:00,
2013-07-21 15:45:00,86.1,55.3,29.83,NNE,24,5.4,5.4,35,0.00,,,0.00,VWS V14.01,2013-07-21 19:45:00,
2013-07-21 15:46:00,86.1,55.3,29.83,NNE,24,5.4,5.4,35,0.00,,,0.00,VWS V14.01,2013-07-21 19:46:00,
2013-07-21 15:47:00,86.1,55.3,29.83,NE,49,3.1,5.4,35,0.00,,,0.00,VWS V14.01,2013-07-21 19:47:00,
2013-07-21 15:48:00,85.7,55.7,29.83,NE,49,3.1,3.1,36,0.00,,,0.00,VWS V14.01,2013-07-21 19:48:00,
2013-07-21 15:49:00,85.7,55.7,29.83,East,101,3.6,4.9,36,0.00,,,0.00,VWS V14.01,2013-07-21 19:49:00,
2013-07-21 15:50:00,85.7,56.5,29.83,East,101,3.6,3.6,37,0.00,,,0.00,VWS V14.01,2013-07-21 19:50:00,
2013-07-21 15:51:00,85.7,57.2,29.83,NW,314,0.0,3.6,38,0.00,,,0.00,VWS V14.01,2013-07-21 19:51:00,
2013-07-21 15:52:00,85.7,57.2,29.83,NW,314,0.0,0.0,38,0.00,,,0.00,VWS V14.01,2013-07-21 19:52:00,
2013-07-21 15:53:00,85.7,57.2,29.83,NW,314,0.0,0.0,38,0.00,,,0.00,VWS V14.01,2013-07-21 19:53:00,
2013-07-21 15:54:00,85.7,58.0,29.83,NW,307,0.0,0.0,39,0.00,,,0.00,VWS V14.01,2013-07-21 19:54:00,
2013-07-21 15:55:00,85.7,58.0,29.83,NW,307,0.0,0.0,39,0.00,,,0.00,VWS V14.01,2013-07-21 19:55:00,
2013-07-21 15:56:00,85.7,58.0,29.83,NNE,32,3.1,3.1,39,0.00,,,0.00,VWS V14.01,2013-07-21 19:56:00,
2013-07-21 15:57:00,85.7,58.0,29.83,NNE,32,3.1,3.1,39,0.00,,,0.00,VWS V14.01,2013-07-21 19:57:00,
2013-07-21 15:58:00,85.7,58.0,29.83,NNE,17,5.4,5.4,39,0.00,,,0.00,VWS V14.01,2013-07-21 19:58:00,
2013-07-21 15:59:00,85.7,58.0,29.83,NNE,17,5.4,5.4,39,0.00,,,0.00,VWS V14.01,2013-07-21 19:59:00,
2013-07-21 16:00:00,85.6,57.1,29.83,North,11,3.6,5.4,38,0.00,,,0.00,VWS V14.01,2013-07-21 20:00:00,
2013-07-21 16:01:00,85.6,57.1,29.83,ENE,65,2.7,5.4,38,0.00,,,0.00,VWS V14.01,2013-07-21 20:01:00,
2013-07-21 16:02:00,85.6,57.1,29.83,ENE,60,4.0,4.0,38,0.00,,,0.00,VWS V14.01,2013-07-21 20:02:00,
2013-07-21 16:03:00,85.4,56.9,29.83,NNE,31,5.4,5.4,38,0.00,,,0.00,VWS V14.01,2013-07-21 20:03:00,
2013-07-21 16:04:00,85.2,57.5,29.83,NNE,31,5.4,5.4,39,0.00,,,0.00,VWS V14.01,2013-07-21 20:04:00,
2013-07-21 16:05:00,85.2,58.2,29.83,NE,46,3.6,3.6,40,0.00,,,0.00,VWS V14.01,2013-07-21 20:05:00,
2013-07-21 16:06:00,85.2,58.2,29.83,NE,46,3.6,3.6,40,0.00,,,0.00,VWS V14.01,2013-07-21 20:06:00,
2013-07-21 16:07:00,85.2,58.2,29.83,NE,56,3.6,3.6,40,0.00,,,0.00,VWS V14.01,2013-07-21 20:07:00,
2013-07-21 16:08:00,85.2,58.2,29.83,North,8,2.7,3.6,40,0.00,,,0.00,VWS V14.01,2013-07-21 20:08:00,
2013-07-21 16:09:00,85.0,58.7,29.83,NE,46,3.6,3.6,41,0.00,,,0.00,VWS V14.01,2013-07-21 20:09:00,
2013-07-21 16:10:00,85.0,58.7,29.83,NNE,25,2.7,4.0,41,0.00,,,0.00,VWS V14.01,2013-07-21 20:10:00,
2013-07-21 16:11:00,85.0,58.7,29.83,NNE,25,2.7,4.0,41,0.00,,,0.00,VWS V14.01,2013-07-21 20:11:00,
2013-07-21 16:12:00,84.8,59.9,29.83,ESE,116,0.0,2.7,43,0.00,,,0.00,VWS V14.01,2013-07-21 20:12:00,
2013-07-21 16:13:00,84.8,59.9,29.83,ESE,109,0.0,0.0,43,0.00,,,0.00,VWS V14.01,2013-07-21 20:13:00,
2013-07-21 16:14:00,84.7,59.7,29.83,SSE,152,2.7,2.7,43,0.00,,,0.00,VWS V14.01,2013-07-21 20:14:00,
2013-07-21 16:15:00,84.5,60.2,29.83,SSE,168,4.0,4.9,44,0.00,,,0.00,VWS V14.01,2013-07-21 20:15:00,
2013-07-21 16:16:00,84.5,60.2,29.83,SSE,168,4.0,4.9,44,0.00,,,0.00,VWS V14.01,2013-07-21 20:16:00,
2013-07-21 16:17:00,84.5,60.2,29.83,ENE,70,0.0,4.0,44,0.00,,,0.00,VWS V14.01,2013-07-21 20:17:00,
2013-07-21 16:18:00,84.5,60.2,29.83,East,98,4.0,4.0,44,0.00,,,0.00,VWS V14.01,2013-07-21 20:18:00,
2013-07-21 16:19:00,84.5,60.2,29.83,ENE,71,0.0,4.0,44,0.00,,,0.00,VWS V14.01,2013-07-21 20:19:00,
2013-07-21 16:20:00,83.9,60.3,29.83,ENE,71,0.0,0.0,45,0.00,,,0.00,VWS V14.01,2013-07-21 20:20:00,
2013-07-21 16:21:00,83.9,60.3,29.83,ENE,71,0.0,0.0,45,0.00,,,0.00,VWS V14.01,2013-07-21 20:21:00,
2013-07-21 16:22:00,83.8,60.2,29.83,ENE,64,2.7,2.7,45,0.00,,,0.00,VWS V14.01,2013-07-21 20:22:00,
2013-07-21 16:23:00,83.6,60.0,29.83,NE,50,2.7,2.7,45,0.00,,,0.00,VWS V14.01,2013-07-21 20:23:00,
2013-07-21 16:24:00,83.6,60.0,29.83,ENE,64,0.0,2.7,45,0.00,,,0.00,VWS V14.01,2013-07-21 20:24:00,
2013-07-21 16:25:00,83.6,60.0,29.83,ENE,64,0.0,0.0,45,0.00,,,0.00,VWS V14.01,2013-07-21 20:25:00,
2013-07-21 16:26:00,83.6,60.0,29.83,SW,216,0.0,0.0,45,0.00,,,0.00,VWS V14.01,2013-07-21 20:26:00,
2013-07-21 16:27:00,83.2,60.3,29.83,NE,51,0.0,0.0,46,0.00,,,0.00,VWS V14.01,2013-07-21 20:27:00,
2013-07-21 16:28:00,83.0,60.2,29.83,East,79,3.1,3.1,46,0.00,,,0.00,VWS V14.01,2013-07-21 20:28:00,
2013-07-21 16:29:00,83.0,60.2,29.83,SE,128,2.7,3.1,46,0.00,,,0.00,VWS V14.01,2013-07-21 20:29:00,
2013-07-21 16:30:00,82.9,60.6,29.83,SE,128,2.7,2.7,47,0.00,,,0.00,VWS V14.01,2013-07-21 20:30:00,
2013-07-21 16:31:00,82.7,61.0,29.83,SE,128,2.7,2.7,48,0.00,,,0.00,VWS V14.01,2013-07-21 20:31:00,
2013-07-21 16:32:00,82.7,61.0,29.83,South,171,0.0,2.7,48,0.00,,,0.00,VWS V14.01,2013-07-21 20:32:00,
2013-07-21 16:33:00,82.7,61.0,29.83,South,171,0.0,0.0,48,0.00,,,0.00,VWS V14.01,2013-07-21 20:33:00,
2013-07-21 16:34:00,82.7,61.0,29.83,South,171,0.0,0.0,48,0.00,,,0.00,VWS V14.01,2013-07-21 20:34:00,
2013-07-21 16:35:00,82.5,60.8,29.83,South,171,0.0,0.0,48,0.00,,,0.00,VWS V14.01,2013-07-21 20:35:00,
2013-07-21 16:36:00,82.5,60.8,29.83,ENE,64,2.7,3.6,48,0.00,,,0.00,VWS V14.01,2013-07-21 20:36:00,
2013-07-21 16:37:00,82.5,60.8,29.83,ENE,64,2.7,2.7,48,0.00,,,0.00,VWS V14.01,2013-07-21 20:37:00,
2013-07-21 16:38:00,82.5,60.8,29.83,NE,39,0.0,2.7,48,0.00,,,0.00,VWS V14.01,2013-07-21 20:38:00,
2013-07-21 16:39:00,82.5,60.8,29.83,NE,39,0.0,0.0,48,0.00,,,0.00,VWS V14.01,2013-07-21 20:39:00,
2013-07-21 16:40:00,81.8,61.3,29.83,NE,35,0.0,0.0,50,0.00,,,0.00,VWS V14.01,2013-07-21 20:40:00,
2013-07-21 16:41:00,81.8,61.3,29.83,NE,35,0.0,0.0,50,0.00,,,0.00,VWS V14.01,2013-07-21 20:41:00,
2013-07-21 16:42:00,81.6,61.2,29.83,ENE,67,2.7,2.7,50,0.00,,,0.00,VWS V14.01,2013-07-21 20:42:00,
2013-07-21 16:43:00,81.6,61.2,29.83,WSW,254,0.0,2.7,50,0.00,,,0.00,VWS V14.01,2013-07-21 20:43:00,
2013-07-21 16:44:00,81.6,61.2,29.83,WSW,254,0.0,0.0,50,0.00,,,0.00,VWS V14.01,2013-07-21 20:44:00,
2013-07-21 16:45:00,81.4,61.6,29.83,WSW,254,0.0,0.0,51,0.00,,,0.00,VWS V14.01,2013-07-21 20:45:00,
2013-07-21 16:46:00,81.2,61.4,29.83,ESE,104,0.0,0.0,51,0.00,,,0.00,VWS V14.01,2013-07-21 20:46:00,
2013-07-21 16:47:00,81.2,61.4,29.83,ESE,104,0.0,0.0,51,0.00,,,0.00,VWS V14.01,2013-07-21 20:47:00,
2013-07-21 16:48:00,81.2,61.4,29.83,SSE,147,2.7,2.7,51,0.00,,,0.00,VWS V14.01,2013-07-21 20:48:00,
2013-07-21 16:49:00,81.1,61.8,29.83,SSE,147,0.0,2.7,52,0.00,,,0.00,VWS V14.01,2013-07-21 20:49:00,
2013-07-21 16:50:00,81.1,61.8,29.83,South,172,2.7,2.7,52,0.00,,,0.00,VWS V14.01,2013-07-21 20:50:00,
2013-07-21 16:51:00,81.1,61.8,29.83,South,172,2.7,2.7,52,0.00,,,0.00,VWS V14.01,2013-07-21 20:51:00,
2013-07-21 16:52:00,80.9,62.2,29.83,SE,142,4.0,4.0,53,0.00,,,0.00,VWS V14.01,2013-07-21 20:52:00,
2013-07-21 16:53:00,80.9,62.2,29.83,North,5,2.7,4.0,53,0.00,,,0.00,VWS V14.01,2013-07-21 20:53:00,
2013-07-21 16:54:00,80.9,62.2,29.83,North,6,0.0,2.7,53,0.00,,,0.00,VWS V14.01,2013-07-21 20:54:00,
2013-07-21 16:55:00,80.9,62.2,29.83,North,6,0.0,0.0,53,0.00,,,0.00,VWS V14.01,2013-07-21 20:55:00,
2013-07-21 16:56:00,80.7,62.0,29.83,ENE,60,3.1,3.1,53,0.00,,,0.00,VWS V14.01,2013-07-21 20:56:00,
2013-07-21 16:57:00,80.5,62.4,29.83,ENE,60,0.0,3.1,54,0.00,,,0.00,VWS V14.01,2013-07-21 20:57:00,
2013-07-21 16:58:00,80.5,62.4,29.83,ENE,60,0.0,0.0,54,0.00,,,0.00,VWS V14.01,2013-07-21 20:58:00,
2013-07-21 16:59:00,80.5,62.4,29.83,ENE,60,0.0,0.0,54,0.00,,,0.00,VWS V14.01,2013-07-21 20:59:00,
2013-07-21 17:00:00,80.5,62.4,29.83,ENE,60,0.0,0.0,54,0.00,,,0.00,VWS V14.01,2013-07-21 21:00:00,
2013-07-21 17:01:00,80.5,62.9,29.83,ENE,60,0.0,0.0,55,0.00,,,0.00,VWS V14.01,2013-07-21 21:01:00,
2013-07-21 17:02:00,80.5,62.9,29.83,East,92,0.0,0.0,55,0.00,,,0.00,VWS V14.01,2013-07-21 21:02:00,
2013-07-21 17:03:00,80.5,62.9,29.83,ESE,106,0.0,0.0,55,0.00,,,0.00,VWS V14.01,2013-07-21 21:03:00,
2013-07-21 17:04:00,80.5,62.9,29.83,SE,145,0.0,0.0,55,0.00,,,0.00,VWS V14.01,2013-07-21 21:04:00,
2013-07-21 17:05:00,80.2,63.1,29.83,SE,145,0.0,0.0,56,0.00,,,0.00,VWS V14.01,2013-07-21 21:05:00,
2013-07-21 17:06:00,80.2,63.1,29.83,ENE,73,3.1,3.1,56,0.00,,,0.00,VWS V14.01,2013-07-21 21:06:00,
2013-07-21 17:07:00,80.2,63.1,29.83,ESE,117,0.0,3.1,56,0.00,,,0.00,VWS V14.01,2013-07-21 21:07:00,
2013-07-21 17:08:00,80.0,63.4,29.83,SSE,155,0.0,0.0,57,0.00,,,0.00,VWS V14.01,2013-07-21 21:08:00,
2013-07-21 17:09:00,80.0,63.4,29.83,SSE,155,0.0,0.0,57,0.00,,,0.00,VWS V14.01,2013-07-21 21:09:00,
2013-07-21 17:10:00,79.8,63.2,29.83,SSE,155,0.0,0.0,57,0.00,,,0.00,VWS V14.01,2013-07-21 21:10:00,
2013-07-21 17:11:00,79.6,63.1,29.83,ESE,102,0.0,0.0,57,0.00,,,0.00,VWS V14.01,2013-07-21 21:11:00,
2013-07-21 17:12:00,79.6,63.1,29.83,ESE,102,0.0,0.0,57,0.00,,,0.00,VWS V14.01,2013-07-21 21:12:00,
2013-07-21 17:13:00,79.6,63.1,29.83,ESE,102,0.0,0.0,57,0.00,,,0.00,VWS V14.01,2013-07-21 21:13:00,
2013-07-21 17:14:00,79.6,63.6,29.83,ESE,102,0.0,0.0,58,0.00,,,0.00,VWS V14.01,2013-07-21 21:14:00,
2013-07-21 17:15:00,79.6,63.6,29.83,ESE,102,0.0,0.0,58,0.00,,,0.00,VWS V14.01,2013-07-21 21:15:00,
2013-07-21 17:16:00,79.4,63.4,29.83,NNE,22,0.0,0.0,58,0.00,,,0.00,VWS V14.01,2013-07-21 21:16:00,
2013-07-21 17:17:00,79.4,63.4,29.83,NNE,22,0.0,0.0,58,0.00,,,0.00,VWS V14.01,2013-07-21 21:17:00,
2013-07-21 17:18:00,79.4,63.9,29.83,SW,221,0.0,0.0,59,0.00,,,0.00,VWS V14.01,2013-07-21 21:18:00,
2013-07-21 17:19:00,79.4,63.9,29.83,SW,221,0.0,0.0,59,0.00,,,0.00,VWS V14.01,2013-07-21 21:19:00,
2013-07-21 17:20:00,79.4,63.9,29.83,SW,221,0.0,0.0,59,0.00,,,0.00,VWS V14.01,2013-07-21 21:20:00,
2013-07-21 17:21:00,79.4,63.9,29.83,SW,221,0.0,0.0,59,0.00,,,0.00,VWS V14.01,2013-07-21 21:21:00,
2013-07-21 17:22:00,79.3,63.7,29.83,SW,221,0.0,0.0,59,0.00,,,0.00,VWS V14.01,2013-07-21 21:22:00,
2013-07-21 17:23:00,79.3,64.2,29.83,SW,221,0.0,0.0,60,0.00,,,0.00,VWS V14.01,2013-07-21 21:23:00,
2013-07-21 17:24:00,79.3,64.2,29.83,SW,221,0.0,0.0,60,0.00,,,0.00,VWS V14.01,2013-07-21 21:24:00,
2013-07-21 17:25:00,79.3,64.2,29.83,SW,221,0.0,0.0,60,0.00,,,0.00,VWS V14.01,2013-07-21 21:25:00,
2013-07-21 17:26:00,79.1,64.0,29.83,SW,221,0.0,0.0,60,0.00,,,0.00,VWS V14.01,2013-07-21 21:26:00,
2013-07-21 17:27:00,79.1,64.0,29.83,SW,221,0.0,0.0,60,0.00,,,0.00,VWS V14.01,2013-07-21 21:27:00,
2013-07-21 17:28:00,79.1,64.0,29.83,SW,221,0.0,0.0,60,0.00,,,0.00,VWS V14.01,2013-07-21 21:28:00,
2013-07-21 17:29:00,79.1,64.0,29.83,SW,221,0.0,0.0,60,0.00,,,0.00,VWS V14.01,2013-07-21 21:29:00,
2013-07-21 17:31:00,78.9,64.8,29.83,SW,221,0.0,0.0,62,0.00,,,0.00,VWS V14.01,2013-07-21 21:31:00,
2013-07-21 17:32:00,78.9,64.8,29.83,SW,221,0.0,0.0,62,0.00,,,0.00,VWS V14.01,2013-07-21 21:32:00,
2013-07-21 17:33:00,78.7,64.6,29.83,SW,221,0.0,0.0,62,0.00,,,0.00,VWS V14.01,2013-07-21 21:33:00,
2013-07-21 17:34:00,78.7,65.1,29.83,SW,221,0.0,0.0,63,0.00,,,0.00,VWS V14.01,2013-07-21 21:34:00,
2013-07-21 17:35:00,78.7,65.1,29.83,SW,221,0.0,0.0,63,0.00,,,0.00,VWS V14.01,2013-07-21 21:35:00,
2013-07-21 17:36:00,78.7,65.1,29.83,SW,221,0.0,0.0,63,0.00,,,0.00,VWS V14.01,2013-07-21 21:36:00,
2013-07-21 17:37:00,78.5,64.9,29.83,SW,221,0.0,0.0,63,0.00,,,0.00,VWS V14.01,2013-07-21 21:37:00,
2013-07-21 17:38:00,78.5,64.9,29.83,SW,221,0.0,0.0,63,0.00,,,0.00,VWS V14.01,2013-07-21 21:38:00,
2013-07-21 17:39:00,78.4,65.2,29.83,SW,221,0.0,0.0,64,0.00,,,0.00,VWS V14.01,2013-07-21 21:39:00,
2013-07-21 17:40:00,78.4,65.6,29.83,SW,221,0.0,0.0,65,0.00,,,0.00,VWS V14.01,2013-07-21 21:40:00,
2013-07-21 17:41:00,78.2,65.5,29.83,SW,221,0.0,0.0,65,0.00,,,0.00,VWS V14.01,2013-07-21 21:41:00,
2013-07-21 17:42:00,78.2,65.5,29.83,SW,221,0.0,0.0,65,0.00,,,0.00,VWS V14.01,2013-07-21 21:42:00,
2013-07-21 17:43:00,78.2,65.5,29.83,SW,221,0.0,0.0,65,0.00,,,0.00,VWS V14.01,2013-07-21 21:43:00,
2013-07-21 17:44:00,78.2,65.5,29.83,SW,221,0.0,0.0,65,0.00,,,0.00,VWS V14.01,2013-07-21 21:44:00,
2013-07-21 17:45:00,78.2,65.5,29.83,SW,221,0.0,0.0,65,0.00,,,0.00,VWS V14.01,2013-07-21 21:45:00,
2013-07-21 17:46:00,78.2,65.5,29.83,SW,221,0.0,0.0,65,0.00,,,0.00,VWS V14.01,2013-07-21 21:46:00,
2013-07-21 17:47:00,78.2,65.5,29.83,SW,221,0.0,0.0,65,0.00,,,0.00,VWS V14.01,2013-07-21 21:47:00,
2013-07-21 17:48:00,78.0,65.7,29.83,SW,221,0.0,0.0,66,0.00,,,0.00,VWS V14.01,2013-07-21 21:48:00,
2013-07-21 17:49:00,78.0,65.7,29.83,SW,221,0.0,0.0,66,0.00,,,0.00,VWS V14.01,2013-07-21 21:49:00,
2013-07-21 17:50:00,78.0,65.7,29.83,SW,221,0.0,0.0,66,0.00,,,0.00,VWS V14.01,2013-07-21 21:50:00,
2013-07-21 17:51:00,78.0,65.7,29.83,SW,221,0.0,0.0,66,0.00,,,0.00,VWS V14.01,2013-07-21 21:51:00,
2013-07-21 17:52:00,78.0,65.7,29.83,SW,221,0.0,0.0,66,0.00,,,0.00,VWS V14.01,2013-07-21 21:52:00,
2013-07-21 17:53:00,77.8,66.0,29.83,SW,221,0.0,0.0,67,0.00,,,0.00,VWS V14.01,2013-07-21 21:53:00,
2013-07-21 17:54:00,77.8,66.0,29.83,SW,221,0.0,0.0,67,0.00,,,0.00,VWS V14.01,2013-07-21 21:54:00,
2013-07-21 17:55:00,77.8,66.4,29.83,SW,221,0.0,0.0,68,0.00,,,0.00,VWS V14.01,2013-07-21 21:55:00,
2013-07-21 17:56:00,77.6,66.2,29.83,SW,221,0.0,0.0,68,0.00,,,0.00,VWS V14.01,2013-07-21 21:56:00,
2013-07-21 17:57:00,77.6,66.2,29.83,SW,221,0.0,0.0,68,0.00,,,0.00,VWS V14.01,2013-07-21 21:57:00,
2013-07-21 17:58:00,77.6,66.2,29.83,SW,221,0.0,0.0,68,0.00,,,0.00,VWS V14.01,2013-07-21 21:58:00,
2013-07-21 17:59:00,77.8,66.8,29.83,SW,221,0.0,0.0,69,0.00,,,0.00,VWS V14.01,2013-07-21 21:59:00,
2013-07-21 18:00:00,77.8,66.8,29.83,SW,221,0.0,0.0,69,0.00,,,0.00,VWS V14.01,2013-07-21 22:00:00,
2013-07-21 18:01:00,77.8,66.8,29.83,SW,221,0.0,0.0,69,0.00,,,0.00,VWS V14.01,2013-07-21 22:01:00,
2013-07-21 18:02:00,77.8,66.8,29.83,SW,221,0.0,0.0,69,0.00,,,0.00,VWS V14.01,2013-07-21 22:02:00,
2013-07-21 18:03:00,77.8,67.3,29.83,SW,221,0.0,0.0,70,0.00,,,0.00,VWS V14.01,2013-07-21 22:03:00,
2013-07-21 18:04:00,77.8,67.3,29.83,SW,221,0.0,0.0,70,0.00,,,0.00,VWS V14.01,2013-07-21 22:04:00,
2013-07-21 18:05:00,77.8,67.3,29.83,SW,221,0.0,0.0,70,0.00,,,0.00,VWS V14.01,2013-07-21 22:05:00,
2013-07-21 18:06:00,77.8,67.7,29.83,SW,221,0.0,0.0,71,0.00,,,0.00,VWS V14.01,2013-07-21 22:06:00,
2013-07-21 18:07:00,77.8,67.7,29.83,SW,221,0.0,0.0,71,0.00,,,0.00,VWS V14.01,2013-07-21 22:07:00,
2013-07-21 18:08:00,77.8,67.7,29.83,SW,221,0.0,0.0,71,0.00,,,0.00,VWS V14.01,2013-07-21 22:08:00,
2013-07-21 18:09:00,77.8,67.7,29.83,SW,221,0.0,0.0,71,0.04,,,0.04,VWS V14.01,2013-07-21 22:09:00,
2013-07-21 18:10:00,77.6,67.5,29.83,SW,221,0.0,0.0,71,0.04,,,0.04,VWS V14.01,2013-07-21 22:10:00,
2013-07-21 18:11:00,77.6,67.9,29.83,SW,221,0.0,0.0,72,0.04,,,0.04,VWS V14.01,2013-07-21 22:11:00,
2013-07-21 18:12:00,77.6,67.9,29.83,SW,221,0.0,0.0,72,0.04,,,0.04,VWS V14.01,2013-07-21 22:12:00,
2013-07-21 18:13:00,77.6,67.9,29.83,SW,221,0.0,0.0,72,0.04,,,0.04,VWS V14.01,2013-07-21 22:13:00,
2013-07-21 18:14:00,77.6,67.9,29.83,SW,221,0.0,0.0,72,0.04,,,0.04,VWS V14.01,2013-07-21 22:14:00,
2013-07-21 18:15:00,77.6,67.9,29.83,SW,221,0.0,0.0,72,0.04,,,0.04,VWS V14.01,2013-07-21 22:15:00,
2013-07-21 18:16:00,77.6,67.9,29.83,SW,221,0.0,0.0,72,0.04,,,0.04,VWS V14.01,2013-07-21 22:16:00,
2013-07-21 18:17:00,77.6,67.9,29.83,SW,221,0.0,0.0,72,0.04,,,0.04,VWS V14.01,2013-07-21 22:17:00,
2013-07-21 18:18:00,77.6,67.9,29.83,SW,221,0.0,0.0,72,0.04,,,0.04,VWS V14.01,2013-07-21 22:18:00,
2013-07-21 18:19:00,77.6,68.3,29.83,SW,221,0.0,0.0,73,0.04,,,0.04,VWS V14.01,2013-07-21 22:19:00,
2013-07-21 18:20:00,77.6,68.3,29.83,SW,221,0.0,0.0,73,0.04,,,0.04,VWS V14.01,2013-07-21 22:20:00,
2013-07-21 18:21:00,77.6,68.3,29.83,SW,221,0.0,0.0,73,0.04,,,0.04,VWS V14.01,2013-07-21 22:21:00,
2013-07-21 18:22:00,77.6,68.3,29.83,SW,221,0.0,0.0,73,0.04,,,0.04,VWS V14.01,2013-07-21 22:22:00,
2013-07-21 18:23:00,77.6,68.3,29.83,SW,221,0.0,0.0,73,0.04,,,0.04,VWS V14.01,2013-07-21 22:23:00,
2013-07-21 18:24:00,77.6,68.3,29.83,SW,221,0.0,0.0,73,0.04,,,0.04,VWS V14.01,2013-07-21 22:24:00,
2013-07-21 18:25:00,77.8,68.9,29.83,SW,221,0.0,0.0,74,0.04,,,0.04,VWS V14.01,2013-07-21 22:25:00,
2013-07-21 18:26:00,77.8,68.9,29.83,SW,221,0.0,0.0,74,0.04,,,0.04,VWS V14.01,2013-07-21 22:26:00,
2013-07-21 18:27:00,77.8,68.9,29.83,SW,221,0.0,0.0,74,0.04,,,0.04,VWS V14.01,2013-07-21 22:27:00,
2013-07-21 18:28:00,77.8,68.9,29.83,SW,221,0.0,0.0,74,0.04,,,0.04,VWS V14.01,2013-07-21 22:28:00,
2013-07-21 18:29:00,77.8,68.9,29.83,SW,221,0.0,0.0,74,0.04,,,0.04,VWS V14.01,2013-07-21 22:29:00,
2013-07-21 18:30:00,78.0,69.1,29.83,SW,221,0.0,0.0,74,0.04,,,0.04,VWS V14.01,2013-07-21 22:30:00,
2013-07-21 18:31:00,78.0,69.1,29.83,SW,221,0.0,0.0,74,0.04,,,0.04,VWS V14.01,2013-07-21 22:31:00,
2013-07-21 18:32:00,78.0,69.1,29.83,East,101,0.0,0.0,74,0.04,,,0.04,VWS V14.01,2013-07-21 22:32:00,
2013-07-21 18:33:00,78.0,69.1,29.83,East,101,0.0,0.0,74,0.04,,,0.04,VWS V14.01,2013-07-21 22:33:00,
2013-07-21 18:34:00,77.8,69.3,29.83,East,101,0.0,0.0,75,0.04,,,0.04,VWS V14.01,2013-07-21 22:34:00,
2013-07-21 18:35:00,77.8,69.3,29.83,East,101,0.0,0.0,75,0.04,,,0.04,VWS V14.01,2013-07-21 22:35:00,
2013-07-21 18:36:00,77.8,69.3,29.83,East,101,0.0,0.0,75,0.04,,,0.04,VWS V14.01,2013-07-21 22:36:00,
2013-07-21 18:37:00,78.0,69.1,29.83,SSW,195,0.0,0.0,74,0.04,,,0.04,VWS V14.01,2013-07-21 22:37:00,
2013-07-21 18:38:00,78.0,69.1,29.83,SSW,195,0.0,0.0,74,0.04,,,0.04,VWS V14.01,2013-07-21 22:38:00,
2013-07-21 18:39:00,77.8,69.3,29.83,SSW,195,0.0,0.0,75,0.04,,,0.04,VWS V14.01,2013-07-21 22:39:00,
2013-07-21 18:40:00,77.8,69.3,29.83,SSW,195,0.0,0.0,75,0.04,,,0.04,VWS V14.01,2013-07-21 22:40:00,
2013-07-21 18:41:00,77.8,69.3,29.83,SSW,195,0.0,0.0,75,0.04,,,0.04,VWS V14.01,2013-07-21 22:41:00,
2013-07-21 18:42:00,77.8,69.3,29.83,SSW,195,0.0,0.0,75,0.04,,,0.04,VWS V14.01,2013-07-21 22:42:00,
2013-07-21 18:43:00,77.8,69.3,29.83,SSW,195,0.0,0.0,75,0.04,,,0.04,VWS V14.01,2013-07-21 22:43:00,
2013-07-21 18:44:00,77.8,69.3,29.83,SSW,195,0.0,0.0,75,0.04,,,0.04,VWS V14.01,2013-07-21 22:44:00,
2013-07-21 18:45:00,77.8,69.7,29.83,SSW,195,0.0,0.0,76,0.04,,,0.04,VWS V14.01,2013-07-21 22:45:00,
2013-07-21 18:46:00,77.8,69.7,29.83,SSW,195,0.0,0.0,76,0.04,,,0.04,VWS V14.01,2013-07-21 22:46:00,
2013-07-21 18:47:00,77.8,69.7,29.83,SSW,195,0.0,0.0,76,0.04,,,0.04,VWS V14.01,2013-07-21 22:47:00,
2013-07-21 18:48:00,77.8,69.7,29.83,SSW,195,0.0,0.0,76,0.04,,,0.04,VWS V14.01,2013-07-21 22:48:00,
2013-07-21 18:49:00,77.8,69.7,29.83,SSW,195,0.0,0.0,76,0.04,,,0.04,VWS V14.01,2013-07-21 22:49:00,
2013-07-21 18:50:00,77.8,69.7,29.83,SSW,195,0.0,0.0,76,0.04,,,0.04,VWS V14.01,2013-07-21 22:50:00,
2013-07-21 18:51:00,77.8,69.7,29.83,SSW,195,0.0,0.0,76,0.04,,,0.04,VWS V14.01,2013-07-21 22:51:00,
2013-07-21 18:52:00,77.8,69.7,29.83,SSW,195,0.0,0.0,76,0.04,,,0.04,VWS V14.01,2013-07-21 22:52:00,
2013-07-21 18:53:00,77.8,69.7,29.83,SSW,195,0.0,0.0,76,0.04,,,0.04,VWS V14.01,2013-07-21 22:53:00,
2013-07-21 18:54:00,77.8,69.7,29.83,SSW,195,0.0,0.0,76,0.04,,,0.04,VWS V14.01,2013-07-21 22:54:00,
2013-07-21 18:55:00,77.8,69.7,29.83,ESE,116,0.0,0.0,76,0.04,,,0.04,VWS V14.01,2013-07-21 22:55:00,
2013-07-21 18:56:00,77.6,69.5,29.83,ESE,116,0.0,0.0,76,0.04,,,0.04,VWS V14.01,2013-07-21 22:56:00,
2013-07-21 18:57:00,77.6,69.5,29.83,ESE,116,0.0,0.0,76,0.04,,,0.04,VWS V14.01,2013-07-21 22:57:00,
2013-07-21 18:58:00,77.6,69.5,29.83,ESE,116,0.0,0.0,76,0.04,,,0.04,VWS V14.01,2013-07-21 22:58:00,
2013-07-21 18:59:00,77.6,69.5,29.83,ESE,116,0.0,0.0,76,0.04,,,0.04,VWS V14.01,2013-07-21 22:59:00,
2013-07-21 19:00:00,77.6,69.5,29.83,ESE,116,0.0,0.0,76,0.04,,,0.04,VWS V14.01,2013-07-21 23:00:00,
2013-07-21 19:01:00,77.6,69.5,29.83,ESE,116,0.0,0.0,76,0.04,,,0.04,VWS V14.01,2013-07-21 23:01:00,
2013-07-21 19:02:00,77.6,69.5,29.83,ESE,116,0.0,0.0,76,0.04,,,0.04,VWS V14.01,2013-07-21 23:02:00,
2013-07-21 19:03:00,77.6,69.5,29.83,ESE,116,0.0,0.0,76,0.04,,,0.04,VWS V14.01,2013-07-21 23:03:00,
2013-07-21 19:04:00,77.6,69.5,29.83,ESE,116,0.0,0.0,76,0.04,,,0.04,VWS V14.01,2013-07-21 23:04:00,
2013-07-21 19:05:00,77.8,70.0,29.83,ESE,116,0.0,0.0,77,0.04,,,0.04,VWS V14.01,2013-07-21 23:05:00,
2013-07-21 19:06:00,77.8,70.0,29.83,ESE,116,0.0,0.0,77,0.04,,,0.04,VWS V14.01,2013-07-21 23:06:00,
2013-07-21 19:07:00,77.8,70.0,29.83,ESE,116,0.0,0.0,77,0.04,,,0.04,VWS V14.01,2013-07-21 23:07:00,
2013-07-21 19:08:00,77.8,70.0,29.83,ESE,116,0.0,0.0,77,0.04,,,0.04,VWS V14.01,2013-07-21 23:08:00,
2013-07-21 19:09:00,77.8,70.0,29.83,ESE,116,0.0,0.0,77,0.04,,,0.04,VWS V14.01,2013-07-21 23:09:00,
2013-07-21 19:10:00,77.8,70.0,29.83,ESE,116,0.0,0.0,77,0.00,,,0.04,VWS V14.01,2013-07-21 23:10:00,
2013-07-21 19:11:00,77.8,70.0,29.83,ESE,116,0.0,0.0,77,0.00,,,0.04,VWS V14.01,2013-07-21 23:11:00,
2013-07-21 19:12:00,77.8,70.0,29.83,ESE,116,0.0,0.0,77,0.00,,,0.04,VWS V14.01,2013-07-21 23:12:00,
2013-07-21 19:13:00,77.8,70.0,29.83,ESE,116,0.0,0.0,77,0.00,,,0.04,VWS V14.01,2013-07-21 23:13:00,
2013-07-21 19:14:00,77.6,69.9,29.83,ESE,116,0.0,0.0,77,0.00,,,0.04,VWS V14.01,2013-07-21 23:14:00,
2013-07-21 19:15:00,77.6,69.9,29.83,ESE,116,0.0,0.0,77,0.00,,,0.04,VWS V14.01,2013-07-21 23:15:00,
2013-07-21 19:16:00,77.6,69.9,29.83,ESE,116,0.0,0.0,77,0.00,,,0.04,VWS V14.01,2013-07-21 23:16:00,
2013-07-21 19:17:00,77.6,69.9,29.83,ESE,116,0.0,0.0,77,0.00,,,0.04,VWS V14.01,2013-07-21 23:17:00,
2013-07-21 19:18:00,77.6,69.9,29.83,ESE,116,0.0,0.0,77,0.00,,,0.04,VWS V14.01,2013-07-21 23:18:00,
2013-07-21 19:19:00,77.6,69.9,29.83,ESE,116,0.0,0.0,77,0.00,,,0.04,VWS V14.01,2013-07-21 23:19:00,
2013-07-21 19:20:00,77.6,69.9,29.83,ESE,116,0.0,0.0,77,0.00,,,0.04,VWS V14.01,2013-07-21 23:20:00,
2013-07-21 19:21:00,77.6,70.2,29.83,ESE,116,0.0,0.0,78,0.00,,,0.04,VWS V14.01,2013-07-21 23:21:00,
2013-07-21 19:22:00,77.6,70.2,29.83,ESE,116,0.0,0.0,78,0.00,,,0.04,VWS V14.01,2013-07-21 23:22:00,
2013-07-21 19:23:00,77.6,70.2,29.83,ESE,116,0.0,0.0,78,0.00,,,0.04,VWS V14.01,2013-07-21 23:23:00,
2013-07-21 19:24:00,77.6,70.2,29.83,ESE,116,0.0,0.0,78,0.00,,,0.04,VWS V14.01,2013-07-21 23:24:00,
2013-07-21 19:25:00,77.6,70.2,29.83,ESE,116,0.0,0.0,78,0.00,,,0.04,VWS V14.01,2013-07-21 23:25:00,
2013-07-21 19:26:00,77.6,70.2,29.83,ESE,116,0.0,0.0,78,0.00,,,0.04,VWS V14.01,2013-07-21 23:26:00,
2013-07-21 19:27:00,77.6,70.2,29.83,ESE,116,0.0,0.0,78,0.00,,,0.04,VWS V14.01,2013-07-21 23:27:00,
2013-07-21 19:28:00,77.6,70.2,29.83,ESE,116,0.0,0.0,78,0.00,,,0.04,VWS V14.01,2013-07-21 23:28:00,
2013-07-21 19:29:00,77.6,70.2,29.83,ESE,116,0.0,0.0,78,0.00,,,0.04,VWS V14.01,2013-07-21 23:29:00,
2013-07-21 19:30:00,77.6,70.2,29.83,ESE,116,0.0,0.0,78,0.00,,,0.04,VWS V14.01,2013-07-21 23:30:00,
2013-07-21 19:31:00,77.6,70.6,29.83,ESE,116,0.0,0.0,79,0.00,,,0.04,VWS V14.01,2013-07-21 23:31:00,
2013-07-21 19:32:00,77.6,70.6,29.83,ESE,116,0.0,0.0,79,0.00,,,0.04,VWS V14.01,2013-07-21 23:32:00,
2013-07-21 19:33:00,77.6,70.6,29.83,South,184,0.0,0.0,79,0.00,,,0.04,VWS V14.01,2013-07-21 23:33:00,
2013-07-21 19:34:00,77.6,70.6,29.83,South,184,0.0,0.0,79,0.00,,,0.04,VWS V14.01,2013-07-21 23:34:00,
2013-07-21 19:35:00,77.6,70.6,29.83,South,184,0.0,0.0,79,0.00,,,0.04,VWS V14.01,2013-07-21 23:35:00,
2013-07-21 19:36:00,77.5,70.8,29.83,South,184,0.0,0.0,80,0.00,,,0.04,VWS V14.01,2013-07-21 23:36:00,
2013-07-21 19:37:00,77.5,70.8,29.83,South,174,4.9,4.9,80,0.00,,,0.04,VWS V14.01,2013-07-21 23:37:00,
2013-07-21 19:38:00,77.5,70.8,29.83,South,174,0.0,4.9,80,0.00,,,0.04,VWS V14.01,2013-07-21 23:38:00,
2013-07-21 19:39:00,77.5,70.8,29.83,South,174,0.0,0.0,80,0.00,,,0.04,VWS V14.01,2013-07-21 23:39:00,
2013-07-21 19:40:00,77.5,70.8,29.83,South,174,0.0,0.0,80,0.00,,,0.04,VWS V14.01,2013-07-21 23:40:00,
2013-07-21 19:41:00,77.5,70.8,29.83,South,176,0.0,0.0,80,0.00,,,0.04,VWS V14.01,2013-07-21 23:41:00,
2013-07-21 19:42:00,77.5,70.8,29.83,South,176,0.0,0.0,80,0.00,,,0.04,VWS V14.01,2013-07-21 23:42:00,
2013-07-21 19:43:00,77.5,70.8,29.83,South,176,0.0,0.0,80,0.00,,,0.04,VWS V14.01,2013-07-21 23:43:00,
2013-07-21 19:44:00,77.5,70.8,29.83,South,179,0.0,3.1,80,0.00,,,0.04,VWS V14.01,2013-07-21 23:44:00,
2013-07-21 19:45:00,77.5,70.8,29.83,South,179,0.0,0.0,80,0.00,,,0.04,VWS V14.01,2013-07-21 23:45:00,
2013-07-21 19:46:00,77.3,71.0,29.83,South,179,0.0,0.0,81,0.00,,,0.04,VWS V14.01,2013-07-21 23:46:00,
2013-07-21 19:47:00,77.3,71.0,29.83,South,179,0.0,0.0,81,0.00,,,0.04,VWS V14.01,2013-07-21 23:47:00,
2013-07-21 19:48:00,77.3,71.0,29.83,South,179,0.0,0.0,81,0.00,,,0.04,VWS V14.01,2013-07-21 23:48:00,
2013-07-21 19:49:00,77.3,71.0,29.83,South,179,0.0,0.0,81,0.00,,,0.04,VWS V14.01,2013-07-21 23:49:00,
2013-07-21 19:50:00,77.1,70.8,29.83,South,179,0.0,0.0,81,0.00,,,0.04,VWS V14.01,2013-07-21 23:50:00,
2013-07-21 19:51:00,77.1,70.8,29.83,South,179,0.0,0.0,81,0.00,,,0.04,VWS V14.01,2013-07-21 23:51:00,
2013-07-21 19:52:00,77.1,70.8,29.83,South,179,0.0,0.0,81,0.00,,,0.04,VWS V14.01,2013-07-21 23:52:00,
2013-07-21 19:53:00,77.1,70.8,29.83,South,179,0.0,0.0,81,0.00,,,0.04,VWS V14.01,2013-07-21 23:53:00,
2013-07-21 19:54:00,76.9,70.7,29.83,South,179,0.0,0.0,81,0.00,,,0.04,VWS V14.01,2013-07-21 23:54:00,
2013-07-21 19:55:00,76.9,70.7,29.83,South,179,0.0,0.0,81,0.00,,,0.04,VWS V14.01,2013-07-21 23:55:00,
2013-07-21 19:56:00,76.9,70.7,29.83,South,175,0.0,0.0,81,0.00,,,0.04,VWS V14.01,2013-07-21 23:56:00,
2013-07-21 19:57:00,76.9,70.7,29.83,South,175,0.0,0.0,81,0.00,,,0.04,VWS V14.01,2013-07-21 23:57:00,
2013-07-21 19:58:00,76.9,70.7,29.83,South,175,0.0,0.0,81,0.00,,,0.04,VWS V14.01,2013-07-21 23:58:00,
2013-07-21 19:59:00,76.9,70.7,29.83,South,175,0.0,0.0,81,0.00,,,0.04,VWS V14.01,2013-07-21 23:59:00,
2013-07-21 20:00:00,76.9,70.7,29.83,South,175,0.0,0.0,81,0.00,,,0.04,VWS V14.01,2013-07-22 00:00:00,
2013-07-21 20:01:00,76.9,70.7,29.83,South,175,0.0,0.0,81,0.00,,,0.04,VWS V14.01,2013-07-22 00:01:00,
2013-07-21 20:02:00,76.7,70.5,29.83,South,175,0.0,0.0,81,0.00,,,0.04,VWS V14.01,2013-07-22 00:02:00,
2013-07-21 20:03:00,76.7,70.5,29.83,South,175,0.0,0.0,81,0.00,,,0.04,VWS V14.01,2013-07-22 00:03:00,
2013-07-21 20:04:00,76.7,70.5,29.83,South,175,0.0,0.0,81,0.00,,,0.04,VWS V14.01,2013-07-22 00:04:00,
2013-07-21 20:05:00,76.7,70.5,29.83,South,175,0.0,0.0,81,0.00,,,0.04,VWS V14.01,2013-07-22 00:05:00,
2013-07-21 20:06:00,76.7,70.5,29.83,South,175,0.0,0.0,81,0.00,,,0.04,VWS V14.01,2013-07-22 00:06:00,
2013-07-21 20:07:00,76.7,70.5,29.83,South,175,0.0,0.0,81,0.00,,,0.04,VWS V14.01,2013-07-22 00:07:00,
2013-07-21 20:08:00,76.7,70.5,29.83,South,175,0.0,0.0,81,0.00,,,0.04,VWS V14.01,2013-07-22 00:08:00,
2013-07-21 20:09:00,76.7,70.5,29.83,South,175,0.0,0.0,81,0.00,,,0.04,VWS V14.01,2013-07-22 00:09:00,
2013-07-21 20:10:00,76.7,70.5,29.83,South,175,0.0,0.0,81,0.00,,,0.04,VWS V14.01,2013-07-22 00:10:00,
2013-07-21 20:11:00,76.7,70.5,29.83,South,175,0.0,0.0,81,0.00,,,0.04,VWS V14.01,2013-07-22 00:11:00,
2013-07-21 20:12:00,76.7,70.5,29.83,South,175,0.0,0.0,81,0.00,,,0.04,VWS V14.01,2013-07-22 00:12:00,
2013-07-21 20:13:00,76.7,70.5,29.83,South,175,0.0,0.0,81,0.00,,,0.04,VWS V14.01,2013-07-22 00:13:00,
2013-07-21 20:14:00,76.7,70.5,29.83,South,175,0.0,0.0,81,0.00,,,0.04,VWS V14.01,2013-07-22 00:14:00,
2013-07-21 20:15:00,76.7,70.5,29.83,South,175,0.0,0.0,81,0.00,,,0.04,VWS V14.01,2013-07-22 00:15:00,
2013-07-21 20:16:00,76.7,70.8,29.83,South,175,0.0,0.0,82,0.00,,,0.04,VWS V14.01,2013-07-22 00:16:00,
2013-07-21 20:17:00,76.6,70.7,29.83,South,175,0.0,0.0,82,0.00,,,0.04,VWS V14.01,2013-07-22 00:17:00,
2013-07-21 20:18:00,76.6,70.7,29.83,South,175,0.0,0.0,82,0.00,,,0.04,VWS V14.01,2013-07-22 00:18:00,
2013-07-21 20:19:00,76.6,70.7,29.83,South,175,0.0,0.0,82,0.00,,,0.04,VWS V14.01,2013-07-22 00:19:00,
2013-07-21 20:20:00,76.6,70.7,29.83,South,175,0.0,0.0,82,0.00,,,0.04,VWS V14.01,2013-07-22 00:20:00,
2013-07-21 20:21:00,76.6,70.7,29.83,South,175,0.0,0.0,82,0.00,,,0.04,VWS V14.01,2013-07-22 00:21:00,
2013-07-21 20:22:00,76.6,70.7,29.83,South,175,0.0,0.0,82,0.00,,,0.04,VWS V14.01,2013-07-22 00:22:00,
2013-07-21 20:23:00,76.6,70.7,29.83,South,175,0.0,0.0,82,0.00,,,0.04,VWS V14.01,2013-07-22 00:23:00,
2013-07-21 20:24:00,76.6,70.7,29.83,South,175,0.0,0.0,82,0.00,,,0.04,VWS V14.01,2013-07-22 00:24:00,
2013-07-21 20:25:00,76.6,70.7,29.83,South,175,0.0,0.0,82,0.00,,,0.04,VWS V14.01,2013-07-22 00:25:00,
2013-07-21 20:26:00,76.6,70.7,29.83,South,175,0.0,0.0,82,0.00,,,0.04,VWS V14.01,2013-07-22 00:26:00,
2013-07-21 20:27:00,76.6,70.7,29.83,South,175,0.0,0.0,82,0.00,,,0.04,VWS V14.01,2013-07-22 00:27:00,
2013-07-21 20:28:00,76.6,70.7,29.83,South,175,0.0,0.0,82,0.00,,,0.04,VWS V14.01,2013-07-22 00:28:00,
2013-07-21 20:29:00,76.6,70.7,29.83,South,175,0.0,0.0,82,0.00,,,0.04,VWS V14.01,2013-07-22 00:29:00,
2013-07-21 20:30:00,76.6,70.7,29.83,South,175,0.0,0.0,82,0.00,,,0.04,VWS V14.01,2013-07-22 00:30:00,
2013-07-21 20:31:00,76.6,70.7,29.83,South,175,0.0,0.0,82,0.00,,,0.04,VWS V14.01,2013-07-22 00:31:00,
2013-07-21 20:32:00,76.4,70.5,29.83,South,175,0.0,0.0,82,0.00,,,0.04,VWS V14.01,2013-07-22 00:32:00,
2013-07-21 20:33:00,76.4,70.5,29.83,South,175,0.0,0.0,82,0.00,,,0.04,VWS V14.01,2013-07-22 00:33:00,
2013-07-21 20:34:00,76.4,70.5,29.83,South,175,0.0,0.0,82,0.00,,,0.04,VWS V14.01,2013-07-22 00:34:00,
2013-07-21 20:35:00,76.4,70.5,29.83,South,175,0.0,0.0,82,0.00,,,0.04,VWS V14.01,2013-07-22 00:35:00,
2013-07-21 20:36:00,76.4,70.5,29.83,South,175,0.0,0.0,82,0.00,,,0.04,VWS V14.01,2013-07-22 00:36:00,
2013-07-21 20:37:00,76.4,70.5,29.83,South,175,0.0,0.0,82,0.00,,,0.04,VWS V14.01,2013-07-22 00:37:00,
2013-07-21 20:38:00,76.4,70.5,29.83,South,175,0.0,0.0,82,0.00,,,0.04,VWS V14.01,2013-07-22 00:38:00,
2013-07-21 20:39:00,76.2,70.3,29.83,South,175,0.0,0.0,82,0.00,,,0.04,VWS V14.01,2013-07-22 00:39:00,
2013-07-21 20:40:00,76.2,70.3,29.83,South,175,0.0,0.0,82,0.00,,,0.04,VWS V14.01,2013-07-22 00:40:00,
2013-07-21 20:41:00,76.2,70.3,29.83,South,175,0.0,0.0,82,0.00,,,0.04,VWS V14.01,2013-07-22 00:41:00,
2013-07-21 20:42:00,76.2,70.3,29.83,South,175,0.0,0.0,82,0.00,,,0.04,VWS V14.01,2013-07-22 00:42:00,
2013-07-21 20:43:00,76.2,70.3,29.83,South,175,0.0,0.0,82,0.00,,,0.04,VWS V14.01,2013-07-22 00:43:00,
2013-07-21 20:44:00,76.0,70.5,29.83,South,175,0.0,0.0,83,0.00,,,0.04,VWS V14.01,2013-07-22 00:44:00,
2013-07-21 20:45:00,76.0,70.1,29.83,South,175,0.0,0.0,82,0.00,,,0.04,VWS V14.01,2013-07-22 00:45:00,
2013-07-21 20:46:00,76.0,70.1,29.83,South,175,0.0,0.0,82,0.00,,,0.04,VWS V14.01,2013-07-22 00:46:00,
2013-07-21 20:47:00,75.8,70.0,29.83,South,174,0.0,0.0,82,0.00,,,0.04,VWS V14.01,2013-07-22 00:47:00,
2013-07-21 20:48:00,75.8,70.0,29.83,South,174,0.0,0.0,82,0.00,,,0.04,VWS V14.01,2013-07-22 00:48:00,
2013-07-21 20:49:00,75.7,69.8,29.83,South,174,0.0,0.0,82,0.00,,,0.04,VWS V14.01,2013-07-22 00:49:00,
2013-07-21 20:50:00,75.5,69.6,29.83,South,174,0.0,0.0,82,0.00,,,0.04,VWS V14.01,2013-07-22 00:50:00,
2013-07-21 20:51:00,75.5,69.6,29.85,South,174,0.0,0.0,82,0.00,,,0.04,VWS V14.01,2013-07-22 00:51:00,
2013-07-21 20:52:00,75.5,69.6,29.85,South,174,0.0,0.0,82,0.00,,,0.04,VWS V14.01,2013-07-22 00:52:00,
2013-07-21 20:53:00,75.3,69.4,29.85,South,174,0.0,0.0,82,0.00,,,0.04,VWS V14.01,2013-07-22 00:53:00,
2013-07-21 20:54:00,75.3,69.1,29.85,South,174,0.0,0.0,81,0.00,,,0.04,VWS V14.01,2013-07-22 00:54:00,
2013-07-21 20:55:00,75.3,69.1,29.85,SSE,155,0.0,0.0,81,0.00,,,0.04,VWS V14.01,2013-07-22 00:55:00,
2013-07-21 20:56:00,75.3,69.1,29.85,SSE,155,0.0,0.0,81,0.00,,,0.04,VWS V14.01,2013-07-22 00:56:00,
2013-07-21 20:57:00,75.1,68.9,29.85,SSE,155,0.0,0.0,81,0.00,,,0.04,VWS V14.01,2013-07-22 00:57:00,
2013-07-21 20:58:00,75.1,68.9,29.85,SSE,155,0.0,0.0,81,0.00,,,0.04,VWS V14.01,2013-07-22 00:58:00,
2013-07-21 20:59:00,75.1,68.9,29.85,SSE,155,0.0,0.0,81,0.00,,,0.04,VWS V14.01,2013-07-22 00:59:00,
2013-07-21 21:00:00,74.9,68.7,29.85,SSE,155,0.0,0.0,81,0.00,,,0.04,VWS V14.01,2013-07-22 01:00:00,
2013-07-21 21:01:00,74.9,68.7,29.85,SSE,155,0.0,0.0,81,0.00,,,0.04,VWS V14.01,2013-07-22 01:01:00,
2013-07-21 21:02:00,74.9,68.7,29.85,SSE,155,0.0,0.0,81,0.00,,,0.04,VWS V14.01,2013-07-22 01:02:00,
2013-07-21 21:03:00,74.9,68.7,29.85,SSE,155,0.0,0.0,81,0.00,,,0.04,VWS V14.01,2013-07-22 01:03:00,
2013-07-21 21:04:00,74.9,68.7,29.85,SSE,155,0.0,0.0,81,0.00,,,0.04,VWS V14.01,2013-07-22 01:04:00,
2013-07-21 21:05:00,74.9,68.7,29.85,SSE,155,0.0,0.0,81,0.00,,,0.04,VWS V14.01,2013-07-22 01:05:00,
2013-07-21 21:06:00,74.8,68.6,29.85,SSE,155,0.0,0.0,81,0.00,,,0.04,VWS V14.01,2013-07-22 01:06:00,
2013-07-21 21:07:00,74.8,68.6,29.85,SSE,155,0.0,0.0,81,0.00,,,0.04,VWS V14.01,2013-07-22 01:07:00,
2013-07-21 21:08:00,74.8,68.6,29.85,SSE,155,0.0,0.0,81,0.00,,,0.04,VWS V14.01,2013-07-22 01:08:00,
2013-07-21 21:09:00,74.6,68.4,29.85,SSE,155,0.0,0.0,81,0.00,,,0.04,VWS V14.01,2013-07-22 01:09:00,
2013-07-21 21:10:00,74.6,68.4,29.85,SSE,155,0.0,0.0,81,0.00,,,0.04,VWS V14.01,2013-07-22 01:10:00,
2013-07-21 21:11:00,74.6,68.4,29.85,SSE,155,0.0,0.0,81,0.00,,,0.04,VWS V14.01,2013-07-22 01:11:00,
2013-07-21 21:12:00,74.6,68.4,29.85,SSE,155,0.0,0.0,81,0.00,,,0.04,VWS V14.01,2013-07-22 01:12:00,
2013-07-21 21:13:00,74.6,68.4,29.85,SSE,155,0.0,0.0,81,0.00,,,0.04,VWS V14.01,2013-07-22 01:13:00,
2013-07-21 21:14:00,74.4,67.8,29.85,SSE,155,0.0,0.0,80,0.00,,,0.04,VWS V14.01,2013-07-22 01:14:00,
2013-07-21 21:15:00,74.4,67.8,29.85,SSE,155,0.0,0.0,80,0.00,,,0.04,VWS V14.01,2013-07-22 01:15:00,
2013-07-21 21:16:00,74.4,67.8,29.85,SSE,155,0.0,0.0,80,0.00,,,0.04,VWS V14.01,2013-07-22 01:16:00,
2013-07-21 21:17:00,74.4,67.8,29.85,SSE,155,0.0,0.0,80,0.00,,,0.04,VWS V14.01,2013-07-22 01:17:00,
2013-07-21 21:18:00,74.4,67.8,29.85,SSE,155,0.0,0.0,80,0.00,,,0.04,VWS V14.01,2013-07-22 01:18:00,
2013-07-21 21:19:00,74.4,67.8,29.85,SSE,155,0.0,0.0,80,0.00,,,0.04,VWS V14.01,2013-07-22 01:19:00,
2013-07-21 21:20:00,74.2,67.7,29.85,SSE,155,0.0,0.0,80,0.00,,,0.04,VWS V14.01,2013-07-22 01:20:00,
2013-07-21 21:21:00,74.2,67.7,29.85,SSE,155,0.0,0.0,80,0.00,,,0.04,VWS V14.01,2013-07-22 01:21:00,
2013-07-21 21:22:00,74.2,67.7,29.85,SSE,155,0.0,0.0,80,0.00,,,0.04,VWS V14.01,2013-07-22 01:22:00,
2013-07-21 21:23:00,74.0,67.5,29.85,SSE,155,0.0,0.0,80,0.00,,,0.04,VWS V14.01,2013-07-22 01:23:00,
2013-07-21 21:24:00,74.0,67.5,29.85,SSE,155,0.0,0.0,80,0.00,,,0.04,VWS V14.01,2013-07-22 01:24:00,
2013-07-21 21:25:00,74.0,67.5,29.85,SSE,155,0.0,0.0,80,0.00,,,0.04,VWS V14.01,2013-07-22 01:25:00,
2013-07-21 21:26:00,74.0,67.5,29.85,SSE,155,0.0,0.0,80,0.00,,,0.04,VWS V14.01,2013-07-22 01:26:00,
2013-07-21 21:27:00,74.0,67.5,29.85,SSE,155,0.0,0.0,80,0.00,,,0.04,VWS V14.01,2013-07-22 01:27:00,
2013-07-21 21:28:00,74.0,67.5,29.85,SSE,155,0.0,0.0,80,0.00,,,0.04,VWS V14.01,2013-07-22 01:28:00,
2013-07-21 21:29:00,74.0,67.5,29.85,SSE,155,0.0,0.0,80,0.00,,,0.04,VWS V14.01,2013-07-22 01:29:00,
2013-07-21 21:30:00,73.9,67.3,29.85,SSE,155,0.0,0.0,80,0.00,,,0.04,VWS V14.01,2013-07-22 01:30:00,
2013-07-21 21:31:00,73.9,67.3,29.85,SSE,155,0.0,0.0,80,0.00,,,0.04,VWS V14.01,2013-07-22 01:31:00,
2013-07-21 21:32:00,73.9,67.3,29.85,SSE,155,0.0,0.0,80,0.00,,,0.04,VWS V14.01,2013-07-22 01:32:00,
2013-07-21 21:33:00,73.9,67.3,29.85,SSE,155,0.0,0.0,80,0.00,,,0.04,VWS V14.01,2013-07-22 01:33:00,
2013-07-21 21:34:00,73.9,67.3,29.83,SSE,155,0.0,0.0,80,0.00,,,0.04,VWS V14.01,2013-07-22 01:34:00,
2013-07-21 21:35:00,73.9,67.3,29.83,SSE,155,0.0,0.0,80,0.00,,,0.04,VWS V14.01,2013-07-22 01:35:00,
2013-07-21 21:36:00,73.9,67.3,29.83,SSE,155,0.0,0.0,80,0.00,,,0.04,VWS V14.01,2013-07-22 01:36:00,
2013-07-21 21:37:00,73.7,67.1,29.83,SSE,155,0.0,0.0,80,0.00,,,0.04,VWS V14.01,2013-07-22 01:37:00,
2013-07-21 21:38:00,73.7,67.1,29.83,SSE,155,0.0,0.0,80,0.00,,,0.04,VWS V14.01,2013-07-22 01:38:00,
2013-07-21 21:39:00,73.7,67.1,29.83,SSE,155,0.0,0.0,80,0.00,,,0.04,VWS V14.01,2013-07-22 01:39:00,
2013-07-21 21:40:00,73.7,67.1,29.83,SSE,155,0.0,0.0,80,0.00,,,0.04,VWS V14.01,2013-07-22 01:40:00,
2013-07-21 21:41:00,73.7,67.1,29.83,SSE,155,0.0,0.0,80,0.00,,,0.04,VWS V14.01,2013-07-22 01:41:00,
2013-07-21 21:42:00,73.7,67.1,29.83,SSE,155,0.0,0.0,80,0.00,,,0.04,VWS V14.01,2013-07-22 01:42:00,
2013-07-21 21:43:00,73.7,67.1,29.83,SSE,155,0.0,0.0,80,0.00,,,0.04,VWS V14.01,2013-07-22 01:43:00,
2013-07-21 21:44:00,73.7,67.1,29.83,SSE,155,0.0,0.0,80,0.00,,,0.04,VWS V14.01,2013-07-22 01:44:00,
2013-07-21 21:45:00,73.7,67.1,29.83,SSE,155,0.0,0.0,80,0.00,,,0.04,VWS V14.01,2013-07-22 01:45:00,
2013-07-21 21:46:00,73.7,67.1,29.83,SSE,155,0.0,0.0,80,0.00,,,0.04,VWS V14.01,2013-07-22 01:46:00,
2013-07-21 21:47:00,73.7,67.1,29.83,SSE,155,0.0,0.0,80,0.00,,,0.04,VWS V14.01,2013-07-22 01:47:00,
2013-07-21 21:48:00,73.7,67.1,29.83,SSE,155,0.0,0.0,80,0.00,,,0.04,VWS V14.01,2013-07-22 01:48:00,
2013-07-21 21:49:00,73.7,67.1,29.83,SSE,155,0.0,0.0,80,0.00,,,0.04,VWS V14.01,2013-07-22 01:49:00,
2013-07-21 21:50:00,73.7,67.1,29.83,SSE,155,0.0,0.0,80,0.00,,,0.04,VWS V14.01,2013-07-22 01:50:00,
2013-07-21 21:51:00,73.7,67.1,29.83,SSE,155,0.0,0.0,80,0.00,,,0.04,VWS V14.01,2013-07-22 01:51:00,
2013-07-21 21:52:00,73.7,67.1,29.83,SSE,155,0.0,0.0,80,0.00,,,0.04,VWS V14.01,2013-07-22 01:52:00,
2013-07-21 21:53:00,73.7,67.1,29.83,SSE,155,0.0,0.0,80,0.00,,,0.04,VWS V14.01,2013-07-22 01:53:00,
2013-07-21 21:54:00,73.7,67.1,29.83,SSE,155,0.0,0.0,80,0.00,,,0.04,VWS V14.01,2013-07-22 01:54:00,
2013-07-21 21:55:00,73.7,67.1,29.83,SSE,155,0.0,0.0,80,0.00,,,0.04,VWS V14.01,2013-07-22 01:55:00,
2013-07-21 21:56:00,73.7,67.5,29.83,SSE,155,0.0,0.0,81,0.00,,,0.04,VWS V14.01,2013-07-22 01:56:00,
2013-07-21 21:57:00,73.7,67.5,29.83,SSE,155,0.0,0.0,81,0.00,,,0.04,VWS V14.01,2013-07-22 01:57:00,
2013-07-21 21:58:00,73.7,67.5,29.83,SSE,155,0.0,0.0,81,0.00,,,0.04,VWS V14.01,2013-07-22 01:58:00,
2013-07-21 21:59:00,73.7,67.5,29.83,SSE,155,0.0,0.0,81,0.00,,,0.04,VWS V14.01,2013-07-22 01:59:00,
2013-07-21 22:00:00,73.7,67.5,29.83,SSE,155,0.0,0.0,81,0.00,,,0.04,VWS V14.01,2013-07-22 02:00:00,
2013-07-21 22:01:00,73.7,67.5,29.83,SSE,155,0.0,0.0,81,0.00,,,0.04,VWS V14.01,2013-07-22 02:01:00,
2013-07-21 22:02:00,73.7,67.5,29.83,SSE,155,0.0,0.0,81,0.00,,,0.04,VWS V14.01,2013-07-22 02:02:00,
2013-07-21 22:03:00,73.7,67.5,29.83,SSE,155,0.0,0.0,81,0.00,,,0.04,VWS V14.01,2013-07-22 02:03:00,
2013-07-21 22:04:00,73.7,67.5,29.85,SSE,155,0.0,0.0,81,0.00,,,0.04,VWS V14.01,2013-07-22 02:04:00,
2013-07-21 22:05:00,73.7,67.5,29.85,SSE,155,0.0,0.0,81,0.00,,,0.04,VWS V14.01,2013-07-22 02:05:00,
2013-07-21 22:06:00,73.7,67.5,29.85,SSE,155,0.0,0.0,81,0.00,,,0.04,VWS V14.01,2013-07-22 02:06:00,
2013-07-21 22:07:00,73.7,67.5,29.85,SSE,155,0.0,0.0,81,0.00,,,0.04,VWS V14.01,2013-07-22 02:07:00,
2013-07-21 22:08:00,73.7,67.5,29.85,SSE,155,0.0,0.0,81,0.00,,,0.04,VWS V14.01,2013-07-22 02:08:00,
2013-07-21 22:09:00,73.7,67.5,29.85,SSE,155,0.0,0.0,81,0.00,,,0.04,VWS V14.01,2013-07-22 02:09:00,
2013-07-21 22:10:00,73.7,67.5,29.85,SSE,155,0.0,0.0,81,0.00,,,0.04,VWS V14.01,2013-07-22 02:10:00,
2013-07-21 22:11:00,73.9,67.7,29.85,SSE,155,0.0,0.0,81,0.00,,,0.04,VWS V14.01,2013-07-22 02:11:00,
2013-07-21 22:12:00,73.9,67.7,29.85,SSE,155,0.0,0.0,81,0.00,,,0.04,VWS V14.01,2013-07-22 02:12:00,
2013-07-21 22:13:00,73.9,67.7,29.85,SSE,155,0.0,0.0,81,0.00,,,0.04,VWS V14.01,2013-07-22 02:13:00,
2013-07-21 22:14:00,73.9,67.7,29.85,SSE,155,0.0,0.0,81,0.00,,,0.04,VWS V14.01,2013-07-22 02:14:00,
2013-07-21 22:15:00,73.9,67.7,29.85,SSE,155,0.0,0.0,81,0.00,,,0.04,VWS V14.01,2013-07-22 02:15:00,
2013-07-21 22:16:00,73.9,67.7,29.85,SSE,155,0.0,0.0,81,0.00,,,0.04,VWS V14.01,2013-07-22 02:16:00,
2013-07-21 22:17:00,73.7,67.5,29.85,SSE,155,0.0,0.0,81,0.00,,,0.04,VWS V14.01,2013-07-22 02:17:00,
2013-07-21 22:18:00,73.7,67.5,29.85,SSE,155,0.0,0.0,81,0.00,,,0.04,VWS V14.01,2013-07-22 02:18:00,
2013-07-21 22:19:00,73.7,67.5,29.85,SSE,155,0.0,0.0,81,0.00,,,0.04,VWS V14.01,2013-07-22 02:19:00,
2013-07-21 22:20:00,73.7,67.5,29.85,SSE,155,0.0,0.0,81,0.00,,,0.04,VWS V14.01,2013-07-22 02:20:00,
2013-07-21 22:21:00,73.7,67.5,29.85,SSE,155,0.0,0.0,81,0.00,,,0.04,VWS V14.01,2013-07-22 02:21:00,
2013-07-21 22:22:00,73.7,67.8,29.85,SSE,155,0.0,0.0,82,0.00,,,0.04,VWS V14.01,2013-07-22 02:22:00,
2013-07-21 22:23:00,73.7,67.8,29.85,SSE,155,0.0,0.0,82,0.00,,,0.04,VWS V14.01,2013-07-22 02:23:00,
2013-07-21 22:24:00,73.7,67.8,29.85,SSE,155,0.0,0.0,82,0.00,,,0.04,VWS V14.01,2013-07-22 02:24:00,
2013-07-21 22:25:00,73.7,67.8,29.85,SSE,155,0.0,0.0,82,0.00,,,0.04,VWS V14.01,2013-07-22 02:25:00,
2013-07-21 22:26:00,73.7,67.8,29.85,SSE,155,0.0,0.0,82,0.00,,,0.04,VWS V14.01,2013-07-22 02:26:00,
2013-07-21 22:27:00,73.7,67.8,29.85,SSE,155,0.0,0.0,82,0.00,,,0.04,VWS V14.01,2013-07-22 02:27:00,
2013-07-21 22:28:00,73.7,67.8,29.85,SSE,155,0.0,0.0,82,0.00,,,0.04,VWS V14.01,2013-07-22 02:28:00,
2013-07-21 22:29:00,73.7,67.8,29.85,SSE,155,0.0,0.0,82,0.00,,,0.04,VWS V14.01,2013-07-22 02:29:00,
2013-07-21 22:30:00,73.7,67.8,29.85,SSE,155,0.0,0.0,82,0.00,,,0.04,VWS V14.01,2013-07-22 02:30:00,
2013-07-21 22:31:00,73.7,67.8,29.85,SSE,155,0.0,0.0,82,0.00,,,0.04,VWS V14.01,2013-07-22 02:31:00,
2013-07-21 22:32:00,73.7,67.8,29.85,SSE,155,0.0,0.0,82,0.00,,,0.04,VWS V14.01,2013-07-22 02:32:00,
2013-07-21 22:33:00,73.7,67.8,29.85,SSE,155,0.0,0.0,82,0.00,,,0.04,VWS V14.01,2013-07-22 02:33:00,
2013-07-21 22:34:00,73.7,67.8,29.85,SSE,155,0.0,0.0,82,0.00,,,0.04,VWS V14.01,2013-07-22 02:34:00,
2013-07-21 22:35:00,73.7,67.8,29.85,SSE,155,0.0,0.0,82,0.00,,,0.04,VWS V14.01,2013-07-22 02:35:00,
2013-07-21 22:36:00,73.7,67.8,29.85,SSE,155,0.0,0.0,82,0.00,,,0.04,VWS V14.01,2013-07-22 02:36:00,
2013-07-21 22:37:00,73.7,67.8,29.85,SSE,155,0.0,0.0,82,0.00,,,0.04,VWS V14.01,2013-07-22 02:37:00,
2013-07-21 22:38:00,73.7,67.8,29.85,SSE,155,0.0,0.0,82,0.00,,,0.04,VWS V14.01,2013-07-22 02:38:00,
2013-07-21 22:39:00,73.7,67.8,29.85,SSE,155,0.0,0.0,82,0.00,,,0.04,VWS V14.01,2013-07-22 02:39:00,
2013-07-21 22:40:00,73.7,67.8,29.85,SSE,155,0.0,0.0,82,0.00,,,0.04,VWS V14.01,2013-07-22 02:40:00,
2013-07-21 22:41:00,73.9,68.0,29.85,SSE,155,0.0,0.0,82,0.00,,,0.04,VWS V14.01,2013-07-22 02:41:00,
2013-07-21 22:42:00,73.9,68.0,29.85,SSE,155,0.0,0.0,82,0.00,,,0.04,VWS V14.01,2013-07-22 02:42:00,
2013-07-21 22:43:00,73.9,68.0,29.85,SSE,155,0.0,0.0,82,0.00,,,0.04,VWS V14.01,2013-07-22 02:43:00,
2013-07-21 22:44:00,73.9,68.0,29.85,SSE,155,0.0,0.0,82,0.00,,,0.04,VWS V14.01,2013-07-22 02:44:00,
2013-07-21 22:45:00,73.9,68.0,29.85,SSE,155,0.0,0.0,82,0.00,,,0.04,VWS V14.01,2013-07-22 02:45:00,
2013-07-21 22:46:00,73.9,68.0,29.85,SSE,155,0.0,0.0,82,0.00,,,0.04,VWS V14.01,2013-07-22 02:46:00,
2013-07-21 22:47:00,73.9,68.0,29.85,SSE,155,0.0,0.0,82,0.00,,,0.04,VWS V14.01,2013-07-22 02:47:00,
2013-07-21 22:48:00,73.9,68.0,29.85,SSE,155,0.0,0.0,82,0.00,,,0.04,VWS V14.01,2013-07-22 02:48:00,
2013-07-21 22:49:00,73.9,68.0,29.85,SSE,155,0.0,0.0,82,0.00,,,0.04,VWS V14.01,2013-07-22 02:49:00,
2013-07-21 22:50:00,73.9,68.0,29.85,SSE,155,0.0,0.0,82,0.00,,,0.04,VWS V14.01,2013-07-22 02:50:00,
2013-07-21 22:51:00,73.9,68.4,29.85,SSE,155,0.0,0.0,83,0.00,,,0.04,VWS V14.01,2013-07-22 02:51:00,
2013-07-21 22:52:00,73.9,68.4,29.85,SSE,155,0.0,0.0,83,0.00,,,0.04,VWS V14.01,2013-07-22 02:52:00,
2013-07-21 22:53:00,73.9,68.4,29.85,SSE,155,0.0,0.0,83,0.00,,,0.04,VWS V14.01,2013-07-22 02:53:00,
2013-07-21 22:54:00,73.9,68.4,29.85,SSE,155,0.0,0.0,83,0.00,,,0.04,VWS V14.01,2013-07-22 02:54:00,
2013-07-21 22:55:00,73.9,68.4,29.85,SSE,155,0.0,0.0,83,0.00,,,0.04,VWS V14.01,2013-07-22 02:55:00,
2013-07-21 22:56:00,73.9,68.4,29.85,SSE,155,0.0,0.0,83,0.00,,,0.04,VWS V14.01,2013-07-22 02:56:00,
2013-07-21 22:57:00,73.9,68.4,29.85,SSE,155,0.0,0.0,83,0.00,,,0.04,VWS V14.01,2013-07-22 02:57:00,
2013-07-21 22:58:00,73.9,68.4,29.85,SSE,155,0.0,0.0,83,0.00,,,0.04,VWS V14.01,2013-07-22 02:58:00,
2013-07-21 22:59:00,73.9,68.4,29.85,SSE,155,0.0,0.0,83,0.00,,,0.04,VWS V14.01,2013-07-22 02:59:00,
2013-07-21 23:00:00,73.9,68.4,29.85,SSE,155,0.0,0.0,83,0.00,,,0.00,VWS V14.01,2013-07-22 03:00:00,
2013-07-21 23:01:00,73.9,68.4,29.85,SSE,155,0.0,0.0,83,0.00,,,0.04,VWS V14.01,2013-07-22 03:01:00,
2013-07-21 23:02:00,73.9,68.4,29.85,SSE,155,0.0,0.0,83,0.00,,,0.04,VWS V14.01,2013-07-22 03:02:00,
2013-07-21 23:03:00,73.9,68.4,29.85,SSE,155,0.0,0.0,83,0.00,,,0.04,VWS V14.01,2013-07-22 03:03:00,
2013-07-21 23:04:00,73.9,68.4,29.85,SSE,155,0.0,0.0,83,0.00,,,0.04,VWS V14.01,2013-07-22 03:04:00,
2013-07-21 23:05:00,73.9,68.4,29.85,SSE,155,0.0,0.0,83,0.00,,,0.04,VWS V14.01,2013-07-22 03:05:00,
2013-07-21 23:06:00,73.9,68.4,29.85,SSE,155,0.0,0.0,83,0.00,,,0.04,VWS V14.01,2013-07-22 03:06:00,
2013-07-21 23:07:00,74.0,68.6,29.85,SSE,155,0.0,0.0,83,0.00,,,0.04,VWS V14.01,2013-07-22 03:07:00,
2013-07-21 23:08:00,74.0,68.6,29.85,SSE,155,0.0,0.0,83,0.00,,,0.04,VWS V14.01,2013-07-22 03:08:00,
2013-07-21 23:09:00,74.0,68.6,29.85,SSE,155,0.0,0.0,83,0.00,,,0.04,VWS V14.01,2013-07-22 03:09:00,
2013-07-21 23:10:00,73.9,68.4,29.85,SSE,155,0.0,0.0,83,0.00,,,0.04,VWS V14.01,2013-07-22 03:10:00,
2013-07-21 23:11:00,73.9,68.4,29.85,SSE,155,0.0,0.0,83,0.00,,,0.04,VWS V14.01,2013-07-22 03:11:00,
2013-07-21 23:12:00,73.9,68.4,29.85,SSE,155,0.0,0.0,83,0.00,,,0.04,VWS V14.01,2013-07-22 03:12:00,
2013-07-21 23:13:00,73.9,68.4,29.85,SSE,155,0.0,0.0,83,0.00,,,0.04,VWS V14.01,2013-07-22 03:13:00,
2013-07-21 23:14:00,73.9,68.4,29.85,SSE,155,0.0,0.0,83,0.00,,,0.04,VWS V14.01,2013-07-22 03:14:00,
2013-07-21 23:15:00,73.9,68.4,29.85,SSE,155,0.0,0.0,83,0.00,,,0.04,VWS V14.01,2013-07-22 03:15:00,
2013-07-21 23:16:00,73.9,68.4,29.85,SSE,155,0.0,0.0,83,0.00,,,0.04,VWS V14.01,2013-07-22 03:16:00,
2013-07-21 23:17:00,73.9,68.4,29.85,SSE,155,0.0,0.0,83,0.00,,,0.04,VWS V14.01,2013-07-22 03:17:00,
2013-07-21 23:18:00,73.9,68.4,29.85,SSE,155,0.0,0.0,83,0.00,,,0.04,VWS V14.01,2013-07-22 03:18:00,
2013-07-21 23:19:00,73.9,68.4,29.85,SSE,155,0.0,0.0,83,0.00,,,0.04,VWS V14.01,2013-07-22 03:19:00,
2013-07-21 23:20:00,73.9,68.4,29.83,SSE,155,0.0,0.0,83,0.00,,,0.04,VWS V14.01,2013-07-22 03:20:00,
2013-07-21 23:21:00,73.9,68.4,29.83,SSE,155,0.0,0.0,83,0.00,,,0.04,VWS V14.01,2013-07-22 03:21:00,
2013-07-21 23:22:00,73.9,68.4,29.83,SSE,155,0.0,0.0,83,0.00,,,0.04,VWS V14.01,2013-07-22 03:22:00,
2013-07-21 23:23:00,73.9,68.4,29.83,SSE,155,0.0,0.0,83,0.00,,,0.04,VWS V14.01,2013-07-22 03:23:00,
2013-07-21 23:24:00,73.9,68.4,29.83,SSE,155,0.0,0.0,83,0.00,,,0.04,VWS V14.01,2013-07-22 03:24:00,
2013-07-21 23:25:00,73.9,68.4,29.83,SSE,155,0.0,0.0,83,0.00,,,0.04,VWS V14.01,2013-07-22 03:25:00,
2013-07-21 23:26:00,73.9,68.4,29.83,SSE,155,0.0,0.0,83,0.00,,,0.04,VWS V14.01,2013-07-22 03:26:00,
2013-07-21 23:27:00,73.9,68.4,29.83,SSE,155,0.0,0.0,83,0.00,,,0.04,VWS V14.01,2013-07-22 03:27:00,
2013-07-21 23:28:00,73.9,68.4,29.83,SSE,155,0.0,0.0,83,0.00,,,0.04,VWS V14.01,2013-07-22 03:28:00,
2013-07-21 23:29:00,73.9,68.4,29.83,SSE,155,0.0,0.0,83,0.00,,,0.04,VWS V14.01,2013-07-22 03:29:00,
2013-07-21 23:30:00,73.9,68.4,29.83,SSE,155,0.0,0.0,83,0.00,,,0.04,VWS V14.01,2013-07-22 03:30:00,